<?xml version="1.0" encoding="UTF-8" standalone="no" ?>
<gpx xmlns="http://www.topografix.com/GPX/1/1" xmlns:xsi="http://www.w3.org/2001/XMLSchema-instance" xsi:schemaLocation="http://www.topografix.com/GPX/1/1 http://www.topografix.com/GPX/1/1/gpx.xsd" version="1.1" creator="VisuGPX - https://www.visugpx.com">
  <metadata>
    <name>Villecroze - ST Jean - Thuery</name>
    <desc><![CDATA[Petite balade sans difficulté. ]]></desc>
  </metadata>
  <trk>
    <name><![CDATA[Villecroze - Saint Jean - Thuery]]></name>
    <extensions>
      <line xmlns="http://www.topografix.com/GPX/gpx_style/0/2">
        <color>ff0000</color>
        <opacity>1</opacity>
        <width>5</width>
      </line>
    </extensions>
    <trkseg>
      <trkpt lat="43.56566" lon="6.2933">
        <ele>315.7</ele>
        <time>2024-01-14T12:21:45.000Z</time>
      </trkpt>
      <trkpt lat="43.56562" lon="6.2933">
        <ele>315.4</ele>
        <time>2024-01-14T12:21:48.848Z</time>
      </trkpt>
      <trkpt lat="43.56559" lon="6.29335">
        <ele>315.3</ele>
        <time>2024-01-14T12:21:53.697Z</time>
      </trkpt>
      <trkpt lat="43.56556" lon="6.2934">
        <ele>315.3</ele>
        <time>2024-01-14T12:21:58.869Z</time>
      </trkpt>
      <trkpt lat="43.56558" lon="6.29347">
        <ele>315.6</ele>
        <time>2024-01-14T12:22:06.012Z</time>
      </trkpt>
      <trkpt lat="43.5656" lon="6.29354">
        <ele>315.9</ele>
        <time>2024-01-14T12:22:13.156Z</time>
      </trkpt>
      <trkpt lat="43.56562" lon="6.29363">
        <ele>316.3</ele>
        <time>2024-01-14T12:22:22.200Z</time>
      </trkpt>
      <trkpt lat="43.56564" lon="6.29371">
        <ele>316.7</ele>
        <time>2024-01-14T12:22:30.512Z</time>
      </trkpt>
      <trkpt lat="43.56567" lon="6.29379">
        <ele>317.1</ele>
        <time>2024-01-14T12:22:39.242Z</time>
      </trkpt>
      <trkpt lat="43.56569" lon="6.29387">
        <ele>317.4</ele>
        <time>2024-01-14T12:22:47.117Z</time>
      </trkpt>
      <trkpt lat="43.56571" lon="6.29396">
        <ele>318</ele>
        <time>2024-01-14T12:22:57.102Z</time>
      </trkpt>
      <trkpt lat="43.56573" lon="6.29404">
        <ele>318.5</ele>
        <time>2024-01-14T12:23:05.884Z</time>
      </trkpt>
      <trkpt lat="43.56574" lon="6.29416">
        <ele>319.3</ele>
        <time>2024-01-14T12:23:18.849Z</time>
      </trkpt>
      <trkpt lat="43.56575" lon="6.29427">
        <ele>319.8</ele>
        <time>2024-01-14T12:23:29.628Z</time>
      </trkpt>
      <trkpt lat="43.56572" lon="6.29434">
        <ele>319.8</ele>
        <time>2024-01-14T12:23:36.108Z</time>
      </trkpt>
      <trkpt lat="43.56569" lon="6.29441">
        <ele>319.8</ele>
        <time>2024-01-14T12:23:42.587Z</time>
      </trkpt>
      <trkpt lat="43.56566" lon="6.2945">
        <ele>320</ele>
        <time>2024-01-14T12:23:51.199Z</time>
      </trkpt>
      <trkpt lat="43.56562" lon="6.29458">
        <ele>320.1</ele>
        <time>2024-01-14T12:23:59.292Z</time>
      </trkpt>
      <trkpt lat="43.56559" lon="6.29466">
        <ele>320.1</ele>
        <time>2024-01-14T12:24:06.469Z</time>
      </trkpt>
      <trkpt lat="43.56556" lon="6.29473">
        <ele>320.1</ele>
        <time>2024-01-14T12:24:12.948Z</time>
      </trkpt>
      <trkpt lat="43.56553" lon="6.29482">
        <ele>320.9</ele>
        <time>2024-01-14T12:24:24.353Z</time>
      </trkpt>
      <trkpt lat="43.56549" lon="6.2949">
        <ele>321.5</ele>
        <time>2024-01-14T12:24:34.565Z</time>
      </trkpt>
      <trkpt lat="43.56546" lon="6.29495">
        <ele>321.8</ele>
        <time>2024-01-14T12:24:40.910Z</time>
      </trkpt>
      <trkpt lat="43.56542" lon="6.295">
        <ele>322</ele>
        <time>2024-01-14T12:24:47.578Z</time>
      </trkpt>
      <trkpt lat="43.56539" lon="6.29507">
        <ele>322.2</ele>
        <time>2024-01-14T12:24:54.787Z</time>
      </trkpt>
      <trkpt lat="43.56536" lon="6.29513">
        <ele>322.4</ele>
        <time>2024-01-14T12:25:01.331Z</time>
      </trkpt>
      <trkpt lat="43.56531" lon="6.29515">
        <ele>322.2</ele>
        <time>2024-01-14T12:25:06.431Z</time>
      </trkpt>
      <trkpt lat="43.56526" lon="6.29517">
        <ele>322.2</ele>
        <time>2024-01-14T12:25:12.155Z</time>
      </trkpt>
      <trkpt lat="43.56522" lon="6.2952">
        <ele>322.2</ele>
        <time>2024-01-14T12:25:17.160Z</time>
      </trkpt>
      <trkpt lat="43.56517" lon="6.29523">
        <ele>322.3</ele>
        <time>2024-01-14T12:25:23.507Z</time>
      </trkpt>
      <trkpt lat="43.56515" lon="6.29529">
        <ele>322.6</ele>
        <time>2024-01-14T12:25:29.939Z</time>
      </trkpt>
      <trkpt lat="43.56512" lon="6.29534">
        <ele>322.7</ele>
        <time>2024-01-14T12:25:35.465Z</time>
      </trkpt>
      <trkpt lat="43.5651" lon="6.29541">
        <ele>322.8</ele>
        <time>2024-01-14T12:25:41.812Z</time>
      </trkpt>
      <trkpt lat="43.56507" lon="6.29547">
        <ele>322.9</ele>
        <time>2024-01-14T12:25:47.973Z</time>
      </trkpt>
      <trkpt lat="43.56505" lon="6.29554">
        <ele>323.1</ele>
        <time>2024-01-14T12:25:54.702Z</time>
      </trkpt>
      <trkpt lat="43.56502" lon="6.29561">
        <ele>323.5</ele>
        <time>2024-01-14T12:26:02.760Z</time>
      </trkpt>
      <trkpt lat="43.56499" lon="6.29567">
        <ele>323.8</ele>
        <time>2024-01-14T12:26:09.721Z</time>
      </trkpt>
      <trkpt lat="43.56496" lon="6.29573">
        <ele>324.2</ele>
        <time>2024-01-14T12:26:17.138Z</time>
      </trkpt>
      <trkpt lat="43.56494" lon="6.2958">
        <ele>324.6</ele>
        <time>2024-01-14T12:26:24.732Z</time>
      </trkpt>
      <trkpt lat="43.56492" lon="6.29586">
        <ele>324.9</ele>
        <time>2024-01-14T12:26:31.164Z</time>
      </trkpt>
      <trkpt lat="43.5649" lon="6.29593">
        <ele>325.2</ele>
        <time>2024-01-14T12:26:38.307Z</time>
      </trkpt>
      <trkpt lat="43.56488" lon="6.29599">
        <ele>325.5</ele>
        <time>2024-01-14T12:26:44.739Z</time>
      </trkpt>
      <trkpt lat="43.56487" lon="6.29607">
        <ele>325.8</ele>
        <time>2024-01-14T12:26:52.344Z</time>
      </trkpt>
      <trkpt lat="43.56485" lon="6.29615">
        <ele>326.2</ele>
        <time>2024-01-14T12:27:00.656Z</time>
      </trkpt>
      <trkpt lat="43.56483" lon="6.29622">
        <ele>326.6</ele>
        <time>2024-01-14T12:27:08.250Z</time>
      </trkpt>
      <trkpt lat="43.5648" lon="6.29628">
        <ele>326.8</ele>
        <time>2024-01-14T12:27:14.794Z</time>
      </trkpt>
      <trkpt lat="43.56478" lon="6.29635">
        <ele>327.1</ele>
        <time>2024-01-14T12:27:21.938Z</time>
      </trkpt>
      <trkpt lat="43.56475" lon="6.29642">
        <ele>327.3</ele>
        <time>2024-01-14T12:27:29.147Z</time>
      </trkpt>
      <trkpt lat="43.56473" lon="6.29649">
        <ele>327.4</ele>
        <time>2024-01-14T12:27:35.494Z</time>
      </trkpt>
      <trkpt lat="43.5647" lon="6.29655">
        <ele>327.5</ele>
        <time>2024-01-14T12:27:41.655Z</time>
      </trkpt>
      <trkpt lat="43.56468" lon="6.29664">
        <ele>327.9</ele>
        <time>2024-01-14T12:27:50.699Z</time>
      </trkpt>
      <trkpt lat="43.56466" lon="6.29672">
        <ele>328.5</ele>
        <time>2024-01-14T12:27:59.988Z</time>
      </trkpt>
      <trkpt lat="43.56465" lon="6.29681">
        <ele>329.4</ele>
        <time>2024-01-14T12:28:11.454Z</time>
      </trkpt>
      <trkpt lat="43.56463" lon="6.2969">
        <ele>330.2</ele>
        <time>2024-01-14T12:28:22.518Z</time>
      </trkpt>
      <trkpt lat="43.56461" lon="6.29699">
        <ele>331</ele>
        <time>2024-01-14T12:28:33.582Z</time>
      </trkpt>
      <trkpt lat="43.56459" lon="6.29708">
        <ele>331.8</ele>
        <time>2024-01-14T12:28:44.646Z</time>
      </trkpt>
      <trkpt lat="43.56458" lon="6.29718">
        <ele>332.6</ele>
        <time>2024-01-14T12:28:56.183Z</time>
      </trkpt>
      <trkpt lat="43.56456" lon="6.29727">
        <ele>333.1</ele>
        <time>2024-01-14T12:29:05.682Z</time>
      </trkpt>
      <trkpt lat="43.56454" lon="6.29734">
        <ele>333.4</ele>
        <time>2024-01-14T12:29:12.825Z</time>
      </trkpt>
      <trkpt lat="43.56451" lon="6.29741">
        <ele>333.7</ele>
        <time>2024-01-14T12:29:20.443Z</time>
      </trkpt>
      <trkpt lat="43.56448" lon="6.29746">
        <ele>333.9</ele>
        <time>2024-01-14T12:29:26.359Z</time>
      </trkpt>
      <trkpt lat="43.56444" lon="6.2975">
        <ele>334</ele>
        <time>2024-01-14T12:29:32.144Z</time>
      </trkpt>
      <trkpt lat="43.56442" lon="6.29756">
        <ele>334</ele>
        <time>2024-01-14T12:29:37.405Z</time>
      </trkpt>
      <trkpt lat="43.5644" lon="6.29762">
        <ele>334.1</ele>
        <time>2024-01-14T12:29:43.022Z</time>
      </trkpt>
      <trkpt lat="43.5644" lon="6.29769">
        <ele>334.4</ele>
        <time>2024-01-14T12:29:49.759Z</time>
      </trkpt>
      <trkpt lat="43.5644" lon="6.29776">
        <ele>334.6</ele>
        <time>2024-01-14T12:29:56.074Z</time>
      </trkpt>
      <trkpt lat="43.56439" lon="6.29783">
        <ele>334.8</ele>
        <time>2024-01-14T12:30:02.496Z</time>
      </trkpt>
      <trkpt lat="43.56438" lon="6.2979">
        <ele>335</ele>
        <time>2024-01-14T12:30:08.918Z</time>
      </trkpt>
      <trkpt lat="43.56436" lon="6.29796">
        <ele>335</ele>
        <time>2024-01-14T12:30:14.180Z</time>
      </trkpt>
      <trkpt lat="43.56433" lon="6.29801">
        <ele>335</ele>
        <time>2024-01-14T12:30:19.352Z</time>
      </trkpt>
      <trkpt lat="43.56431" lon="6.29807">
        <ele>335.1</ele>
        <time>2024-01-14T12:30:24.968Z</time>
      </trkpt>
      <trkpt lat="43.56428" lon="6.29812">
        <ele>335.1</ele>
        <time>2024-01-14T12:30:30.140Z</time>
      </trkpt>
      <trkpt lat="43.56424" lon="6.29823">
        <ele>335.3</ele>
        <time>2024-01-14T12:30:40.657Z</time>
      </trkpt>
      <trkpt lat="43.56422" lon="6.29829">
        <ele>335.4</ele>
        <time>2024-01-14T12:30:46.273Z</time>
      </trkpt>
      <trkpt lat="43.56419" lon="6.29834">
        <ele>335.3</ele>
        <time>2024-01-14T12:30:51.121Z</time>
      </trkpt>
      <trkpt lat="43.56417" lon="6.2984">
        <ele>335.8</ele>
        <time>2024-01-14T12:30:58.540Z</time>
      </trkpt>
      <trkpt lat="43.56414" lon="6.29846">
        <ele>336.2</ele>
        <time>2024-01-14T12:31:05.957Z</time>
      </trkpt>
      <trkpt lat="43.56412" lon="6.29852">
        <ele>336.6</ele>
        <time>2024-01-14T12:31:12.858Z</time>
      </trkpt>
      <trkpt lat="43.5641" lon="6.29858">
        <ele>337</ele>
        <time>2024-01-14T12:31:19.759Z</time>
      </trkpt>
      <trkpt lat="43.56407" lon="6.29865">
        <ele>337.3</ele>
        <time>2024-01-14T12:31:27.376Z</time>
      </trkpt>
      <trkpt lat="43.56404" lon="6.29872">
        <ele>337.6</ele>
        <time>2024-01-14T12:31:34.994Z</time>
      </trkpt>
      <trkpt lat="43.56401" lon="6.29878">
        <ele>337.8</ele>
        <time>2024-01-14T12:31:41.538Z</time>
      </trkpt>
      <trkpt lat="43.56398" lon="6.29883">
        <ele>337.8</ele>
        <time>2024-01-14T12:31:46.710Z</time>
      </trkpt>
      <trkpt lat="43.56396" lon="6.29889">
        <ele>338</ele>
        <time>2024-01-14T12:31:52.714Z</time>
      </trkpt>
      <trkpt lat="43.56394" lon="6.29895">
        <ele>338.4</ele>
        <time>2024-01-14T12:31:59.615Z</time>
      </trkpt>
      <trkpt lat="43.56392" lon="6.29901">
        <ele>338.8</ele>
        <time>2024-01-14T12:32:06.517Z</time>
      </trkpt>
      <trkpt lat="43.56389" lon="6.29907">
        <ele>339</ele>
        <time>2024-01-14T12:32:13.061Z</time>
      </trkpt>
      <trkpt lat="43.56387" lon="6.29914">
        <ele>339.4</ele>
        <time>2024-01-14T12:32:20.655Z</time>
      </trkpt>
      <trkpt lat="43.56385" lon="6.2992">
        <ele>339.8</ele>
        <time>2024-01-14T12:32:27.556Z</time>
      </trkpt>
      <trkpt lat="43.56383" lon="6.29928">
        <ele>340.4</ele>
        <time>2024-01-14T12:32:36.845Z</time>
      </trkpt>
      <trkpt lat="43.5638" lon="6.29935">
        <ele>340.7</ele>
        <time>2024-01-14T12:32:44.462Z</time>
      </trkpt>
      <trkpt lat="43.56376" lon="6.29943">
        <ele>341</ele>
        <time>2024-01-14T12:32:53.322Z</time>
      </trkpt>
      <trkpt lat="43.56372" lon="6.2995">
        <ele>341.1</ele>
        <time>2024-01-14T12:33:00.775Z</time>
      </trkpt>
      <trkpt lat="43.56369" lon="6.29956">
        <ele>341.3</ele>
        <time>2024-01-14T12:33:07.319Z</time>
      </trkpt>
      <trkpt lat="43.56366" lon="6.29961">
        <ele>341.4</ele>
        <time>2024-01-14T12:33:12.846Z</time>
      </trkpt>
      <trkpt lat="43.56364" lon="6.29969">
        <ele>342</ele>
        <time>2024-01-14T12:33:22.135Z</time>
      </trkpt>
      <trkpt lat="43.56362" lon="6.29976">
        <ele>342.4</ele>
        <time>2024-01-14T12:33:29.729Z</time>
      </trkpt>
      <trkpt lat="43.5636" lon="6.29985">
        <ele>342.8</ele>
        <time>2024-01-14T12:33:38.774Z</time>
      </trkpt>
      <trkpt lat="43.56358" lon="6.29994">
        <ele>343.3</ele>
        <time>2024-01-14T12:33:48.273Z</time>
      </trkpt>
      <trkpt lat="43.56355" lon="6.30001">
        <ele>343.4</ele>
        <time>2024-01-14T12:33:55.104Z</time>
      </trkpt>
      <trkpt lat="43.56352" lon="6.30007">
        <ele>343.5</ele>
        <time>2024-01-14T12:34:01.264Z</time>
      </trkpt>
      <trkpt lat="43.56349" lon="6.30014">
        <ele>343.7</ele>
        <time>2024-01-14T12:34:08.474Z</time>
      </trkpt>
      <trkpt lat="43.56345" lon="6.3002">
        <ele>343.7</ele>
        <time>2024-01-14T12:34:14.969Z</time>
      </trkpt>
      <trkpt lat="43.56342" lon="6.30027">
        <ele>343.9</ele>
        <time>2024-01-14T12:34:22.179Z</time>
      </trkpt>
      <trkpt lat="43.56339" lon="6.30033">
        <ele>344</ele>
        <time>2024-01-14T12:34:28.339Z</time>
      </trkpt>
      <trkpt lat="43.56337" lon="6.30042">
        <ele>344.4</ele>
        <time>2024-01-14T12:34:37.384Z</time>
      </trkpt>
      <trkpt lat="43.56335" lon="6.3005">
        <ele>344.8</ele>
        <time>2024-01-14T12:34:45.695Z</time>
      </trkpt>
      <trkpt lat="43.56337" lon="6.30059">
        <ele>345.8</ele>
        <time>2024-01-14T12:34:58.001Z</time>
      </trkpt>
      <trkpt lat="43.56339" lon="6.30068">
        <ele>347</ele>
        <time>2024-01-14T12:35:11.739Z</time>
      </trkpt>
      <trkpt lat="43.56342" lon="6.30077">
        <ele>348.3</ele>
        <time>2024-01-14T12:35:26.485Z</time>
      </trkpt>
      <trkpt lat="43.56345" lon="6.30086">
        <ele>349.4</ele>
        <time>2024-01-14T12:35:39.757Z</time>
      </trkpt>
      <trkpt lat="43.56348" lon="6.30094">
        <ele>350.2</ele>
        <time>2024-01-14T12:35:50.546Z</time>
      </trkpt>
      <trkpt lat="43.56351" lon="6.30102">
        <ele>351</ele>
        <time>2024-01-14T12:36:01.335Z</time>
      </trkpt>
      <trkpt lat="43.56354" lon="6.30109">
        <ele>351.8</ele>
        <time>2024-01-14T12:36:11.552Z</time>
      </trkpt>
      <trkpt lat="43.56357" lon="6.30116">
        <ele>352.6</ele>
        <time>2024-01-14T12:36:21.769Z</time>
      </trkpt>
      <trkpt lat="43.56359" lon="6.30124">
        <ele>353.2</ele>
        <time>2024-01-14T12:36:31.057Z</time>
      </trkpt>
      <trkpt lat="43.56361" lon="6.30131">
        <ele>353.7</ele>
        <time>2024-01-14T12:36:39.142Z</time>
      </trkpt>
      <trkpt lat="43.56363" lon="6.30138">
        <ele>354.3</ele>
        <time>2024-01-14T12:36:47.762Z</time>
      </trkpt>
      <trkpt lat="43.56364" lon="6.30145">
        <ele>355.2</ele>
        <time>2024-01-14T12:36:58.101Z</time>
      </trkpt>
      <trkpt lat="43.56362" lon="6.30152">
        <ele>355.6</ele>
        <time>2024-01-14T12:37:05.696Z</time>
      </trkpt>
      <trkpt lat="43.5636" lon="6.30159">
        <ele>356.1</ele>
        <time>2024-01-14T12:37:13.781Z</time>
      </trkpt>
      <trkpt lat="43.56357" lon="6.30167">
        <ele>356.8</ele>
        <time>2024-01-14T12:37:23.998Z</time>
      </trkpt>
      <trkpt lat="43.56353" lon="6.30174">
        <ele>357.4</ele>
        <time>2024-01-14T12:37:33.616Z</time>
      </trkpt>
      <trkpt lat="43.56351" lon="6.30181">
        <ele>358.1</ele>
        <time>2024-01-14T12:37:42.819Z</time>
      </trkpt>
      <trkpt lat="43.56349" lon="6.30187">
        <ele>358.7</ele>
        <time>2024-01-14T12:37:50.810Z</time>
      </trkpt>
      <trkpt lat="43.56346" lon="6.30193">
        <ele>359.2</ele>
        <time>2024-01-14T12:37:58.723Z</time>
      </trkpt>
      <trkpt lat="43.56343" lon="6.30199">
        <ele>359.6</ele>
        <time>2024-01-14T12:38:06.140Z</time>
      </trkpt>
      <trkpt lat="43.56337" lon="6.30204">
        <ele>359.5</ele>
        <time>2024-01-14T12:38:13.518Z</time>
      </trkpt>
      <trkpt lat="43.5633" lon="6.30209">
        <ele>359.3</ele>
        <time>2024-01-14T12:38:21.543Z</time>
      </trkpt>
      <trkpt lat="43.56324" lon="6.3021">
        <ele>358.9</ele>
        <time>2024-01-14T12:38:27.358Z</time>
      </trkpt>
      <trkpt lat="43.56318" lon="6.30211">
        <ele>358.5</ele>
        <time>2024-01-14T12:38:33.172Z</time>
      </trkpt>
      <trkpt lat="43.56312" lon="6.30213">
        <ele>358.2</ele>
        <time>2024-01-14T12:38:39.110Z</time>
      </trkpt>
      <trkpt lat="43.56305" lon="6.30214">
        <ele>357.8</ele>
        <time>2024-01-14T12:38:45.881Z</time>
      </trkpt>
      <trkpt lat="43.56297" lon="6.30218">
        <ele>358.1</ele>
        <time>2024-01-14T12:38:56.334Z</time>
      </trkpt>
      <trkpt lat="43.56289" lon="6.30221">
        <ele>358.2</ele>
        <time>2024-01-14T12:39:05.797Z</time>
      </trkpt>
      <trkpt lat="43.56284" lon="6.30224">
        <ele>358.6</ele>
        <time>2024-01-14T12:39:13.391Z</time>
      </trkpt>
      <trkpt lat="43.56279" lon="6.30227">
        <ele>358.9</ele>
        <time>2024-01-14T12:39:20.535Z</time>
      </trkpt>
      <trkpt lat="43.56273" lon="6.30228">
        <ele>359</ele>
        <time>2024-01-14T12:39:27.531Z</time>
      </trkpt>
      <trkpt lat="43.56273" lon="6.30232">
        <ele>359.7</ele>
        <time>2024-01-14T12:39:35.092Z</time>
      </trkpt>
      <trkpt lat="43.56278" lon="6.30226">
        <ele>358.7</ele>
        <time>2024-01-14T12:39:41.467Z</time>
      </trkpt>
      <trkpt lat="43.56279" lon="6.30224">
        <ele>358.4</ele>
        <time>2024-01-14T12:39:43.161Z</time>
      </trkpt>
      <trkpt lat="43.56271" lon="6.30221">
        <ele>357.8</ele>
        <time>2024-01-14T12:39:51.137Z</time>
      </trkpt>
      <trkpt lat="43.56271" lon="6.30224">
        <ele>358.3</ele>
        <time>2024-01-14T12:39:56.550Z</time>
      </trkpt>
      <trkpt lat="43.56273" lon="6.30223">
        <ele>358.1</ele>
        <time>2024-01-14T12:39:58.596Z</time>
      </trkpt>
      <trkpt lat="43.56266" lon="6.30225">
        <ele>358.5</ele>
        <time>2024-01-14T12:40:07.991Z</time>
      </trkpt>
      <trkpt lat="43.56261" lon="6.30226">
        <ele>358.6</ele>
        <time>2024-01-14T12:40:13.900Z</time>
      </trkpt>
      <trkpt lat="43.56255" lon="6.30227">
        <ele>358.7</ele>
        <time>2024-01-14T12:40:20.896Z</time>
      </trkpt>
      <trkpt lat="43.56249" lon="6.30227">
        <ele>358.7</ele>
        <time>2024-01-14T12:40:27.493Z</time>
      </trkpt>
      <trkpt lat="43.56242" lon="6.30227">
        <ele>358.7</ele>
        <time>2024-01-14T12:40:35.190Z</time>
      </trkpt>
      <trkpt lat="43.56237" lon="6.30227">
        <ele>358.7</ele>
        <time>2024-01-14T12:40:40.687Z</time>
      </trkpt>
      <trkpt lat="43.56232" lon="6.30226">
        <ele>358.5</ele>
        <time>2024-01-14T12:40:45.619Z</time>
      </trkpt>
      <trkpt lat="43.56227" lon="6.30227">
        <ele>358.7</ele>
        <time>2024-01-14T12:40:51.913Z</time>
      </trkpt>
      <trkpt lat="43.56221" lon="6.30228">
        <ele>358.9</ele>
        <time>2024-01-14T12:40:59.287Z</time>
      </trkpt>
      <trkpt lat="43.56217" lon="6.3023">
        <ele>359.4</ele>
        <time>2024-01-14T12:41:06.194Z</time>
      </trkpt>
      <trkpt lat="43.56212" lon="6.30232">
        <ele>359.9</ele>
        <time>2024-01-14T12:41:14.030Z</time>
      </trkpt>
      <trkpt lat="43.56206" lon="6.30234">
        <ele>360.4</ele>
        <time>2024-01-14T12:41:22.853Z</time>
      </trkpt>
      <trkpt lat="43.56199" lon="6.30236">
        <ele>360.8</ele>
        <time>2024-01-14T12:41:32.248Z</time>
      </trkpt>
      <trkpt lat="43.56195" lon="6.30233">
        <ele>360.8</ele>
        <time>2024-01-14T12:41:37.254Z</time>
      </trkpt>
      <trkpt lat="43.5619" lon="6.3023">
        <ele>360.2</ele>
        <time>2024-01-14T12:41:42.499Z</time>
      </trkpt>
      <trkpt lat="43.56183" lon="6.30234">
        <ele>360</ele>
        <time>2024-01-14T12:41:50.189Z</time>
      </trkpt>
      <trkpt lat="43.56178" lon="6.3024">
        <ele>360.1</ele>
        <time>2024-01-14T12:41:57.824Z</time>
      </trkpt>
      <trkpt lat="43.56173" lon="6.30245">
        <ele>360.1</ele>
        <time>2024-01-14T12:42:04.614Z</time>
      </trkpt>
      <trkpt lat="43.5617" lon="6.30254">
        <ele>360.6</ele>
        <time>2024-01-14T12:42:14.488Z</time>
      </trkpt>
      <trkpt lat="43.56166" lon="6.30263">
        <ele>360.8</ele>
        <time>2024-01-14T12:42:23.617Z</time>
      </trkpt>
      <trkpt lat="43.56163" lon="6.3027">
        <ele>360.8</ele>
        <time>2024-01-14T12:42:30.097Z</time>
      </trkpt>
      <trkpt lat="43.56159" lon="6.30276">
        <ele>360.5</ele>
        <time>2024-01-14T12:42:35.781Z</time>
      </trkpt>
      <trkpt lat="43.56156" lon="6.30284">
        <ele>360.5</ele>
        <time>2024-01-14T12:42:42.958Z</time>
      </trkpt>
      <trkpt lat="43.56153" lon="6.30291">
        <ele>360.5</ele>
        <time>2024-01-14T12:42:49.438Z</time>
      </trkpt>
      <trkpt lat="43.5615" lon="6.30298">
        <ele>360.5</ele>
        <time>2024-01-14T12:42:55.917Z</time>
      </trkpt>
      <trkpt lat="43.56147" lon="6.30304">
        <ele>360.3</ele>
        <time>2024-01-14T12:43:01.100Z</time>
      </trkpt>
      <trkpt lat="43.56144" lon="6.30311">
        <ele>360.2</ele>
        <time>2024-01-14T12:43:07.253Z</time>
      </trkpt>
      <trkpt lat="43.56141" lon="6.30318">
        <ele>359.9</ele>
        <time>2024-01-14T12:43:12.923Z</time>
      </trkpt>
      <trkpt lat="43.5614" lon="6.30326">
        <ele>360</ele>
        <time>2024-01-14T12:43:19.743Z</time>
      </trkpt>
      <trkpt lat="43.56138" lon="6.30333">
        <ele>359.9</ele>
        <time>2024-01-14T12:43:25.412Z</time>
      </trkpt>
      <trkpt lat="43.56137" lon="6.30341">
        <ele>359.7</ele>
        <time>2024-01-14T12:43:31.250Z</time>
      </trkpt>
      <trkpt lat="43.56136" lon="6.30349">
        <ele>359.6</ele>
        <time>2024-01-14T12:43:37.392Z</time>
      </trkpt>
      <trkpt lat="43.56135" lon="6.30357">
        <ele>359.6</ele>
        <time>2024-01-14T12:43:43.860Z</time>
      </trkpt>
      <trkpt lat="43.56134" lon="6.30365">
        <ele>359.5</ele>
        <time>2024-01-14T12:43:50.002Z</time>
      </trkpt>
      <trkpt lat="43.56134" lon="6.30377">
        <ele>359.7</ele>
        <time>2024-01-14T12:44:00.275Z</time>
      </trkpt>
      <trkpt lat="43.56134" lon="6.30389">
        <ele>359.9</ele>
        <time>2024-01-14T12:44:10.548Z</time>
      </trkpt>
      <trkpt lat="43.56133" lon="6.30401">
        <ele>359.9</ele>
        <time>2024-01-14T12:44:20.172Z</time>
      </trkpt>
      <trkpt lat="43.56131" lon="6.30412">
        <ele>359.8</ele>
        <time>2024-01-14T12:44:28.878Z</time>
      </trkpt>
      <trkpt lat="43.56129" lon="6.30424">
        <ele>360.1</ele>
        <time>2024-01-14T12:44:39.782Z</time>
      </trkpt>
      <trkpt lat="43.56127" lon="6.30435">
        <ele>360.6</ele>
        <time>2024-01-14T12:44:50.759Z</time>
      </trkpt>
      <trkpt lat="43.56126" lon="6.30447">
        <ele>361.2</ele>
        <time>2024-01-14T12:45:02.755Z</time>
      </trkpt>
      <trkpt lat="43.56124" lon="6.30459">
        <ele>361.4</ele>
        <time>2024-01-14T12:45:13.277Z</time>
      </trkpt>
      <trkpt lat="43.56122" lon="6.30468">
        <ele>361.4</ele>
        <time>2024-01-14T12:45:20.777Z</time>
      </trkpt>
      <trkpt lat="43.5612" lon="6.30477">
        <ele>361.5</ele>
        <time>2024-01-14T12:45:28.627Z</time>
      </trkpt>
      <trkpt lat="43.56118" lon="6.30486">
        <ele>361.5</ele>
        <time>2024-01-14T12:45:36.127Z</time>
      </trkpt>
      <trkpt lat="43.56115" lon="6.30494">
        <ele>361.3</ele>
        <time>2024-01-14T12:45:42.670Z</time>
      </trkpt>
      <trkpt lat="43.56113" lon="6.30502">
        <ele>361.3</ele>
        <time>2024-01-14T12:45:49.413Z</time>
      </trkpt>
      <trkpt lat="43.56111" lon="6.3051">
        <ele>361.3</ele>
        <time>2024-01-14T12:45:56.155Z</time>
      </trkpt>
      <trkpt lat="43.56108" lon="6.30517">
        <ele>361.3</ele>
        <time>2024-01-14T12:46:02.635Z</time>
      </trkpt>
      <trkpt lat="43.56105" lon="6.30523">
        <ele>361.2</ele>
        <time>2024-01-14T12:46:08.118Z</time>
      </trkpt>
      <trkpt lat="43.56103" lon="6.30534">
        <ele>361.7</ele>
        <time>2024-01-14T12:46:19.095Z</time>
      </trkpt>
      <trkpt lat="43.56101" lon="6.30544">
        <ele>362.4</ele>
        <time>2024-01-14T12:46:30.297Z</time>
      </trkpt>
      <trkpt lat="43.561" lon="6.30555">
        <ele>363.3</ele>
        <time>2024-01-14T12:46:43.087Z</time>
      </trkpt>
      <trkpt lat="43.56099" lon="6.30565">
        <ele>364.7</ele>
        <time>2024-01-14T12:46:58.722Z</time>
      </trkpt>
      <trkpt lat="43.56098" lon="6.30574">
        <ele>365.8</ele>
        <time>2024-01-14T12:47:11.553Z</time>
      </trkpt>
      <trkpt lat="43.56096" lon="6.30583">
        <ele>366.6</ele>
        <time>2024-01-14T12:47:22.618Z</time>
      </trkpt>
      <trkpt lat="43.56095" lon="6.30591">
        <ele>367.2</ele>
        <time>2024-01-14T12:47:31.659Z</time>
      </trkpt>
      <trkpt lat="43.56093" lon="6.30599">
        <ele>367.5</ele>
        <time>2024-01-14T12:47:39.534Z</time>
      </trkpt>
      <trkpt lat="43.56091" lon="6.30608">
        <ele>367.9</ele>
        <time>2024-01-14T12:47:48.579Z</time>
      </trkpt>
      <trkpt lat="43.56089" lon="6.30617">
        <ele>368.2</ele>
        <time>2024-01-14T12:47:57.200Z</time>
      </trkpt>
      <trkpt lat="43.56087" lon="6.30624">
        <ele>368.3</ele>
        <time>2024-01-14T12:48:03.547Z</time>
      </trkpt>
      <trkpt lat="43.56085" lon="6.3063">
        <ele>368.4</ele>
        <time>2024-01-14T12:48:09.163Z</time>
      </trkpt>
      <trkpt lat="43.56083" lon="6.30638">
        <ele>368.9</ele>
        <time>2024-01-14T12:48:17.945Z</time>
      </trkpt>
      <trkpt lat="43.5608" lon="6.30646">
        <ele>369.3</ele>
        <time>2024-01-14T12:48:26.676Z</time>
      </trkpt>
      <trkpt lat="43.56079" lon="6.30656">
        <ele>370.1</ele>
        <time>2024-01-14T12:48:38.213Z</time>
      </trkpt>
      <trkpt lat="43.56077" lon="6.30665">
        <ele>370.7</ele>
        <time>2024-01-14T12:48:48.199Z</time>
      </trkpt>
      <trkpt lat="43.56076" lon="6.30673">
        <ele>370.9</ele>
        <time>2024-01-14T12:48:55.397Z</time>
      </trkpt>
      <trkpt lat="43.56074" lon="6.30681">
        <ele>370.8</ele>
        <time>2024-01-14T12:49:01.813Z</time>
      </trkpt>
      <trkpt lat="43.56072" lon="6.3069">
        <ele>370.8</ele>
        <time>2024-01-14T12:49:09.313Z</time>
      </trkpt>
      <trkpt lat="43.5607" lon="6.30699">
        <ele>371</ele>
        <time>2024-01-14T12:49:17.536Z</time>
      </trkpt>
      <trkpt lat="43.56067" lon="6.30706">
        <ele>371.1</ele>
        <time>2024-01-14T12:49:24.367Z</time>
      </trkpt>
      <trkpt lat="43.56064" lon="6.30712">
        <ele>371.2</ele>
        <time>2024-01-14T12:49:30.528Z</time>
      </trkpt>
      <trkpt lat="43.56061" lon="6.30719">
        <ele>371.5</ele>
        <time>2024-01-14T12:49:38.145Z</time>
      </trkpt>
      <trkpt lat="43.56058" lon="6.30725">
        <ele>371.7</ele>
        <time>2024-01-14T12:49:44.690Z</time>
      </trkpt>
      <trkpt lat="43.56055" lon="6.30732">
        <ele>372</ele>
        <time>2024-01-14T12:49:52.307Z</time>
      </trkpt>
      <trkpt lat="43.56052" lon="6.30739">
        <ele>372.2</ele>
        <time>2024-01-14T12:49:59.517Z</time>
      </trkpt>
      <trkpt lat="43.56051" lon="6.30746">
        <ele>372.7</ele>
        <time>2024-01-14T12:50:07.317Z</time>
      </trkpt>
      <trkpt lat="43.5605" lon="6.30752">
        <ele>373.1</ele>
        <time>2024-01-14T12:50:13.886Z</time>
      </trkpt>
      <trkpt lat="43.56048" lon="6.30761">
        <ele>373</ele>
        <time>2024-01-14T12:50:21.059Z</time>
      </trkpt>
      <trkpt lat="43.56045" lon="6.30769">
        <ele>372.8</ele>
        <time>2024-01-14T12:50:27.601Z</time>
      </trkpt>
      <trkpt lat="43.56042" lon="6.3078">
        <ele>372.7</ele>
        <time>2024-01-14T12:50:36.636Z</time>
      </trkpt>
      <trkpt lat="43.56038" lon="6.30791">
        <ele>372.5</ele>
        <time>2024-01-14T12:50:45.796Z</time>
      </trkpt>
      <trkpt lat="43.56035" lon="6.30799">
        <ele>372.3</ele>
        <time>2024-01-14T12:50:52.339Z</time>
      </trkpt>
      <trkpt lat="43.56031" lon="6.30807">
        <ele>371.8</ele>
        <time>2024-01-14T12:50:59.115Z</time>
      </trkpt>
      <trkpt lat="43.56028" lon="6.30815">
        <ele>371.7</ele>
        <time>2024-01-14T12:51:05.965Z</time>
      </trkpt>
      <trkpt lat="43.56025" lon="6.30822">
        <ele>371.6</ele>
        <time>2024-01-14T12:51:12.118Z</time>
      </trkpt>
      <trkpt lat="43.56025" lon="6.30831">
        <ele>372.1</ele>
        <time>2024-01-14T12:51:21.304Z</time>
      </trkpt>
      <trkpt lat="43.56024" lon="6.30839">
        <ele>372</ele>
        <time>2024-01-14T12:51:27.446Z</time>
      </trkpt>
      <trkpt lat="43.56024" lon="6.3085">
        <ele>372</ele>
        <time>2024-01-14T12:51:36.210Z</time>
      </trkpt>
      <trkpt lat="43.56024" lon="6.3086">
        <ele>372</ele>
        <time>2024-01-14T12:51:44.178Z</time>
      </trkpt>
      <trkpt lat="43.56025" lon="6.30869">
        <ele>372.3</ele>
        <time>2024-01-14T12:51:52.556Z</time>
      </trkpt>
      <trkpt lat="43.56025" lon="6.30878">
        <ele>372.4</ele>
        <time>2024-01-14T12:52:00.077Z</time>
      </trkpt>
      <trkpt lat="43.56028" lon="6.30888">
        <ele>373.1</ele>
        <time>2024-01-14T12:52:11.609Z</time>
      </trkpt>
      <trkpt lat="43.56031" lon="6.30898">
        <ele>373.1</ele>
        <time>2024-01-14T12:52:20.233Z</time>
      </trkpt>
      <trkpt lat="43.56035" lon="6.30907">
        <ele>373.4</ele>
        <time>2024-01-14T12:52:29.753Z</time>
      </trkpt>
      <trkpt lat="43.56038" lon="6.30916">
        <ele>373.4</ele>
        <time>2024-01-14T12:52:37.646Z</time>
      </trkpt>
      <trkpt lat="43.56044" lon="6.30925">
        <ele>374</ele>
        <time>2024-01-14T12:52:49.757Z</time>
      </trkpt>
      <trkpt lat="43.5605" lon="6.30934">
        <ele>375</ele>
        <time>2024-01-14T12:53:03.906Z</time>
      </trkpt>
      <trkpt lat="43.56051" lon="6.3094">
        <ele>374.6</ele>
        <time>2024-01-14T12:53:08.198Z</time>
      </trkpt>
      <trkpt lat="43.56053" lon="6.30946">
        <ele>374.7</ele>
        <time>2024-01-14T12:53:13.815Z</time>
      </trkpt>
      <trkpt lat="43.56054" lon="6.30952">
        <ele>374.3</ele>
        <time>2024-01-14T12:53:18.107Z</time>
      </trkpt>
      <trkpt lat="43.56055" lon="6.30958">
        <ele>373.8</ele>
        <time>2024-01-14T12:53:22.399Z</time>
      </trkpt>
      <trkpt lat="43.56057" lon="6.30967">
        <ele>373.5</ele>
        <time>2024-01-14T12:53:28.974Z</time>
      </trkpt>
      <trkpt lat="43.56058" lon="6.30976">
        <ele>372.9</ele>
        <time>2024-01-14T12:53:35.322Z</time>
      </trkpt>
      <trkpt lat="43.56061" lon="6.30984">
        <ele>373.5</ele>
        <time>2024-01-14T12:53:45.008Z</time>
      </trkpt>
      <trkpt lat="43.56063" lon="6.30992">
        <ele>373.5</ele>
        <time>2024-01-14T12:53:51.751Z</time>
      </trkpt>
      <trkpt lat="43.56066" lon="6.31002">
        <ele>373.8</ele>
        <time>2024-01-14T12:54:01.479Z</time>
      </trkpt>
      <trkpt lat="43.56069" lon="6.31012">
        <ele>374.6</ele>
        <time>2024-01-14T12:54:13.533Z</time>
      </trkpt>
      <trkpt lat="43.56071" lon="6.3102">
        <ele>375.2</ele>
        <time>2024-01-14T12:54:22.822Z</time>
      </trkpt>
      <trkpt lat="43.56072" lon="6.31027">
        <ele>375.3</ele>
        <time>2024-01-14T12:54:28.860Z</time>
      </trkpt>
      <trkpt lat="43.56075" lon="6.31035">
        <ele>375.9</ele>
        <time>2024-01-14T12:54:38.546Z</time>
      </trkpt>
      <trkpt lat="43.56077" lon="6.31042">
        <ele>376</ele>
        <time>2024-01-14T12:54:44.894Z</time>
      </trkpt>
      <trkpt lat="43.56081" lon="6.31049">
        <ele>376.9</ele>
        <time>2024-01-14T12:54:56.240Z</time>
      </trkpt>
      <trkpt lat="43.56084" lon="6.31056">
        <ele>377.3</ele>
        <time>2024-01-14T12:55:04.298Z</time>
      </trkpt>
      <trkpt lat="43.56087" lon="6.31063">
        <ele>378.5</ele>
        <time>2024-01-14T12:55:17.511Z</time>
      </trkpt>
      <trkpt lat="43.56089" lon="6.31069">
        <ele>379.3</ele>
        <time>2024-01-14T12:55:26.834Z</time>
      </trkpt>
      <trkpt lat="43.5609" lon="6.31078">
        <ele>379.4</ele>
        <time>2024-01-14T12:55:34.439Z</time>
      </trkpt>
      <trkpt lat="43.56091" lon="6.31087">
        <ele>379.6</ele>
        <time>2024-01-14T12:55:42.417Z</time>
      </trkpt>
      <trkpt lat="43.56091" lon="6.31095">
        <ele>379.3</ele>
        <time>2024-01-14T12:55:47.994Z</time>
      </trkpt>
      <trkpt lat="43.56091" lon="6.31103">
        <ele>379.1</ele>
        <time>2024-01-14T12:55:53.739Z</time>
      </trkpt>
      <trkpt lat="43.56092" lon="6.3111">
        <ele>379.4</ele>
        <time>2024-01-14T12:56:00.580Z</time>
      </trkpt>
      <trkpt lat="43.56093" lon="6.31117">
        <ele>379.1</ele>
        <time>2024-01-14T12:56:05.554Z</time>
      </trkpt>
      <trkpt lat="43.56094" lon="6.31124">
        <ele>378.6</ele>
        <time>2024-01-14T12:56:10.528Z</time>
      </trkpt>
      <trkpt lat="43.56095" lon="6.31131">
        <ele>377.9</ele>
        <time>2024-01-14T12:56:15.503Z</time>
      </trkpt>
      <trkpt lat="43.56098" lon="6.31138">
        <ele>377.9</ele>
        <time>2024-01-14T12:56:21.982Z</time>
      </trkpt>
      <trkpt lat="43.561" lon="6.31144">
        <ele>377.4</ele>
        <time>2024-01-14T12:56:26.587Z</time>
      </trkpt>
      <trkpt lat="43.56104" lon="6.3115">
        <ele>377.5</ele>
        <time>2024-01-14T12:56:33.434Z</time>
      </trkpt>
      <trkpt lat="43.56107" lon="6.31155">
        <ele>377.4</ele>
        <time>2024-01-14T12:56:38.282Z</time>
      </trkpt>
      <trkpt lat="43.56113" lon="6.31158">
        <ele>378.5</ele>
        <time>2024-01-14T12:56:50.962Z</time>
      </trkpt>
      <trkpt lat="43.56118" lon="6.3116">
        <ele>379.7</ele>
        <time>2024-01-14T12:57:03.952Z</time>
      </trkpt>
      <trkpt lat="43.56123" lon="6.31164">
        <ele>380.5</ele>
        <time>2024-01-14T12:57:14.069Z</time>
      </trkpt>
      <trkpt lat="43.56127" lon="6.31167">
        <ele>381.1</ele>
        <time>2024-01-14T12:57:21.849Z</time>
      </trkpt>
      <trkpt lat="43.5613" lon="6.31173">
        <ele>381.8</ele>
        <time>2024-01-14T12:57:30.900Z</time>
      </trkpt>
      <trkpt lat="43.56132" lon="6.31179">
        <ele>382.2</ele>
        <time>2024-01-14T12:57:37.801Z</time>
      </trkpt>
      <trkpt lat="43.56134" lon="6.31186">
        <ele>382.6</ele>
        <time>2024-01-14T12:57:45.396Z</time>
      </trkpt>
      <trkpt lat="43.56135" lon="6.31193">
        <ele>382.7</ele>
        <time>2024-01-14T12:57:51.434Z</time>
      </trkpt>
      <trkpt lat="43.56135" lon="6.312">
        <ele>382.9</ele>
        <time>2024-01-14T12:57:57.750Z</time>
      </trkpt>
      <trkpt lat="43.56134" lon="6.31206">
        <ele>382.9</ele>
        <time>2024-01-14T12:58:02.655Z</time>
      </trkpt>
      <trkpt lat="43.56134" lon="6.31213">
        <ele>383.3</ele>
        <time>2024-01-14T12:58:09.853Z</time>
      </trkpt>
      <trkpt lat="43.56134" lon="6.3122">
        <ele>383.8</ele>
        <time>2024-01-14T12:58:17.556Z</time>
      </trkpt>
      <trkpt lat="43.56136" lon="6.31226">
        <ele>383.9</ele>
        <time>2024-01-14T12:58:23.172Z</time>
      </trkpt>
      <trkpt lat="43.56137" lon="6.31232">
        <ele>382.8</ele>
        <time>2024-01-14T12:58:27.464Z</time>
      </trkpt>
      <trkpt lat="43.56141" lon="6.31237">
        <ele>383.2</ele>
        <time>2024-01-14T12:58:35.001Z</time>
      </trkpt>
      <trkpt lat="43.56145" lon="6.31242">
        <ele>383.6</ele>
        <time>2024-01-14T12:58:42.537Z</time>
      </trkpt>
      <trkpt lat="43.5615" lon="6.31247">
        <ele>384.2</ele>
        <time>2024-01-14T12:58:51.869Z</time>
      </trkpt>
      <trkpt lat="43.56154" lon="6.31252">
        <ele>385</ele>
        <time>2024-01-14T12:59:01.664Z</time>
      </trkpt>
      <trkpt lat="43.56155" lon="6.31259">
        <ele>385.7</ele>
        <time>2024-01-14T12:59:10.615Z</time>
      </trkpt>
      <trkpt lat="43.56156" lon="6.31266">
        <ele>386.4</ele>
        <time>2024-01-14T12:59:19.567Z</time>
      </trkpt>
      <trkpt lat="43.56157" lon="6.31277">
        <ele>387.4</ele>
        <time>2024-01-14T12:59:32.937Z</time>
      </trkpt>
      <trkpt lat="43.56156" lon="6.31284">
        <ele>386.8</ele>
        <time>2024-01-14T12:59:37.911Z</time>
      </trkpt>
      <trkpt lat="43.56155" lon="6.3129">
        <ele>386.2</ele>
        <time>2024-01-14T12:59:42.203Z</time>
      </trkpt>
      <trkpt lat="43.56156" lon="6.31297">
        <ele>386.7</ele>
        <time>2024-01-14T12:59:50.004Z</time>
      </trkpt>
      <trkpt lat="43.56157" lon="6.31303">
        <ele>387.2</ele>
        <time>2024-01-14T12:59:57.108Z</time>
      </trkpt>
      <trkpt lat="43.56161" lon="6.31313">
        <ele>387.4</ele>
        <time>2024-01-14T13:00:06.922Z</time>
      </trkpt>
      <trkpt lat="43.56163" lon="6.31325">
        <ele>385.5</ele>
        <time>2024-01-14T13:00:15.507Z</time>
      </trkpt>
      <trkpt lat="43.56166" lon="6.31331">
        <ele>385.3</ele>
        <time>2024-01-14T13:00:20.690Z</time>
      </trkpt>
      <trkpt lat="43.56169" lon="6.31336">
        <ele>385.7</ele>
        <time>2024-01-14T13:00:27.507Z</time>
      </trkpt>
      <trkpt lat="43.56173" lon="6.31342">
        <ele>386.6</ele>
        <time>2024-01-14T13:00:38.394Z</time>
      </trkpt>
      <trkpt lat="43.56176" lon="6.31348">
        <ele>386.9</ele>
        <time>2024-01-14T13:00:45.355Z</time>
      </trkpt>
      <trkpt lat="43.56179" lon="6.31354">
        <ele>387.1</ele>
        <time>2024-01-14T13:00:51.899Z</time>
      </trkpt>
      <trkpt lat="43.56181" lon="6.31359">
        <ele>387.1</ele>
        <time>2024-01-14T13:00:56.450Z</time>
      </trkpt>
      <trkpt lat="43.56184" lon="6.31365">
        <ele>387.3</ele>
        <time>2024-01-14T13:01:02.994Z</time>
      </trkpt>
      <trkpt lat="43.56186" lon="6.3137">
        <ele>387.4</ele>
        <time>2024-01-14T13:01:07.901Z</time>
      </trkpt>
      <trkpt lat="43.5619" lon="6.31375">
        <ele>388.2</ele>
        <time>2024-01-14T13:01:17.696Z</time>
      </trkpt>
      <trkpt lat="43.56193" lon="6.31379">
        <ele>388.9</ele>
        <time>2024-01-14T13:01:25.842Z</time>
      </trkpt>
      <trkpt lat="43.56197" lon="6.3139">
        <ele>388.6</ele>
        <time>2024-01-14T13:01:34.702Z</time>
      </trkpt>
      <trkpt lat="43.56199" lon="6.31396">
        <ele>388.8</ele>
        <time>2024-01-14T13:01:40.707Z</time>
      </trkpt>
      <trkpt lat="43.562" lon="6.31402">
        <ele>388.8</ele>
        <time>2024-01-14T13:01:45.612Z</time>
      </trkpt>
      <trkpt lat="43.56204" lon="6.31408">
        <ele>390</ele>
        <time>2024-01-14T13:01:58.832Z</time>
      </trkpt>
      <trkpt lat="43.56207" lon="6.31414">
        <ele>391</ele>
        <time>2024-01-14T13:02:10.032Z</time>
      </trkpt>
      <trkpt lat="43.56209" lon="6.3142">
        <ele>391.5</ele>
        <time>2024-01-14T13:02:17.451Z</time>
      </trkpt>
      <trkpt lat="43.5621" lon="6.31426">
        <ele>391.3</ele>
        <time>2024-01-14T13:02:21.743Z</time>
      </trkpt>
      <trkpt lat="43.56213" lon="6.31432">
        <ele>391.9</ele>
        <time>2024-01-14T13:02:30.200Z</time>
      </trkpt>
      <trkpt lat="43.56216" lon="6.31438">
        <ele>392.4</ele>
        <time>2024-01-14T13:02:38.113Z</time>
      </trkpt>
      <trkpt lat="43.56219" lon="6.31449">
        <ele>392.3</ele>
        <time>2024-01-14T13:02:47.147Z</time>
      </trkpt>
      <trkpt lat="43.56217" lon="6.3146">
        <ele>390.3</ele>
        <time>2024-01-14T13:02:55.054Z</time>
      </trkpt>
      <trkpt lat="43.5622" lon="6.31466">
        <ele>390.3</ele>
        <time>2024-01-14T13:03:00.862Z</time>
      </trkpt>
      <trkpt lat="43.56223" lon="6.31471">
        <ele>390.3</ele>
        <time>2024-01-14T13:03:06.034Z</time>
      </trkpt>
      <trkpt lat="43.56226" lon="6.31477">
        <ele>390.3</ele>
        <time>2024-01-14T13:03:11.842Z</time>
      </trkpt>
      <trkpt lat="43.56229" lon="6.31482">
        <ele>390.5</ele>
        <time>2024-01-14T13:03:17.758Z</time>
      </trkpt>
      <trkpt lat="43.56234" lon="6.31491">
        <ele>390.8</ele>
        <time>2024-01-14T13:03:27.894Z</time>
      </trkpt>
      <trkpt lat="43.56238" lon="6.31497">
        <ele>391.1</ele>
        <time>2024-01-14T13:03:35.528Z</time>
      </trkpt>
      <trkpt lat="43.56241" lon="6.31503">
        <ele>391.3</ele>
        <time>2024-01-14T13:03:42.072Z</time>
      </trkpt>
      <trkpt lat="43.56243" lon="6.3151">
        <ele>391.4</ele>
        <time>2024-01-14T13:03:48.419Z</time>
      </trkpt>
      <trkpt lat="43.56244" lon="6.31516">
        <ele>391.3</ele>
        <time>2024-01-14T13:03:53.002Z</time>
      </trkpt>
      <trkpt lat="43.56245" lon="6.31524">
        <ele>391.2</ele>
        <time>2024-01-14T13:03:59.143Z</time>
      </trkpt>
      <trkpt lat="43.56246" lon="6.31531">
        <ele>391.1</ele>
        <time>2024-01-14T13:04:04.503Z</time>
      </trkpt>
      <trkpt lat="43.56249" lon="6.31542">
        <ele>391.3</ele>
        <time>2024-01-14T13:04:14.580Z</time>
      </trkpt>
      <trkpt lat="43.56252" lon="6.31548">
        <ele>391.8</ele>
        <time>2024-01-14T13:04:22.493Z</time>
      </trkpt>
      <trkpt lat="43.56254" lon="6.31553">
        <ele>392.2</ele>
        <time>2024-01-14T13:04:28.736Z</time>
      </trkpt>
      <trkpt lat="43.56256" lon="6.3156">
        <ele>392.4</ele>
        <time>2024-01-14T13:04:35.465Z</time>
      </trkpt>
      <trkpt lat="43.56257" lon="6.31566">
        <ele>392.3</ele>
        <time>2024-01-14T13:04:40.048Z</time>
      </trkpt>
      <trkpt lat="43.56261" lon="6.31571">
        <ele>393.1</ele>
        <time>2024-01-14T13:04:49.843Z</time>
      </trkpt>
      <trkpt lat="43.56264" lon="6.31575">
        <ele>393.6</ele>
        <time>2024-01-14T13:04:56.672Z</time>
      </trkpt>
      <trkpt lat="43.56267" lon="6.31585">
        <ele>393.7</ele>
        <time>2024-01-14T13:05:05.643Z</time>
      </trkpt>
      <trkpt lat="43.5627" lon="6.3159">
        <ele>393.9</ele>
        <time>2024-01-14T13:05:11.559Z</time>
      </trkpt>
      <trkpt lat="43.56273" lon="6.31595">
        <ele>394.1</ele>
        <time>2024-01-14T13:05:17.475Z</time>
      </trkpt>
      <trkpt lat="43.56275" lon="6.31601">
        <ele>393.8</ele>
        <time>2024-01-14T13:05:22.079Z</time>
      </trkpt>
      <trkpt lat="43.56277" lon="6.31607">
        <ele>393.4</ele>
        <time>2024-01-14T13:05:26.684Z</time>
      </trkpt>
      <trkpt lat="43.56279" lon="6.31613">
        <ele>393.2</ele>
        <time>2024-01-14T13:05:31.325Z</time>
      </trkpt>
      <trkpt lat="43.56281" lon="6.31619">
        <ele>393.4</ele>
        <time>2024-01-14T13:05:37.330Z</time>
      </trkpt>
      <trkpt lat="43.56284" lon="6.31624">
        <ele>393.8</ele>
        <time>2024-01-14T13:05:44.147Z</time>
      </trkpt>
      <trkpt lat="43.56287" lon="6.31629">
        <ele>394.1</ele>
        <time>2024-01-14T13:05:50.492Z</time>
      </trkpt>
      <trkpt lat="43.5629" lon="6.31635">
        <ele>394.4</ele>
        <time>2024-01-14T13:05:57.453Z</time>
      </trkpt>
      <trkpt lat="43.56293" lon="6.3164">
        <ele>394.6</ele>
        <time>2024-01-14T13:06:03.370Z</time>
      </trkpt>
      <trkpt lat="43.56294" lon="6.31647">
        <ele>394.5</ele>
        <time>2024-01-14T13:06:08.729Z</time>
      </trkpt>
      <trkpt lat="43.56294" lon="6.31653">
        <ele>394.3</ele>
        <time>2024-01-14T13:06:12.912Z</time>
      </trkpt>
      <trkpt lat="43.563" lon="6.31662">
        <ele>395.1</ele>
        <time>2024-01-14T13:06:25.988Z</time>
      </trkpt>
      <trkpt lat="43.56308" lon="6.31658">
        <ele>396.2</ele>
        <time>2024-01-14T13:06:40.397Z</time>
      </trkpt>
      <trkpt lat="43.56313" lon="6.31655">
        <ele>396.9</ele>
        <time>2024-01-14T13:06:49.600Z</time>
      </trkpt>
      <trkpt lat="43.56317" lon="6.31651">
        <ele>397.9</ele>
        <time>2024-01-14T13:07:00.624Z</time>
      </trkpt>
      <trkpt lat="43.56321" lon="6.31647">
        <ele>399.1</ele>
        <time>2024-01-14T13:07:13.585Z</time>
      </trkpt>
      <trkpt lat="43.56325" lon="6.31643">
        <ele>400.8</ele>
        <time>2024-01-14T13:07:33.304Z</time>
      </trkpt>
      <trkpt lat="43.56329" lon="6.31639">
        <ele>402.7</ele>
        <time>2024-01-14T13:07:56.494Z</time>
      </trkpt>
      <trkpt lat="43.56332" lon="6.31635">
        <ele>403.8</ele>
        <time>2024-01-14T13:08:08.412Z</time>
      </trkpt>
      <trkpt lat="43.56338" lon="6.31627">
        <ele>403</ele>
        <time>2024-01-14T13:08:16.438Z</time>
      </trkpt>
      <trkpt lat="43.56342" lon="6.31621">
        <ele>402.3</ele>
        <time>2024-01-14T13:08:22.122Z</time>
      </trkpt>
      <trkpt lat="43.56345" lon="6.31614">
        <ele>402.2</ele>
        <time>2024-01-14T13:08:28.275Z</time>
      </trkpt>
      <trkpt lat="43.56348" lon="6.31607">
        <ele>402.6</ele>
        <time>2024-01-14T13:08:36.333Z</time>
      </trkpt>
      <trkpt lat="43.56351" lon="6.31599">
        <ele>403.4</ele>
        <time>2024-01-14T13:08:47.123Z</time>
      </trkpt>
      <trkpt lat="43.56355" lon="6.31595">
        <ele>403.2</ele>
        <time>2024-01-14T13:08:51.932Z</time>
      </trkpt>
      <trkpt lat="43.56359" lon="6.3159">
        <ele>403.3</ele>
        <time>2024-01-14T13:08:58.219Z</time>
      </trkpt>
      <trkpt lat="43.56364" lon="6.31587">
        <ele>402.6</ele>
        <time>2024-01-14T13:09:03.464Z</time>
      </trkpt>
      <trkpt lat="43.56368" lon="6.31584">
        <ele>402.1</ele>
        <time>2024-01-14T13:09:07.844Z</time>
      </trkpt>
      <trkpt lat="43.56376" lon="6.31579">
        <ele>401.7</ele>
        <time>2024-01-14T13:09:16.293Z</time>
      </trkpt>
      <trkpt lat="43.56381" lon="6.31577">
        <ele>401</ele>
        <time>2024-01-14T13:09:21.301Z</time>
      </trkpt>
      <trkpt lat="43.56385" lon="6.31575">
        <ele>400.7</ele>
        <time>2024-01-14T13:09:25.394Z</time>
      </trkpt>
      <trkpt lat="43.56391" lon="6.31574">
        <ele>399.5</ele>
        <time>2024-01-14T13:09:31.209Z</time>
      </trkpt>
      <trkpt lat="43.56396" lon="6.31573">
        <ele>398.7</ele>
        <time>2024-01-14T13:09:36.069Z</time>
      </trkpt>
      <trkpt lat="43.56401" lon="6.31571">
        <ele>398</ele>
        <time>2024-01-14T13:09:41.078Z</time>
      </trkpt>
      <trkpt lat="43.56405" lon="6.31569">
        <ele>397.5</ele>
        <time>2024-01-14T13:09:45.171Z</time>
      </trkpt>
      <trkpt lat="43.56409" lon="6.31566">
        <ele>397.2</ele>
        <time>2024-01-14T13:09:49.551Z</time>
      </trkpt>
      <trkpt lat="43.56413" lon="6.31563">
        <ele>396.7</ele>
        <time>2024-01-14T13:09:53.931Z</time>
      </trkpt>
      <trkpt lat="43.56418" lon="6.31561">
        <ele>395.8</ele>
        <time>2024-01-14T13:09:58.939Z</time>
      </trkpt>
      <trkpt lat="43.56422" lon="6.31558">
        <ele>395.8</ele>
        <time>2024-01-14T13:10:03.945Z</time>
      </trkpt>
      <trkpt lat="43.56426" lon="6.31554">
        <ele>396</ele>
        <time>2024-01-14T13:10:10.116Z</time>
      </trkpt>
      <trkpt lat="43.56429" lon="6.3155">
        <ele>396.3</ele>
        <time>2024-01-14T13:10:15.899Z</time>
      </trkpt>
      <trkpt lat="43.56433" lon="6.31539">
        <ele>397.4</ele>
        <time>2024-01-14T13:10:30.681Z</time>
      </trkpt>
      <trkpt lat="43.56434" lon="6.31528">
        <ele>399</ele>
        <time>2024-01-14T13:10:48.380Z</time>
      </trkpt>
      <trkpt lat="43.56436" lon="6.31522">
        <ele>399.5</ele>
        <time>2024-01-14T13:10:55.799Z</time>
      </trkpt>
      <trkpt lat="43.56437" lon="6.31515">
        <ele>400.6</ele>
        <time>2024-01-14T13:11:07.817Z</time>
      </trkpt>
      <trkpt lat="43.56439" lon="6.31508">
        <ele>401.3</ele>
        <time>2024-01-14T13:11:17.020Z</time>
      </trkpt>
      <trkpt lat="43.56441" lon="6.31501">
        <ele>401.9</ele>
        <time>2024-01-14T13:11:25.639Z</time>
      </trkpt>
      <trkpt lat="43.56444" lon="6.3149">
        <ele>402.9</ele>
        <time>2024-01-14T13:11:39.460Z</time>
      </trkpt>
      <trkpt lat="43.56445" lon="6.31483">
        <ele>404</ele>
        <time>2024-01-14T13:11:51.478Z</time>
      </trkpt>
      <trkpt lat="43.56445" lon="6.31475">
        <ele>405.5</ele>
        <time>2024-01-14T13:12:07.706Z</time>
      </trkpt>
      <trkpt lat="43.56445" lon="6.31467">
        <ele>406.8</ele>
        <time>2024-01-14T13:12:21.812Z</time>
      </trkpt>
      <trkpt lat="43.56445" lon="6.31458">
        <ele>408.1</ele>
        <time>2024-01-14T13:12:36.190Z</time>
      </trkpt>
      <trkpt lat="43.5645" lon="6.31452">
        <ele>409.1</ele>
        <time>2024-01-14T13:12:48.336Z</time>
      </trkpt>
      <trkpt lat="43.56454" lon="6.31446">
        <ele>410.1</ele>
        <time>2024-01-14T13:12:59.937Z</time>
      </trkpt>
      <trkpt lat="43.56459" lon="6.31448">
        <ele>409.9</ele>
        <time>2024-01-14T13:13:05.036Z</time>
      </trkpt>
      <trkpt lat="43.56464" lon="6.31449">
        <ele>409.9</ele>
        <time>2024-01-14T13:13:10.591Z</time>
      </trkpt>
      <trkpt lat="43.56471" lon="6.31449">
        <ele>410.1</ele>
        <time>2024-01-14T13:13:19.009Z</time>
      </trkpt>
      <trkpt lat="43.56476" lon="6.31446">
        <ele>409.8</ele>
        <time>2024-01-14T13:13:24.254Z</time>
      </trkpt>
      <trkpt lat="43.56481" lon="6.31443">
        <ele>409</ele>
        <time>2024-01-14T13:13:29.499Z</time>
      </trkpt>
      <trkpt lat="43.56484" lon="6.31438">
        <ele>409.1</ele>
        <time>2024-01-14T13:13:35.026Z</time>
      </trkpt>
      <trkpt lat="43.56487" lon="6.31432">
        <ele>409.3</ele>
        <time>2024-01-14T13:13:41.570Z</time>
      </trkpt>
      <trkpt lat="43.5649" lon="6.31424">
        <ele>409.9</ele>
        <time>2024-01-14T13:13:51.256Z</time>
      </trkpt>
      <trkpt lat="43.56492" lon="6.31416">
        <ele>410.8</ele>
        <time>2024-01-14T13:14:02.325Z</time>
      </trkpt>
      <trkpt lat="43.56494" lon="6.3141">
        <ele>411.3</ele>
        <time>2024-01-14T13:14:09.744Z</time>
      </trkpt>
      <trkpt lat="43.56496" lon="6.31404">
        <ele>411.8</ele>
        <time>2024-01-14T13:14:17.163Z</time>
      </trkpt>
      <trkpt lat="43.56499" lon="6.31397">
        <ele>412.1</ele>
        <time>2024-01-14T13:14:24.780Z</time>
      </trkpt>
      <trkpt lat="43.56501" lon="6.3139">
        <ele>412.6</ele>
        <time>2024-01-14T13:14:32.865Z</time>
      </trkpt>
      <trkpt lat="43.56504" lon="6.31382">
        <ele>413.8</ele>
        <time>2024-01-14T13:14:46.416Z</time>
      </trkpt>
      <trkpt lat="43.56506" lon="6.31374">
        <ele>415.3</ele>
        <time>2024-01-14T13:15:02.617Z</time>
      </trkpt>
      <trkpt lat="43.5651" lon="6.31368">
        <ele>415.8</ele>
        <time>2024-01-14T13:15:11.167Z</time>
      </trkpt>
      <trkpt lat="43.56513" lon="6.31362">
        <ele>416.5</ele>
        <time>2024-01-14T13:15:20.217Z</time>
      </trkpt>
      <trkpt lat="43.56517" lon="6.31358">
        <ele>416.6</ele>
        <time>2024-01-14T13:15:26.003Z</time>
      </trkpt>
      <trkpt lat="43.5652" lon="6.31354">
        <ele>417</ele>
        <time>2024-01-14T13:15:32.278Z</time>
      </trkpt>
      <trkpt lat="43.56525" lon="6.31351">
        <ele>416.6</ele>
        <time>2024-01-14T13:15:37.524Z</time>
      </trkpt>
      <trkpt lat="43.56529" lon="6.31348">
        <ele>416.8</ele>
        <time>2024-01-14T13:15:43.276Z</time>
      </trkpt>
      <trkpt lat="43.56534" lon="6.31346">
        <ele>417.4</ele>
        <time>2024-01-14T13:15:51.659Z</time>
      </trkpt>
      <trkpt lat="43.56538" lon="6.31343">
        <ele>418.1</ele>
        <time>2024-01-14T13:16:00.093Z</time>
      </trkpt>
      <trkpt lat="43.56543" lon="6.3134">
        <ele>418.6</ele>
        <time>2024-01-14T13:16:08.178Z</time>
      </trkpt>
      <trkpt lat="43.56547" lon="6.31337">
        <ele>419</ele>
        <time>2024-01-14T13:16:14.840Z</time>
      </trkpt>
      <trkpt lat="43.56552" lon="6.31334">
        <ele>419.2</ele>
        <time>2024-01-14T13:16:21.568Z</time>
      </trkpt>
      <trkpt lat="43.56556" lon="6.3133">
        <ele>419.8</ele>
        <time>2024-01-14T13:16:29.701Z</time>
      </trkpt>
      <trkpt lat="43.56561" lon="6.31327">
        <ele>419.8</ele>
        <time>2024-01-14T13:16:35.696Z</time>
      </trkpt>
      <trkpt lat="43.56565" lon="6.31324">
        <ele>419.8</ele>
        <time>2024-01-14T13:16:40.702Z</time>
      </trkpt>
      <trkpt lat="43.5657" lon="6.31322">
        <ele>419.2</ele>
        <time>2024-01-14T13:16:45.710Z</time>
      </trkpt>
      <trkpt lat="43.56574" lon="6.3132">
        <ele>418.8</ele>
        <time>2024-01-14T13:16:49.803Z</time>
      </trkpt>
      <trkpt lat="43.56578" lon="6.31317">
        <ele>418.3</ele>
        <time>2024-01-14T13:16:54.183Z</time>
      </trkpt>
      <trkpt lat="43.56582" lon="6.31314">
        <ele>417.7</ele>
        <time>2024-01-14T13:16:58.563Z</time>
      </trkpt>
      <trkpt lat="43.56587" lon="6.3131">
        <ele>417.4</ele>
        <time>2024-01-14T13:17:04.123Z</time>
      </trkpt>
      <trkpt lat="43.56591" lon="6.31305">
        <ele>417.5</ele>
        <time>2024-01-14T13:17:10.409Z</time>
      </trkpt>
      <trkpt lat="43.56596" lon="6.313">
        <ele>417.7</ele>
        <time>2024-01-14T13:17:17.925Z</time>
      </trkpt>
      <trkpt lat="43.566" lon="6.31294">
        <ele>418</ele>
        <time>2024-01-14T13:17:25.559Z</time>
      </trkpt>
      <trkpt lat="43.56605" lon="6.31289">
        <ele>417.9</ele>
        <time>2024-01-14T13:17:32.021Z</time>
      </trkpt>
      <trkpt lat="43.56609" lon="6.31283">
        <ele>417.9</ele>
        <time>2024-01-14T13:17:38.516Z</time>
      </trkpt>
      <trkpt lat="43.56615" lon="6.31282">
        <ele>417.6</ele>
        <time>2024-01-14T13:17:44.331Z</time>
      </trkpt>
      <trkpt lat="43.5662" lon="6.3128">
        <ele>417.5</ele>
        <time>2024-01-14T13:17:49.730Z</time>
      </trkpt>
      <trkpt lat="43.56625" lon="6.31279">
        <ele>417.4</ele>
        <time>2024-01-14T13:17:54.960Z</time>
      </trkpt>
      <trkpt lat="43.5663" lon="6.31278">
        <ele>417.3</ele>
        <time>2024-01-14T13:18:00.191Z</time>
      </trkpt>
      <trkpt lat="43.56636" lon="6.31277">
        <ele>417.2</ele>
        <time>2024-01-14T13:18:06.509Z</time>
      </trkpt>
      <trkpt lat="43.56641" lon="6.31275">
        <ele>417.5</ele>
        <time>2024-01-14T13:18:13.389Z</time>
      </trkpt>
      <trkpt lat="43.56647" lon="6.31274">
        <ele>417.6</ele>
        <time>2024-01-14T13:18:20.385Z</time>
      </trkpt>
      <trkpt lat="43.56652" lon="6.31272">
        <ele>417.9</ele>
        <time>2024-01-14T13:18:27.264Z</time>
      </trkpt>
      <trkpt lat="43.56658" lon="6.31269">
        <ele>418.4</ele>
        <time>2024-01-14T13:18:36.304Z</time>
      </trkpt>
      <trkpt lat="43.56664" lon="6.31266">
        <ele>418.7</ele>
        <time>2024-01-14T13:18:44.449Z</time>
      </trkpt>
      <trkpt lat="43.5667" lon="6.31264">
        <ele>418.6</ele>
        <time>2024-01-14T13:18:50.909Z</time>
      </trkpt>
      <trkpt lat="43.56676" lon="6.31262">
        <ele>418.3</ele>
        <time>2024-01-14T13:18:56.847Z</time>
      </trkpt>
      <trkpt lat="43.56681" lon="6.31261">
        <ele>417.9</ele>
        <time>2024-01-14T13:19:01.708Z</time>
      </trkpt>
      <trkpt lat="43.56686" lon="6.31259">
        <ele>417.6</ele>
        <time>2024-01-14T13:19:06.716Z</time>
      </trkpt>
      <trkpt lat="43.56692" lon="6.31257">
        <ele>417.3</ele>
        <time>2024-01-14T13:19:12.654Z</time>
      </trkpt>
      <trkpt lat="43.56697" lon="6.31255">
        <ele>417.2</ele>
        <time>2024-01-14T13:19:18.053Z</time>
      </trkpt>
      <trkpt lat="43.56701" lon="6.31251">
        <ele>417.4</ele>
        <time>2024-01-14T13:19:24.225Z</time>
      </trkpt>
      <trkpt lat="43.56705" lon="6.31247">
        <ele>417.7</ele>
        <time>2024-01-14T13:19:30.821Z</time>
      </trkpt>
      <trkpt lat="43.56709" lon="6.31242">
        <ele>418.1</ele>
        <time>2024-01-14T13:19:38.357Z</time>
      </trkpt>
      <trkpt lat="43.56712" lon="6.31236">
        <ele>418.5</ele>
        <time>2024-01-14T13:19:45.773Z</time>
      </trkpt>
      <trkpt lat="43.56718" lon="6.31233">
        <ele>417.9</ele>
        <time>2024-01-14T13:19:51.913Z</time>
      </trkpt>
      <trkpt lat="43.56724" lon="6.31229">
        <ele>417.5</ele>
        <time>2024-01-14T13:19:58.323Z</time>
      </trkpt>
      <trkpt lat="43.5673" lon="6.31229">
        <ele>417.4</ele>
        <time>2024-01-14T13:20:04.594Z</time>
      </trkpt>
      <trkpt lat="43.56735" lon="6.31229">
        <ele>417.4</ele>
        <time>2024-01-14T13:20:10.091Z</time>
      </trkpt>
      <trkpt lat="43.56741" lon="6.31225">
        <ele>417.3</ele>
        <time>2024-01-14T13:20:17.090Z</time>
      </trkpt>
      <trkpt lat="43.56746" lon="6.31221">
        <ele>417.3</ele>
        <time>2024-01-14T13:20:23.444Z</time>
      </trkpt>
      <trkpt lat="43.56752" lon="6.31215">
        <ele>417.6</ele>
        <time>2024-01-14T13:20:32.702Z</time>
      </trkpt>
      <trkpt lat="43.56757" lon="6.31209">
        <ele>418.2</ele>
        <time>2024-01-14T13:20:42.488Z</time>
      </trkpt>
      <trkpt lat="43.5676" lon="6.31201">
        <ele>418.7</ele>
        <time>2024-01-14T13:20:51.680Z</time>
      </trkpt>
      <trkpt lat="43.56763" lon="6.31193">
        <ele>419.1</ele>
        <time>2024-01-14T13:21:00.410Z</time>
      </trkpt>
      <trkpt lat="43.56766" lon="6.31186">
        <ele>419.6</ele>
        <time>2024-01-14T13:21:08.945Z</time>
      </trkpt>
      <trkpt lat="43.56768" lon="6.31178">
        <ele>420</ele>
        <time>2024-01-14T13:21:17.256Z</time>
      </trkpt>
      <trkpt lat="43.56774" lon="6.31177">
        <ele>419.8</ele>
        <time>2024-01-14T13:21:23.270Z</time>
      </trkpt>
      <trkpt lat="43.56779" lon="6.31176">
        <ele>419.7</ele>
        <time>2024-01-14T13:21:28.500Z</time>
      </trkpt>
      <trkpt lat="43.56785" lon="6.31175">
        <ele>420</ele>
        <time>2024-01-14T13:21:36.280Z</time>
      </trkpt>
      <trkpt lat="43.56791" lon="6.31173">
        <ele>420.2</ele>
        <time>2024-01-14T13:21:43.794Z</time>
      </trkpt>
      <trkpt lat="43.56796" lon="6.31173">
        <ele>420.4</ele>
        <time>2024-01-14T13:21:50.031Z</time>
      </trkpt>
      <trkpt lat="43.56801" lon="6.31172">
        <ele>420.6</ele>
        <time>2024-01-14T13:21:56.325Z</time>
      </trkpt>
      <trkpt lat="43.56806" lon="6.31172">
        <ele>420.9</ele>
        <time>2024-01-14T13:22:02.985Z</time>
      </trkpt>
      <trkpt lat="43.5681" lon="6.31172">
        <ele>421.3</ele>
        <time>2024-01-14T13:22:09.090Z</time>
      </trkpt>
      <trkpt lat="43.56813" lon="6.31172">
        <ele>421.6</ele>
        <time>2024-01-14T13:22:13.668Z</time>
      </trkpt>
      <trkpt lat="43.56807" lon="6.31171">
        <ele>421</ele>
        <time>2024-01-14T13:22:19.483Z</time>
      </trkpt>
      <trkpt lat="43.56811" lon="6.31172">
        <ele>421.4</ele>
        <time>2024-01-14T13:22:25.652Z</time>
      </trkpt>
      <trkpt lat="43.56811" lon="6.31176">
        <ele>421.3</ele>
        <time>2024-01-14T13:22:28.524Z</time>
      </trkpt>
      <trkpt lat="43.56816" lon="6.31182">
        <ele>421.6</ele>
        <time>2024-01-14T13:22:36.932Z</time>
      </trkpt>
      <trkpt lat="43.5682" lon="6.31187">
        <ele>421.8</ele>
        <time>2024-01-14T13:22:43.601Z</time>
      </trkpt>
      <trkpt lat="43.56825" lon="6.31191">
        <ele>422.2</ele>
        <time>2024-01-14T13:22:51.539Z</time>
      </trkpt>
      <trkpt lat="43.56829" lon="6.31195">
        <ele>422.6</ele>
        <time>2024-01-14T13:22:58.599Z</time>
      </trkpt>
      <trkpt lat="43.56833" lon="6.312">
        <ele>423.2</ele>
        <time>2024-01-14T13:23:07.165Z</time>
      </trkpt>
      <trkpt lat="43.56837" lon="6.31204">
        <ele>424</ele>
        <time>2024-01-14T13:23:16.601Z</time>
      </trkpt>
      <trkpt lat="43.5684" lon="6.3121">
        <ele>424.6</ele>
        <time>2024-01-14T13:23:25.057Z</time>
      </trkpt>
      <trkpt lat="43.56842" lon="6.31215">
        <ele>424.9</ele>
        <time>2024-01-14T13:23:30.804Z</time>
      </trkpt>
      <trkpt lat="43.56846" lon="6.31221">
        <ele>425.4</ele>
        <time>2024-01-14T13:23:39.354Z</time>
      </trkpt>
      <trkpt lat="43.5685" lon="6.31227">
        <ele>425.9</ele>
        <time>2024-01-14T13:23:47.904Z</time>
      </trkpt>
      <trkpt lat="43.56855" lon="6.31233">
        <ele>426.2</ele>
        <time>2024-01-14T13:23:56.312Z</time>
      </trkpt>
      <trkpt lat="43.56859" lon="6.31239">
        <ele>425.9</ele>
        <time>2024-01-14T13:24:01.995Z</time>
      </trkpt>
      <trkpt lat="43.56864" lon="6.31244">
        <ele>425.7</ele>
        <time>2024-01-14T13:24:08.152Z</time>
      </trkpt>
      <trkpt lat="43.56869" lon="6.31248">
        <ele>425.8</ele>
        <time>2024-01-14T13:24:14.858Z</time>
      </trkpt>
      <trkpt lat="43.56874" lon="6.3125">
        <ele>425.9</ele>
        <time>2024-01-14T13:24:20.935Z</time>
      </trkpt>
      <trkpt lat="43.56879" lon="6.31252">
        <ele>426.6</ele>
        <time>2024-01-14T13:24:29.918Z</time>
      </trkpt>
      <trkpt lat="43.56885" lon="6.31252">
        <ele>427</ele>
        <time>2024-01-14T13:24:38.089Z</time>
      </trkpt>
      <trkpt lat="43.56891" lon="6.31252">
        <ele>427.3</ele>
        <time>2024-01-14T13:24:45.822Z</time>
      </trkpt>
      <trkpt lat="43.56897" lon="6.31253">
        <ele>427.7</ele>
        <time>2024-01-14T13:24:54.039Z</time>
      </trkpt>
      <trkpt lat="43.56902" lon="6.31253">
        <ele>427.9</ele>
        <time>2024-01-14T13:25:00.276Z</time>
      </trkpt>
      <trkpt lat="43.56909" lon="6.31253">
        <ele>428.3</ele>
        <time>2024-01-14T13:25:09.512Z</time>
      </trkpt>
      <trkpt lat="43.56916" lon="6.31253">
        <ele>428.6</ele>
        <time>2024-01-14T13:25:18.326Z</time>
      </trkpt>
      <trkpt lat="43.56923" lon="6.31254">
        <ele>429.9</ele>
        <time>2024-01-14T13:25:32.985Z</time>
      </trkpt>
      <trkpt lat="43.56929" lon="6.31254">
        <ele>431</ele>
        <time>2024-01-14T13:25:45.417Z</time>
      </trkpt>
      <trkpt lat="43.56935" lon="6.31253">
        <ele>431.8</ele>
        <time>2024-01-14T13:25:55.767Z</time>
      </trkpt>
      <trkpt lat="43.56941" lon="6.31251">
        <ele>432.5</ele>
        <time>2024-01-14T13:26:05.642Z</time>
      </trkpt>
      <trkpt lat="43.56947" lon="6.31248">
        <ele>432.7</ele>
        <time>2024-01-14T13:26:13.384Z</time>
      </trkpt>
      <trkpt lat="43.56953" lon="6.31245">
        <ele>432.5</ele>
        <time>2024-01-14T13:26:19.767Z</time>
      </trkpt>
      <trkpt lat="43.56958" lon="6.31243">
        <ele>432.5</ele>
        <time>2024-01-14T13:26:25.491Z</time>
      </trkpt>
      <trkpt lat="43.56963" lon="6.31241">
        <ele>432.5</ele>
        <time>2024-01-14T13:26:31.215Z</time>
      </trkpt>
      <trkpt lat="43.56969" lon="6.31239">
        <ele>432.6</ele>
        <time>2024-01-14T13:26:38.352Z</time>
      </trkpt>
      <trkpt lat="43.56974" lon="6.31237">
        <ele>432.6</ele>
        <time>2024-01-14T13:26:44.076Z</time>
      </trkpt>
      <trkpt lat="43.56981" lon="6.31236">
        <ele>432.6</ele>
        <time>2024-01-14T13:26:51.813Z</time>
      </trkpt>
      <trkpt lat="43.56987" lon="6.31235">
        <ele>432.7</ele>
        <time>2024-01-14T13:26:58.809Z</time>
      </trkpt>
      <trkpt lat="43.56994" lon="6.31234">
        <ele>432.8</ele>
        <time>2024-01-14T13:27:06.896Z</time>
      </trkpt>
      <trkpt lat="43.57" lon="6.31233">
        <ele>433</ele>
        <time>2024-01-14T13:27:14.270Z</time>
      </trkpt>
      <trkpt lat="43.57005" lon="6.31233">
        <ele>433.3</ele>
        <time>2024-01-14T13:27:20.929Z</time>
      </trkpt>
      <trkpt lat="43.5701" lon="6.31232">
        <ele>433.6</ele>
        <time>2024-01-14T13:27:27.645Z</time>
      </trkpt>
      <trkpt lat="43.57014" lon="6.31237">
        <ele>433.7</ele>
        <time>2024-01-14T13:27:33.931Z</time>
      </trkpt>
      <trkpt lat="43.57018" lon="6.31241">
        <ele>433.9</ele>
        <time>2024-01-14T13:27:40.103Z</time>
      </trkpt>
      <trkpt lat="43.57017" lon="6.31248">
        <ele>433.7</ele>
        <time>2024-01-14T13:27:45.163Z</time>
      </trkpt>
      <trkpt lat="43.57016" lon="6.31254">
        <ele>433.9</ele>
        <time>2024-01-14T13:27:50.815Z</time>
      </trkpt>
      <trkpt lat="43.57018" lon="6.31265">
        <ele>434.8</ele>
        <time>2024-01-14T13:28:03.782Z</time>
      </trkpt>
      <trkpt lat="43.57021" lon="6.31271">
        <ele>435.1</ele>
        <time>2024-01-14T13:28:10.743Z</time>
      </trkpt>
      <trkpt lat="43.57023" lon="6.31276">
        <ele>435.2</ele>
        <time>2024-01-14T13:28:15.650Z</time>
      </trkpt>
      <trkpt lat="43.57028" lon="6.31286">
        <ele>435.3</ele>
        <time>2024-01-14T13:28:25.676Z</time>
      </trkpt>
      <trkpt lat="43.57033" lon="6.31289">
        <ele>435.6</ele>
        <time>2024-01-14T13:28:32.819Z</time>
      </trkpt>
      <trkpt lat="43.57037" lon="6.31291">
        <ele>435.8</ele>
        <time>2024-01-14T13:28:38.249Z</time>
      </trkpt>
      <trkpt lat="43.57041" lon="6.31297">
        <ele>436.2</ele>
        <time>2024-01-14T13:28:46.322Z</time>
      </trkpt>
      <trkpt lat="43.57044" lon="6.31303">
        <ele>436.5</ele>
        <time>2024-01-14T13:28:53.284Z</time>
      </trkpt>
      <trkpt lat="43.57047" lon="6.3131">
        <ele>436.9</ele>
        <time>2024-01-14T13:29:01.341Z</time>
      </trkpt>
      <trkpt lat="43.5705" lon="6.31317">
        <ele>437.2</ele>
        <time>2024-01-14T13:29:08.958Z</time>
      </trkpt>
      <trkpt lat="43.57052" lon="6.31325">
        <ele>437.6</ele>
        <time>2024-01-14T13:29:17.269Z</time>
      </trkpt>
      <trkpt lat="43.57053" lon="6.31332">
        <ele>437.9</ele>
        <time>2024-01-14T13:29:24.109Z</time>
      </trkpt>
      <trkpt lat="43.5705" lon="6.31339">
        <ele>438</ele>
        <time>2024-01-14T13:29:30.940Z</time>
      </trkpt>
      <trkpt lat="43.57046" lon="6.31345">
        <ele>438.1</ele>
        <time>2024-01-14T13:29:37.786Z</time>
      </trkpt>
      <trkpt lat="43.57042" lon="6.3135">
        <ele>438.1</ele>
        <time>2024-01-14T13:29:43.720Z</time>
      </trkpt>
      <trkpt lat="43.57037" lon="6.31355">
        <ele>438.1</ele>
        <time>2024-01-14T13:29:50.509Z</time>
      </trkpt>
      <trkpt lat="43.57033" lon="6.31361">
        <ele>438.2</ele>
        <time>2024-01-14T13:29:57.355Z</time>
      </trkpt>
      <trkpt lat="43.57029" lon="6.31367">
        <ele>438.9</ele>
        <time>2024-01-14T13:30:06.979Z</time>
      </trkpt>
      <trkpt lat="43.57025" lon="6.3137">
        <ele>439.4</ele>
        <time>2024-01-14T13:30:14.171Z</time>
      </trkpt>
      <trkpt lat="43.5702" lon="6.31372">
        <ele>439.9</ele>
        <time>2024-01-14T13:30:22.007Z</time>
      </trkpt>
      <trkpt lat="43.57015" lon="6.31376">
        <ele>440.6</ele>
        <time>2024-01-14T13:30:31.510Z</time>
      </trkpt>
      <trkpt lat="43.5701" lon="6.31379">
        <ele>441</ele>
        <time>2024-01-14T13:30:39.105Z</time>
      </trkpt>
      <trkpt lat="43.57006" lon="6.31385">
        <ele>441.7</ele>
        <time>2024-01-14T13:30:48.728Z</time>
      </trkpt>
      <trkpt lat="43.57001" lon="6.3139">
        <ele>442.2</ele>
        <time>2024-01-14T13:30:57.553Z</time>
      </trkpt>
      <trkpt lat="43.56998" lon="6.31396">
        <ele>443.2</ele>
        <time>2024-01-14T13:31:08.753Z</time>
      </trkpt>
      <trkpt lat="43.56995" lon="6.31401">
        <ele>444</ele>
        <time>2024-01-14T13:31:18.018Z</time>
      </trkpt>
      <trkpt lat="43.56993" lon="6.31408">
        <ele>445</ele>
        <time>2024-01-14T13:31:29.318Z</time>
      </trkpt>
      <trkpt lat="43.56991" lon="6.31414">
        <ele>445.7</ele>
        <time>2024-01-14T13:31:37.940Z</time>
      </trkpt>
      <trkpt lat="43.56989" lon="6.31421">
        <ele>446.4</ele>
        <time>2024-01-14T13:31:47.143Z</time>
      </trkpt>
      <trkpt lat="43.56986" lon="6.31427">
        <ele>446.9</ele>
        <time>2024-01-14T13:31:55.056Z</time>
      </trkpt>
      <trkpt lat="43.56984" lon="6.31434">
        <ele>447.5</ele>
        <time>2024-01-14T13:32:03.675Z</time>
      </trkpt>
      <trkpt lat="43.56982" lon="6.3144">
        <ele>448</ele>
        <time>2024-01-14T13:32:11.094Z</time>
      </trkpt>
      <trkpt lat="43.56981" lon="6.31448">
        <ele>448.6</ele>
        <time>2024-01-14T13:32:20.134Z</time>
      </trkpt>
      <trkpt lat="43.56979" lon="6.31455">
        <ele>449.1</ele>
        <time>2024-01-14T13:32:28.218Z</time>
      </trkpt>
      <trkpt lat="43.56977" lon="6.31462">
        <ele>449.5</ele>
        <time>2024-01-14T13:32:35.812Z</time>
      </trkpt>
      <trkpt lat="43.56975" lon="6.31469">
        <ele>450</ele>
        <time>2024-01-14T13:32:43.897Z</time>
      </trkpt>
      <trkpt lat="43.56974" lon="6.31476">
        <ele>450.4</ele>
        <time>2024-01-14T13:32:51.195Z</time>
      </trkpt>
      <trkpt lat="43.56973" lon="6.31483">
        <ele>450.8</ele>
        <time>2024-01-14T13:32:58.494Z</time>
      </trkpt>
      <trkpt lat="43.56973" lon="6.31491">
        <ele>451.4</ele>
        <time>2024-01-14T13:33:07.450Z</time>
      </trkpt>
      <trkpt lat="43.56973" lon="6.31498">
        <ele>451.9</ele>
        <time>2024-01-14T13:33:15.152Z</time>
      </trkpt>
      <trkpt lat="43.56969" lon="6.31504">
        <ele>452.3</ele>
        <time>2024-01-14T13:33:23.225Z</time>
      </trkpt>
      <trkpt lat="43.56965" lon="6.3151">
        <ele>452.6</ele>
        <time>2024-01-14T13:33:30.858Z</time>
      </trkpt>
      <trkpt lat="43.5696" lon="6.31514">
        <ele>452.8</ele>
        <time>2024-01-14T13:33:37.943Z</time>
      </trkpt>
      <trkpt lat="43.56955" lon="6.31517">
        <ele>452.8</ele>
        <time>2024-01-14T13:33:43.938Z</time>
      </trkpt>
      <trkpt lat="43.5695" lon="6.31521">
        <ele>452.9</ele>
        <time>2024-01-14T13:33:50.644Z</time>
      </trkpt>
      <trkpt lat="43.56945" lon="6.31525">
        <ele>452.9</ele>
        <time>2024-01-14T13:33:56.998Z</time>
      </trkpt>
      <trkpt lat="43.56941" lon="6.3153">
        <ele>453.2</ele>
        <time>2024-01-14T13:34:04.082Z</time>
      </trkpt>
      <trkpt lat="43.56937" lon="6.31535">
        <ele>453.5</ele>
        <time>2024-01-14T13:34:11.166Z</time>
      </trkpt>
      <trkpt lat="43.56937" lon="6.31542">
        <ele>453.9</ele>
        <time>2024-01-14T13:34:18.364Z</time>
      </trkpt>
      <trkpt lat="43.56936" lon="6.31549">
        <ele>454.3</ele>
        <time>2024-01-14T13:34:25.662Z</time>
      </trkpt>
      <trkpt lat="43.56936" lon="6.31561">
        <ele>455.2</ele>
        <time>2024-01-14T13:34:39.096Z</time>
      </trkpt>
      <trkpt lat="43.56942" lon="6.31564">
        <ele>455.8</ele>
        <time>2024-01-14T13:34:48.635Z</time>
      </trkpt>
      <trkpt lat="43.56947" lon="6.31567">
        <ele>456.4</ele>
        <time>2024-01-14T13:34:57.254Z</time>
      </trkpt>
      <trkpt lat="43.56952" lon="6.3157">
        <ele>457.1</ele>
        <time>2024-01-14T13:35:06.457Z</time>
      </trkpt>
      <trkpt lat="43.56957" lon="6.31572">
        <ele>457.7</ele>
        <time>2024-01-14T13:35:14.840Z</time>
      </trkpt>
      <trkpt lat="43.56963" lon="6.31574">
        <ele>458.3</ele>
        <time>2024-01-14T13:35:24.169Z</time>
      </trkpt>
      <trkpt lat="43.56968" lon="6.31576">
        <ele>458.9</ele>
        <time>2024-01-14T13:35:32.553Z</time>
      </trkpt>
      <trkpt lat="43.56974" lon="6.31575">
        <ele>459.3</ele>
        <time>2024-01-14T13:35:40.770Z</time>
      </trkpt>
      <trkpt lat="43.5698" lon="6.31573">
        <ele>459.7</ele>
        <time>2024-01-14T13:35:49.124Z</time>
      </trkpt>
      <trkpt lat="43.56985" lon="6.31573">
        <ele>460.3</ele>
        <time>2024-01-14T13:35:57.314Z</time>
      </trkpt>
      <trkpt lat="43.56989" lon="6.31573">
        <ele>460.7</ele>
        <time>2024-01-14T13:36:03.418Z</time>
      </trkpt>
      <trkpt lat="43.56994" lon="6.31574">
        <ele>461.3</ele>
        <time>2024-01-14T13:36:11.656Z</time>
      </trkpt>
      <trkpt lat="43.56999" lon="6.31575">
        <ele>462</ele>
        <time>2024-01-14T13:36:20.505Z</time>
      </trkpt>
      <trkpt lat="43.57004" lon="6.31576">
        <ele>462.5</ele>
        <time>2024-01-14T13:36:28.188Z</time>
      </trkpt>
      <trkpt lat="43.57009" lon="6.31576">
        <ele>462.9</ele>
        <time>2024-01-14T13:36:35.311Z</time>
      </trkpt>
      <trkpt lat="43.57014" lon="6.31575">
        <ele>463.3</ele>
        <time>2024-01-14T13:36:42.488Z</time>
      </trkpt>
      <trkpt lat="43.57019" lon="6.31573">
        <ele>463.5</ele>
        <time>2024-01-14T13:36:48.949Z</time>
      </trkpt>
      <trkpt lat="43.57025" lon="6.31574">
        <ele>464.1</ele>
        <time>2024-01-14T13:36:58.149Z</time>
      </trkpt>
      <trkpt lat="43.5703" lon="6.31574">
        <ele>464.4</ele>
        <time>2024-01-14T13:37:04.809Z</time>
      </trkpt>
      <trkpt lat="43.57035" lon="6.31572">
        <ele>464.6</ele>
        <time>2024-01-14T13:37:11.270Z</time>
      </trkpt>
      <trkpt lat="43.5704" lon="6.3157">
        <ele>464.7</ele>
        <time>2024-01-14T13:37:17.347Z</time>
      </trkpt>
      <trkpt lat="43.57045" lon="6.31569">
        <ele>464.9</ele>
        <time>2024-01-14T13:37:23.641Z</time>
      </trkpt>
      <trkpt lat="43.57049" lon="6.31567">
        <ele>465</ele>
        <time>2024-01-14T13:37:28.675Z</time>
      </trkpt>
      <trkpt lat="43.57054" lon="6.31567">
        <ele>465.3</ele>
        <time>2024-01-14T13:37:35.335Z</time>
      </trkpt>
      <trkpt lat="43.57058" lon="6.31566">
        <ele>465.6</ele>
        <time>2024-01-14T13:37:41.005Z</time>
      </trkpt>
      <trkpt lat="43.57066" lon="6.31565">
        <ele>466.2</ele>
        <time>2024-01-14T13:37:52.244Z</time>
      </trkpt>
      <trkpt lat="43.57072" lon="6.31567">
        <ele>466.7</ele>
        <time>2024-01-14T13:38:01.067Z</time>
      </trkpt>
      <trkpt lat="43.57077" lon="6.31569">
        <ele>467.1</ele>
        <time>2024-01-14T13:38:08.404Z</time>
      </trkpt>
      <trkpt lat="43.57083" lon="6.31568">
        <ele>467.5</ele>
        <time>2024-01-14T13:38:16.622Z</time>
      </trkpt>
      <trkpt lat="43.57088" lon="6.31567">
        <ele>467.9</ele>
        <time>2024-01-14T13:38:23.798Z</time>
      </trkpt>
      <trkpt lat="43.57093" lon="6.31568">
        <ele>468.1</ele>
        <time>2024-01-14T13:38:30.093Z</time>
      </trkpt>
      <trkpt lat="43.57098" lon="6.31568">
        <ele>468.4</ele>
        <time>2024-01-14T13:38:36.752Z</time>
      </trkpt>
      <trkpt lat="43.57103" lon="6.31569">
        <ele>468.6</ele>
        <time>2024-01-14T13:38:43.047Z</time>
      </trkpt>
      <trkpt lat="43.57107" lon="6.31569">
        <ele>468.8</ele>
        <time>2024-01-14T13:38:48.202Z</time>
      </trkpt>
      <trkpt lat="43.57113" lon="6.31571">
        <ele>468.9</ele>
        <time>2024-01-14T13:38:55.339Z</time>
      </trkpt>
      <trkpt lat="43.57119" lon="6.31573">
        <ele>468.7</ele>
        <time>2024-01-14T13:39:01.494Z</time>
      </trkpt>
      <trkpt lat="43.57124" lon="6.31574">
        <ele>468.5</ele>
        <time>2024-01-14T13:39:06.426Z</time>
      </trkpt>
      <trkpt lat="43.57129" lon="6.31575">
        <ele>468.3</ele>
        <time>2024-01-14T13:39:11.358Z</time>
      </trkpt>
      <trkpt lat="43.57135" lon="6.31574">
        <ele>468.4</ele>
        <time>2024-01-14T13:39:18.354Z</time>
      </trkpt>
      <trkpt lat="43.5714" lon="6.31572">
        <ele>468.7</ele>
        <time>2024-01-14T13:39:25.233Z</time>
      </trkpt>
      <trkpt lat="43.57146" lon="6.31572">
        <ele>468.8</ele>
        <time>2024-01-14T13:39:32.182Z</time>
      </trkpt>
      <trkpt lat="43.57152" lon="6.31571">
        <ele>469</ele>
        <time>2024-01-14T13:39:39.555Z</time>
      </trkpt>
      <trkpt lat="43.57158" lon="6.31572">
        <ele>469</ele>
        <time>2024-01-14T13:39:46.200Z</time>
      </trkpt>
      <trkpt lat="43.57164" lon="6.31573">
        <ele>469.1</ele>
        <time>2024-01-14T13:39:53.196Z</time>
      </trkpt>
      <trkpt lat="43.57169" lon="6.31576">
        <ele>468.9</ele>
        <time>2024-01-14T13:39:58.564Z</time>
      </trkpt>
      <trkpt lat="43.57174" lon="6.31578">
        <ele>469.1</ele>
        <time>2024-01-14T13:40:05.025Z</time>
      </trkpt>
      <trkpt lat="43.57179" lon="6.3158">
        <ele>469.2</ele>
        <time>2024-01-14T13:40:11.101Z</time>
      </trkpt>
      <trkpt lat="43.57184" lon="6.31582">
        <ele>469.4</ele>
        <time>2024-01-14T13:40:17.562Z</time>
      </trkpt>
      <trkpt lat="43.57191" lon="6.31589">
        <ele>469.3</ele>
        <time>2024-01-14T13:40:26.737Z</time>
      </trkpt>
      <trkpt lat="43.57197" lon="6.31593">
        <ele>469.6</ele>
        <time>2024-01-14T13:40:35.185Z</time>
      </trkpt>
      <trkpt lat="43.57202" lon="6.31597">
        <ele>470</ele>
        <time>2024-01-14T13:40:43.123Z</time>
      </trkpt>
      <trkpt lat="43.57208" lon="6.31602">
        <ele>470.4</ele>
        <time>2024-01-14T13:40:52.369Z</time>
      </trkpt>
      <trkpt lat="43.57213" lon="6.31607">
        <ele>470.9</ele>
        <time>2024-01-14T13:41:01.194Z</time>
      </trkpt>
      <trkpt lat="43.57217" lon="6.31613">
        <ele>471.2</ele>
        <time>2024-01-14T13:41:08.827Z</time>
      </trkpt>
      <trkpt lat="43.5722" lon="6.31619">
        <ele>471.4</ele>
        <time>2024-01-14T13:41:15.370Z</time>
      </trkpt>
      <trkpt lat="43.57225" lon="6.31625">
        <ele>471.7</ele>
        <time>2024-01-14T13:41:23.778Z</time>
      </trkpt>
      <trkpt lat="43.57229" lon="6.3163">
        <ele>471.8</ele>
        <time>2024-01-14T13:41:30.064Z</time>
      </trkpt>
      <trkpt lat="43.57232" lon="6.31637">
        <ele>471.8</ele>
        <time>2024-01-14T13:41:36.543Z</time>
      </trkpt>
      <trkpt lat="43.57234" lon="6.31643">
        <ele>471.7</ele>
        <time>2024-01-14T13:41:41.481Z</time>
      </trkpt>
      <trkpt lat="43.5724" lon="6.31652">
        <ele>471.8</ele>
        <time>2024-01-14T13:41:51.570Z</time>
      </trkpt>
      <trkpt lat="43.57245" lon="6.31656">
        <ele>472</ele>
        <time>2024-01-14T13:41:58.655Z</time>
      </trkpt>
      <trkpt lat="43.57249" lon="6.31659">
        <ele>472.2</ele>
        <time>2024-01-14T13:42:04.407Z</time>
      </trkpt>
      <trkpt lat="43.57253" lon="6.31664">
        <ele>472.3</ele>
        <time>2024-01-14T13:42:10.693Z</time>
      </trkpt>
      <trkpt lat="43.57257" lon="6.31668">
        <ele>472.5</ele>
        <time>2024-01-14T13:42:16.865Z</time>
      </trkpt>
      <trkpt lat="43.57262" lon="6.31672">
        <ele>472.7</ele>
        <time>2024-01-14T13:42:23.950Z</time>
      </trkpt>
      <trkpt lat="43.57266" lon="6.31675">
        <ele>472.9</ele>
        <time>2024-01-14T13:42:29.702Z</time>
      </trkpt>
      <trkpt lat="43.5727" lon="6.3168">
        <ele>473</ele>
        <time>2024-01-14T13:42:35.988Z</time>
      </trkpt>
      <trkpt lat="43.57274" lon="6.31685">
        <ele>473.1</ele>
        <time>2024-01-14T13:42:42.274Z</time>
      </trkpt>
      <trkpt lat="43.57279" lon="6.31691">
        <ele>473</ele>
        <time>2024-01-14T13:42:49.231Z</time>
      </trkpt>
      <trkpt lat="43.57284" lon="6.31696">
        <ele>472.4</ele>
        <time>2024-01-14T13:42:55.171Z</time>
      </trkpt>
      <trkpt lat="43.57291" lon="6.31697">
        <ele>471.8</ele>
        <time>2024-01-14T13:43:01.942Z</time>
      </trkpt>
      <trkpt lat="43.57297" lon="6.31698">
        <ele>471.3</ele>
        <time>2024-01-14T13:43:07.756Z</time>
      </trkpt>
      <trkpt lat="43.57303" lon="6.31701">
        <ele>471.2</ele>
        <time>2024-01-14T13:43:14.445Z</time>
      </trkpt>
      <trkpt lat="43.57308" lon="6.31704">
        <ele>471.3</ele>
        <time>2024-01-14T13:43:20.792Z</time>
      </trkpt>
      <trkpt lat="43.57313" lon="6.31708">
        <ele>471.8</ele>
        <time>2024-01-14T13:43:29.210Z</time>
      </trkpt>
      <trkpt lat="43.57318" lon="6.31711">
        <ele>472.1</ele>
        <time>2024-01-14T13:43:36.354Z</time>
      </trkpt>
      <trkpt lat="43.57324" lon="6.31712">
        <ele>472.1</ele>
        <time>2024-01-14T13:43:42.999Z</time>
      </trkpt>
      <trkpt lat="43.57329" lon="6.31712">
        <ele>472</ele>
        <time>2024-01-14T13:43:48.172Z</time>
      </trkpt>
      <trkpt lat="43.57333" lon="6.31716">
        <ele>472.3</ele>
        <time>2024-01-14T13:43:54.767Z</time>
      </trkpt>
      <trkpt lat="43.57337" lon="6.3172">
        <ele>472.9</ele>
        <time>2024-01-14T13:44:02.900Z</time>
      </trkpt>
      <trkpt lat="43.57338" lon="6.31727">
        <ele>473.7</ele>
        <time>2024-01-14T13:44:12.512Z</time>
      </trkpt>
      <trkpt lat="43.57338" lon="6.31734">
        <ele>474.4</ele>
        <time>2024-01-14T13:44:21.377Z</time>
      </trkpt>
      <trkpt lat="43.5734" lon="6.31742">
        <ele>475.2</ele>
        <time>2024-01-14T13:44:31.805Z</time>
      </trkpt>
      <trkpt lat="43.57342" lon="6.31749">
        <ele>475.9</ele>
        <time>2024-01-14T13:44:41.008Z</time>
      </trkpt>
      <trkpt lat="43.57345" lon="6.31756">
        <ele>476.7</ele>
        <time>2024-01-14T13:44:51.224Z</time>
      </trkpt>
      <trkpt lat="43.57347" lon="6.31763">
        <ele>477.4</ele>
        <time>2024-01-14T13:45:00.426Z</time>
      </trkpt>
      <trkpt lat="43.57351" lon="6.31773">
        <ele>478.3</ele>
        <time>2024-01-14T13:45:13.450Z</time>
      </trkpt>
      <trkpt lat="43.57347" lon="6.3178">
        <ele>479.2</ele>
        <time>2024-01-14T13:45:24.796Z</time>
      </trkpt>
      <trkpt lat="43.57343" lon="6.31786">
        <ele>479.8</ele>
        <time>2024-01-14T13:45:33.861Z</time>
      </trkpt>
      <trkpt lat="43.57345" lon="6.31793">
        <ele>480.2</ele>
        <time>2024-01-14T13:45:41.454Z</time>
      </trkpt>
      <trkpt lat="43.57347" lon="6.318">
        <ele>480.6</ele>
        <time>2024-01-14T13:45:49.048Z</time>
      </trkpt>
      <trkpt lat="43.57352" lon="6.31801">
        <ele>480.6</ele>
        <time>2024-01-14T13:45:54.603Z</time>
      </trkpt>
      <trkpt lat="43.57357" lon="6.31802">
        <ele>480.7</ele>
        <time>2024-01-14T13:46:00.511Z</time>
      </trkpt>
      <trkpt lat="43.57362" lon="6.31799">
        <ele>480.4</ele>
        <time>2024-01-14T13:46:05.756Z</time>
      </trkpt>
      <trkpt lat="43.57367" lon="6.31796">
        <ele>480.8</ele>
        <time>2024-01-14T13:46:13.350Z</time>
      </trkpt>
      <trkpt lat="43.57372" lon="6.31793">
        <ele>481.2</ele>
        <time>2024-01-14T13:46:20.945Z</time>
      </trkpt>
      <trkpt lat="43.57377" lon="6.31789">
        <ele>481.5</ele>
        <time>2024-01-14T13:46:28.439Z</time>
      </trkpt>
      <trkpt lat="43.57382" lon="6.31785">
        <ele>481.8</ele>
        <time>2024-01-14T13:46:35.934Z</time>
      </trkpt>
      <trkpt lat="43.57386" lon="6.3178">
        <ele>481.8</ele>
        <time>2024-01-14T13:46:41.868Z</time>
      </trkpt>
      <trkpt lat="43.57391" lon="6.31776">
        <ele>482.2</ele>
        <time>2024-01-14T13:46:49.806Z</time>
      </trkpt>
      <trkpt lat="43.57396" lon="6.31771">
        <ele>482.6</ele>
        <time>2024-01-14T13:46:58.162Z</time>
      </trkpt>
      <trkpt lat="43.57401" lon="6.31767">
        <ele>483.1</ele>
        <time>2024-01-14T13:47:06.580Z</time>
      </trkpt>
      <trkpt lat="43.57405" lon="6.31762">
        <ele>483.2</ele>
        <time>2024-01-14T13:47:12.866Z</time>
      </trkpt>
      <trkpt lat="43.57408" lon="6.31757">
        <ele>483.1</ele>
        <time>2024-01-14T13:47:17.714Z</time>
      </trkpt>
      <trkpt lat="43.57411" lon="6.31752">
        <ele>483.1</ele>
        <time>2024-01-14T13:47:22.885Z</time>
      </trkpt>
      <trkpt lat="43.57415" lon="6.31747">
        <ele>483.2</ele>
        <time>2024-01-14T13:47:29.171Z</time>
      </trkpt>
      <trkpt lat="43.57419" lon="6.31741">
        <ele>483.3</ele>
        <time>2024-01-14T13:47:36.017Z</time>
      </trkpt>
      <trkpt lat="43.57424" lon="6.31737">
        <ele>483.9</ele>
        <time>2024-01-14T13:47:44.956Z</time>
      </trkpt>
      <trkpt lat="43.57429" lon="6.31732">
        <ele>484.2</ele>
        <time>2024-01-14T13:47:52.876Z</time>
      </trkpt>
      <trkpt lat="43.57434" lon="6.31728">
        <ele>484.7</ele>
        <time>2024-01-14T13:48:01.294Z</time>
      </trkpt>
      <trkpt lat="43.57439" lon="6.31723">
        <ele>485</ele>
        <time>2024-01-14T13:48:09.215Z</time>
      </trkpt>
      <trkpt lat="43.57444" lon="6.31719">
        <ele>485.3</ele>
        <time>2024-01-14T13:48:16.710Z</time>
      </trkpt>
      <trkpt lat="43.57448" lon="6.31714">
        <ele>485</ele>
        <time>2024-01-14T13:48:21.901Z</time>
      </trkpt>
      <trkpt lat="43.57453" lon="6.31709">
        <ele>484.9</ele>
        <time>2024-01-14T13:48:28.363Z</time>
      </trkpt>
      <trkpt lat="43.57458" lon="6.31703">
        <ele>484.5</ele>
        <time>2024-01-14T13:48:34.737Z</time>
      </trkpt>
      <trkpt lat="43.57463" lon="6.31698">
        <ele>484.3</ele>
        <time>2024-01-14T13:48:40.894Z</time>
      </trkpt>
      <trkpt lat="43.57467" lon="6.31693">
        <ele>484</ele>
        <time>2024-01-14T13:48:46.086Z</time>
      </trkpt>
      <trkpt lat="43.57472" lon="6.3169">
        <ele>484.3</ele>
        <time>2024-01-14T13:48:53.229Z</time>
      </trkpt>
      <trkpt lat="43.57477" lon="6.31686">
        <ele>484.8</ele>
        <time>2024-01-14T13:49:01.647Z</time>
      </trkpt>
      <trkpt lat="43.57482" lon="6.3168">
        <ele>484.8</ele>
        <time>2024-01-14T13:49:08.932Z</time>
      </trkpt>
      <trkpt lat="43.57486" lon="6.31674">
        <ele>484.7</ele>
        <time>2024-01-14T13:49:15.100Z</time>
      </trkpt>
      <trkpt lat="43.5749" lon="6.31669">
        <ele>484.6</ele>
        <time>2024-01-14T13:49:20.708Z</time>
      </trkpt>
      <trkpt lat="43.57493" lon="6.31664">
        <ele>484.4</ele>
        <time>2024-01-14T13:49:25.261Z</time>
      </trkpt>
      <trkpt lat="43.57496" lon="6.31658">
        <ele>484.3</ele>
        <time>2024-01-14T13:49:30.743Z</time>
      </trkpt>
      <trkpt lat="43.57499" lon="6.31652">
        <ele>484.2</ele>
        <time>2024-01-14T13:49:36.225Z</time>
      </trkpt>
      <trkpt lat="43.57503" lon="6.31647">
        <ele>484.7</ele>
        <time>2024-01-14T13:49:44.253Z</time>
      </trkpt>
      <trkpt lat="43.57506" lon="6.31642">
        <ele>484.8</ele>
        <time>2024-01-14T13:49:49.779Z</time>
      </trkpt>
      <trkpt lat="43.5751" lon="6.31639">
        <ele>485.2</ele>
        <time>2024-01-14T13:49:56.441Z</time>
      </trkpt>
      <trkpt lat="43.57514" lon="6.31635">
        <ele>485.3</ele>
        <time>2024-01-14T13:50:02.226Z</time>
      </trkpt>
      <trkpt lat="43.57522" lon="6.31631">
        <ele>486.2</ele>
        <time>2024-01-14T13:50:15.477Z</time>
      </trkpt>
      <trkpt lat="43.57527" lon="6.31629">
        <ele>486.7</ele>
        <time>2024-01-14T13:50:23.313Z</time>
      </trkpt>
      <trkpt lat="43.57531" lon="6.31626">
        <ele>486.9</ele>
        <time>2024-01-14T13:50:29.065Z</time>
      </trkpt>
      <trkpt lat="43.57536" lon="6.31623">
        <ele>487.3</ele>
        <time>2024-01-14T13:50:36.659Z</time>
      </trkpt>
      <trkpt lat="43.5754" lon="6.31619">
        <ele>487.2</ele>
        <time>2024-01-14T13:50:41.766Z</time>
      </trkpt>
      <trkpt lat="43.57544" lon="6.31614">
        <ele>486.7</ele>
        <time>2024-01-14T13:50:46.957Z</time>
      </trkpt>
      <trkpt lat="43.57548" lon="6.31609">
        <ele>486.5</ele>
        <time>2024-01-14T13:50:52.265Z</time>
      </trkpt>
      <trkpt lat="43.57551" lon="6.31604">
        <ele>486.6</ele>
        <time>2024-01-14T13:50:57.791Z</time>
      </trkpt>
      <trkpt lat="43.57553" lon="6.31598">
        <ele>486.6</ele>
        <time>2024-01-14T13:51:03.052Z</time>
      </trkpt>
      <trkpt lat="43.57553" lon="6.31591">
        <ele>486</ele>
        <time>2024-01-14T13:51:07.931Z</time>
      </trkpt>
      <trkpt lat="43.57552" lon="6.31584">
        <ele>485.3</ele>
        <time>2024-01-14T13:51:12.904Z</time>
      </trkpt>
      <trkpt lat="43.57552" lon="6.31577">
        <ele>485</ele>
        <time>2024-01-14T13:51:17.783Z</time>
      </trkpt>
      <trkpt lat="43.57551" lon="6.3157">
        <ele>484.6</ele>
        <time>2024-01-14T13:51:22.755Z</time>
      </trkpt>
      <trkpt lat="43.57552" lon="6.31558">
        <ele>484.4</ele>
        <time>2024-01-14T13:51:31.732Z</time>
      </trkpt>
      <trkpt lat="43.57551" lon="6.31551">
        <ele>484.2</ele>
        <time>2024-01-14T13:51:36.792Z</time>
      </trkpt>
      <trkpt lat="43.5755" lon="6.31543">
        <ele>484</ele>
        <time>2024-01-14T13:51:42.628Z</time>
      </trkpt>
      <trkpt lat="43.5755" lon="6.31535">
        <ele>484</ele>
        <time>2024-01-14T13:51:49.001Z</time>
      </trkpt>
      <trkpt lat="43.57549" lon="6.31527">
        <ele>483.8</ele>
        <time>2024-01-14T13:51:54.838Z</time>
      </trkpt>
      <trkpt lat="43.57547" lon="6.31521">
        <ele>483.7</ele>
        <time>2024-01-14T13:51:59.775Z</time>
      </trkpt>
      <trkpt lat="43.57545" lon="6.31514">
        <ele>483.6</ele>
        <time>2024-01-14T13:52:05.443Z</time>
      </trkpt>
      <trkpt lat="43.57542" lon="6.31508">
        <ele>483.3</ele>
        <time>2024-01-14T13:52:10.524Z</time>
      </trkpt>
      <trkpt lat="43.57538" lon="6.31502">
        <ele>482.8</ele>
        <time>2024-01-14T13:52:16.208Z</time>
      </trkpt>
      <trkpt lat="43.57535" lon="6.31497">
        <ele>482.3</ele>
        <time>2024-01-14T13:52:20.733Z</time>
      </trkpt>
      <trkpt lat="43.57531" lon="6.31491">
        <ele>481.6</ele>
        <time>2024-01-14T13:52:26.416Z</time>
      </trkpt>
      <trkpt lat="43.57528" lon="6.31486">
        <ele>481</ele>
        <time>2024-01-14T13:52:30.941Z</time>
      </trkpt>
      <trkpt lat="43.57524" lon="6.31481">
        <ele>480.6</ele>
        <time>2024-01-14T13:52:36.133Z</time>
      </trkpt>
      <trkpt lat="43.57519" lon="6.31478">
        <ele>480.2</ele>
        <time>2024-01-14T13:52:41.378Z</time>
      </trkpt>
      <trkpt lat="43.57514" lon="6.31474">
        <ele>479.9</ele>
        <time>2024-01-14T13:52:46.938Z</time>
      </trkpt>
      <trkpt lat="43.57509" lon="6.31472">
        <ele>479.6</ele>
        <time>2024-01-14T13:52:51.946Z</time>
      </trkpt>
      <trkpt lat="43.57504" lon="6.31469">
        <ele>479.2</ele>
        <time>2024-01-14T13:52:57.191Z</time>
      </trkpt>
      <trkpt lat="43.57499" lon="6.31464">
        <ele>478.7</ele>
        <time>2024-01-14T13:53:03.131Z</time>
      </trkpt>
      <trkpt lat="43.57494" lon="6.31459">
        <ele>478.2</ele>
        <time>2024-01-14T13:53:09.071Z</time>
      </trkpt>
      <trkpt lat="43.57492" lon="6.31453">
        <ele>477.8</ele>
        <time>2024-01-14T13:53:13.675Z</time>
      </trkpt>
      <trkpt lat="43.57489" lon="6.31447">
        <ele>477.3</ele>
        <time>2024-01-14T13:53:18.756Z</time>
      </trkpt>
      <trkpt lat="43.57489" lon="6.3144">
        <ele>477</ele>
        <time>2024-01-14T13:53:23.635Z</time>
      </trkpt>
      <trkpt lat="43.57489" lon="6.31432">
        <ele>476.5</ele>
        <time>2024-01-14T13:53:29.211Z</time>
      </trkpt>
      <trkpt lat="43.57493" lon="6.31421">
        <ele>476.6</ele>
        <time>2024-01-14T13:53:39.362Z</time>
      </trkpt>
      <trkpt lat="43.57497" lon="6.31416">
        <ele>477.3</ele>
        <time>2024-01-14T13:53:48.515Z</time>
      </trkpt>
      <trkpt lat="43.575" lon="6.31411">
        <ele>477.6</ele>
        <time>2024-01-14T13:53:54.859Z</time>
      </trkpt>
      <trkpt lat="43.57504" lon="6.31408">
        <ele>477.6</ele>
        <time>2024-01-14T13:53:59.864Z</time>
      </trkpt>
      <trkpt lat="43.57508" lon="6.31404">
        <ele>477.6</ele>
        <time>2024-01-14T13:54:05.295Z</time>
      </trkpt>
      <trkpt lat="43.57512" lon="6.314">
        <ele>477.8</ele>
        <time>2024-01-14T13:54:11.467Z</time>
      </trkpt>
      <trkpt lat="43.57515" lon="6.31395">
        <ele>477.8</ele>
        <time>2024-01-14T13:54:16.638Z</time>
      </trkpt>
      <trkpt lat="43.5752" lon="6.3139">
        <ele>478.2</ele>
        <time>2024-01-14T13:54:24.994Z</time>
      </trkpt>
      <trkpt lat="43.57524" lon="6.31385">
        <ele>479.2</ele>
        <time>2024-01-14T13:54:36.260Z</time>
      </trkpt>
      <trkpt lat="43.57528" lon="6.31381">
        <ele>480.4</ele>
        <time>2024-01-14T13:54:49.222Z</time>
      </trkpt>
      <trkpt lat="43.57532" lon="6.31376">
        <ele>481.5</ele>
        <time>2024-01-14T13:55:01.331Z</time>
      </trkpt>
      <trkpt lat="43.57536" lon="6.31373">
        <ele>482.1</ele>
        <time>2024-01-14T13:55:09.111Z</time>
      </trkpt>
      <trkpt lat="43.5754" lon="6.31369">
        <ele>482.8</ele>
        <time>2024-01-14T13:55:17.863Z</time>
      </trkpt>
      <trkpt lat="43.57545" lon="6.31366">
        <ele>483.3</ele>
        <time>2024-01-14T13:55:25.948Z</time>
      </trkpt>
      <trkpt lat="43.57549" lon="6.31363">
        <ele>483.8</ele>
        <time>2024-01-14T13:55:33.139Z</time>
      </trkpt>
      <trkpt lat="43.57555" lon="6.31361">
        <ele>484</ele>
        <time>2024-01-14T13:55:40.653Z</time>
      </trkpt>
      <trkpt lat="43.5756" lon="6.31358">
        <ele>484</ele>
        <time>2024-01-14T13:55:46.648Z</time>
      </trkpt>
      <trkpt lat="43.57556" lon="6.31347">
        <ele>485.5</ele>
        <time>2024-01-14T13:56:04.087Z</time>
      </trkpt>
      <trkpt lat="43.57552" lon="6.31345">
        <ele>485.7</ele>
        <time>2024-01-14T13:56:09.517Z</time>
      </trkpt>
      <trkpt lat="43.57547" lon="6.31342">
        <ele>485.9</ele>
        <time>2024-01-14T13:56:16.246Z</time>
      </trkpt>
      <trkpt lat="43.57543" lon="6.31339">
        <ele>486</ele>
        <time>2024-01-14T13:56:21.606Z</time>
      </trkpt>
      <trkpt lat="43.57538" lon="6.31336">
        <ele>486.1</ele>
        <time>2024-01-14T13:56:27.953Z</time>
      </trkpt>
      <trkpt lat="43.57533" lon="6.31333">
        <ele>486.2</ele>
        <time>2024-01-14T13:56:34.300Z</time>
      </trkpt>
      <trkpt lat="43.57528" lon="6.31329">
        <ele>485.9</ele>
        <time>2024-01-14T13:56:39.860Z</time>
      </trkpt>
      <trkpt lat="43.57524" lon="6.31325">
        <ele>485</ele>
        <time>2024-01-14T13:56:44.612Z</time>
      </trkpt>
      <trkpt lat="43.5752" lon="6.31321">
        <ele>484.1</ele>
        <time>2024-01-14T13:56:49.364Z</time>
      </trkpt>
      <trkpt lat="43.57515" lon="6.31316">
        <ele>483.2</ele>
        <time>2024-01-14T13:56:55.304Z</time>
      </trkpt>
      <trkpt lat="43.5751" lon="6.3131">
        <ele>482.4</ele>
        <time>2024-01-14T13:57:01.678Z</time>
      </trkpt>
      <trkpt lat="43.57505" lon="6.31304">
        <ele>481.7</ele>
        <time>2024-01-14T13:57:08.052Z</time>
      </trkpt>
      <trkpt lat="43.575" lon="6.31297">
        <ele>481</ele>
        <time>2024-01-14T13:57:14.904Z</time>
      </trkpt>
      <trkpt lat="43.57495" lon="6.31292">
        <ele>480.8</ele>
        <time>2024-01-14T13:57:21.060Z</time>
      </trkpt>
      <trkpt lat="43.57489" lon="6.31287">
        <ele>480.6</ele>
        <time>2024-01-14T13:57:28.129Z</time>
      </trkpt>
      <trkpt lat="43.57484" lon="6.31283">
        <ele>480.4</ele>
        <time>2024-01-14T13:57:33.854Z</time>
      </trkpt>
      <trkpt lat="43.57479" lon="6.31278">
        <ele>480.2</ele>
        <time>2024-01-14T13:57:40.011Z</time>
      </trkpt>
      <trkpt lat="43.57475" lon="6.31273">
        <ele>479.8</ele>
        <time>2024-01-14T13:57:45.203Z</time>
      </trkpt>
      <trkpt lat="43.5747" lon="6.31267">
        <ele>478.7</ele>
        <time>2024-01-14T13:57:51.577Z</time>
      </trkpt>
      <trkpt lat="43.57466" lon="6.31262">
        <ele>477.6</ele>
        <time>2024-01-14T13:57:56.768Z</time>
      </trkpt>
      <trkpt lat="43.57462" lon="6.31256">
        <ele>476.4</ele>
        <time>2024-01-14T13:58:02.452Z</time>
      </trkpt>
      <trkpt lat="43.57458" lon="6.3125">
        <ele>475.4</ele>
        <time>2024-01-14T13:58:08.135Z</time>
      </trkpt>
      <trkpt lat="43.57453" lon="6.31244">
        <ele>474.3</ele>
        <time>2024-01-14T13:58:14.509Z</time>
      </trkpt>
      <trkpt lat="43.57449" lon="6.31239">
        <ele>473.4</ele>
        <time>2024-01-14T13:58:19.701Z</time>
      </trkpt>
      <trkpt lat="43.57444" lon="6.31233">
        <ele>472.4</ele>
        <time>2024-01-14T13:58:26.075Z</time>
      </trkpt>
      <trkpt lat="43.57439" lon="6.3123">
        <ele>472</ele>
        <time>2024-01-14T13:58:31.320Z</time>
      </trkpt>
      <trkpt lat="43.57434" lon="6.31226">
        <ele>471.7</ele>
        <time>2024-01-14T13:58:36.880Z</time>
      </trkpt>
      <trkpt lat="43.57428" lon="6.31224">
        <ele>471.4</ele>
        <time>2024-01-14T13:58:42.818Z</time>
      </trkpt>
      <trkpt lat="43.57422" lon="6.31221">
        <ele>471.1</ele>
        <time>2024-01-14T13:58:48.958Z</time>
      </trkpt>
      <trkpt lat="43.57417" lon="6.31217">
        <ele>470.8</ele>
        <time>2024-01-14T13:58:54.518Z</time>
      </trkpt>
      <trkpt lat="43.57412" lon="6.31213">
        <ele>470.2</ele>
        <time>2024-01-14T13:59:00.078Z</time>
      </trkpt>
      <trkpt lat="43.5741" lon="6.31205">
        <ele>469.8</ele>
        <time>2024-01-14T13:59:05.976Z</time>
      </trkpt>
      <trkpt lat="43.57407" lon="6.31197">
        <ele>469.4</ele>
        <time>2024-01-14T13:59:12.255Z</time>
      </trkpt>
      <trkpt lat="43.5741" lon="6.31191">
        <ele>469.5</ele>
        <time>2024-01-14T13:59:18.415Z</time>
      </trkpt>
      <trkpt lat="43.57412" lon="6.31184">
        <ele>469.7</ele>
        <time>2024-01-14T13:59:25.143Z</time>
      </trkpt>
      <trkpt lat="43.57415" lon="6.31178">
        <ele>469.9</ele>
        <time>2024-01-14T13:59:31.687Z</time>
      </trkpt>
      <trkpt lat="43.57417" lon="6.31171">
        <ele>470</ele>
        <time>2024-01-14T13:59:38.033Z</time>
      </trkpt>
      <trkpt lat="43.5742" lon="6.31165">
        <ele>469.8</ele>
        <time>2024-01-14T13:59:43.215Z</time>
      </trkpt>
      <trkpt lat="43.57422" lon="6.31158">
        <ele>469.9</ele>
        <time>2024-01-14T13:59:49.562Z</time>
      </trkpt>
      <trkpt lat="43.57424" lon="6.31152">
        <ele>469.9</ele>
        <time>2024-01-14T13:59:54.823Z</time>
      </trkpt>
      <trkpt lat="43.57426" lon="6.31146">
        <ele>469.8</ele>
        <time>2024-01-14T13:59:59.760Z</time>
      </trkpt>
      <trkpt lat="43.57428" lon="6.31139">
        <ele>469.8</ele>
        <time>2024-01-14T14:00:05.754Z</time>
      </trkpt>
      <trkpt lat="43.5743" lon="6.31132">
        <ele>469.7</ele>
        <time>2024-01-14T14:00:11.423Z</time>
      </trkpt>
      <trkpt lat="43.57433" lon="6.31125">
        <ele>469.4</ele>
        <time>2024-01-14T14:00:17.092Z</time>
      </trkpt>
      <trkpt lat="43.57435" lon="6.31118">
        <ele>469.3</ele>
        <time>2024-01-14T14:00:22.760Z</time>
      </trkpt>
      <trkpt lat="43.57437" lon="6.31109">
        <ele>469.1</ele>
        <time>2024-01-14T14:00:29.623Z</time>
      </trkpt>
      <trkpt lat="43.57438" lon="6.31099">
        <ele>468.9</ele>
        <time>2024-01-14T14:00:37.025Z</time>
      </trkpt>
      <trkpt lat="43.5744" lon="6.31093">
        <ele>468.6</ele>
        <time>2024-01-14T14:00:41.629Z</time>
      </trkpt>
      <trkpt lat="43.57442" lon="6.31088">
        <ele>468.4</ele>
        <time>2024-01-14T14:00:45.610Z</time>
      </trkpt>
      <trkpt lat="43.57444" lon="6.31082">
        <ele>468.1</ele>
        <time>2024-01-14T14:00:50.213Z</time>
      </trkpt>
      <trkpt lat="43.57446" lon="6.31076">
        <ele>467.9</ele>
        <time>2024-01-14T14:00:54.854Z</time>
      </trkpt>
      <trkpt lat="43.57452" lon="6.31073">
        <ele>467.4</ele>
        <time>2024-01-14T14:01:00.994Z</time>
      </trkpt>
      <trkpt lat="43.57457" lon="6.3107">
        <ele>466.9</ele>
        <time>2024-01-14T14:01:06.239Z</time>
      </trkpt>
      <trkpt lat="43.57462" lon="6.31068">
        <ele>466.4</ele>
        <time>2024-01-14T14:01:11.247Z</time>
      </trkpt>
      <trkpt lat="43.57467" lon="6.31066">
        <ele>465.9</ele>
        <time>2024-01-14T14:01:16.255Z</time>
      </trkpt>
      <trkpt lat="43.57473" lon="6.31062">
        <ele>465.1</ele>
        <time>2024-01-14T14:01:22.666Z</time>
      </trkpt>
      <trkpt lat="43.57478" lon="6.31057">
        <ele>464.2</ele>
        <time>2024-01-14T14:01:28.606Z</time>
      </trkpt>
      <trkpt lat="43.57483" lon="6.31053">
        <ele>463.3</ele>
        <time>2024-01-14T14:01:34.166Z</time>
      </trkpt>
      <trkpt lat="43.57488" lon="6.31049">
        <ele>462.5</ele>
        <time>2024-01-14T14:01:39.726Z</time>
      </trkpt>
      <trkpt lat="43.57492" lon="6.31041">
        <ele>461.9</ele>
        <time>2024-01-14T14:01:46.501Z</time>
      </trkpt>
      <trkpt lat="43.5749" lon="6.31036">
        <ele>461.9</ele>
        <time>2024-01-14T14:01:51.051Z</time>
      </trkpt>
      <trkpt lat="43.57487" lon="6.3103">
        <ele>462</ele>
        <time>2024-01-14T14:01:57.211Z</time>
      </trkpt>
      <trkpt lat="43.57485" lon="6.31023">
        <ele>462</ele>
        <time>2024-01-14T14:02:03.204Z</time>
      </trkpt>
      <trkpt lat="43.57482" lon="6.31016">
        <ele>462.4</ele>
        <time>2024-01-14T14:02:11.262Z</time>
      </trkpt>
      <trkpt lat="43.57483" lon="6.31009">
        <ele>462.3</ele>
        <time>2024-01-14T14:02:16.620Z</time>
      </trkpt>
      <trkpt lat="43.57484" lon="6.31002">
        <ele>462</ele>
        <time>2024-01-14T14:02:21.593Z</time>
      </trkpt>
      <trkpt lat="43.57486" lon="6.30995">
        <ele>461.8</ele>
        <time>2024-01-14T14:02:26.961Z</time>
      </trkpt>
      <trkpt lat="43.57488" lon="6.30987">
        <ele>461.6</ele>
        <time>2024-01-14T14:02:33.070Z</time>
      </trkpt>
      <trkpt lat="43.57491" lon="6.30981">
        <ele>460.9</ele>
        <time>2024-01-14T14:02:38.152Z</time>
      </trkpt>
      <trkpt lat="43.57493" lon="6.30975">
        <ele>460.4</ele>
        <time>2024-01-14T14:02:42.755Z</time>
      </trkpt>
      <trkpt lat="43.57496" lon="6.30968">
        <ele>459.7</ele>
        <time>2024-01-14T14:02:48.424Z</time>
      </trkpt>
      <trkpt lat="43.57498" lon="6.30961">
        <ele>459.2</ele>
        <time>2024-01-14T14:02:53.668Z</time>
      </trkpt>
      <trkpt lat="43.575" lon="6.30954">
        <ele>458.7</ele>
        <time>2024-01-14T14:02:58.913Z</time>
      </trkpt>
      <trkpt lat="43.57502" lon="6.30947">
        <ele>458.4</ele>
        <time>2024-01-14T14:03:04.158Z</time>
      </trkpt>
      <trkpt lat="43.57503" lon="6.30939">
        <ele>458.5</ele>
        <time>2024-01-14T14:03:10.976Z</time>
      </trkpt>
      <trkpt lat="43.57503" lon="6.30931">
        <ele>458.9</ele>
        <time>2024-01-14T14:03:18.931Z</time>
      </trkpt>
      <trkpt lat="43.57505" lon="6.30925">
        <ele>458.4</ele>
        <time>2024-01-14T14:03:23.535Z</time>
      </trkpt>
      <trkpt lat="43.57506" lon="6.30919">
        <ele>458.1</ele>
        <time>2024-01-14T14:03:27.826Z</time>
      </trkpt>
      <trkpt lat="43.57509" lon="6.30912">
        <ele>456.2</ele>
        <time>2024-01-14T14:03:33.495Z</time>
      </trkpt>
      <trkpt lat="43.57511" lon="6.30904">
        <ele>454.2</ele>
        <time>2024-01-14T14:03:39.393Z</time>
      </trkpt>
      <trkpt lat="43.57512" lon="6.30898">
        <ele>453</ele>
        <time>2024-01-14T14:03:43.685Z</time>
      </trkpt>
      <trkpt lat="43.57512" lon="6.30891">
        <ele>452.1</ele>
        <time>2024-01-14T14:03:48.564Z</time>
      </trkpt>
      <trkpt lat="43.5751" lon="6.30884">
        <ele>451.6</ele>
        <time>2024-01-14T14:03:53.808Z</time>
      </trkpt>
      <trkpt lat="43.57508" lon="6.30877">
        <ele>450.9</ele>
        <time>2024-01-14T14:03:59.053Z</time>
      </trkpt>
      <trkpt lat="43.57506" lon="6.30871">
        <ele>450.3</ele>
        <time>2024-01-14T14:04:03.656Z</time>
      </trkpt>
      <trkpt lat="43.57504" lon="6.30864">
        <ele>449.4</ele>
        <time>2024-01-14T14:04:08.901Z</time>
      </trkpt>
      <trkpt lat="43.57499" lon="6.3086">
        <ele>449.9</ele>
        <time>2024-01-14T14:04:17.319Z</time>
      </trkpt>
      <trkpt lat="43.57494" lon="6.30855">
        <ele>449.7</ele>
        <time>2024-01-14T14:04:23.476Z</time>
      </trkpt>
      <trkpt lat="43.57489" lon="6.30851">
        <ele>449.7</ele>
        <time>2024-01-14T14:04:29.830Z</time>
      </trkpt>
      <trkpt lat="43.57483" lon="6.30847">
        <ele>450</ele>
        <time>2024-01-14T14:04:38.279Z</time>
      </trkpt>
      <trkpt lat="43.57478" lon="6.30843">
        <ele>450</ele>
        <time>2024-01-14T14:04:44.633Z</time>
      </trkpt>
      <trkpt lat="43.57472" lon="6.30839">
        <ele>450.1</ele>
        <time>2024-01-14T14:04:52.309Z</time>
      </trkpt>
      <trkpt lat="43.57467" lon="6.30837">
        <ele>450.4</ele>
        <time>2024-01-14T14:04:59.188Z</time>
      </trkpt>
      <trkpt lat="43.57461" lon="6.30834">
        <ele>450.6</ele>
        <time>2024-01-14T14:05:06.930Z</time>
      </trkpt>
      <trkpt lat="43.57456" lon="6.30831">
        <ele>451</ele>
        <time>2024-01-14T14:05:14.524Z</time>
      </trkpt>
      <trkpt lat="43.57451" lon="6.30827">
        <ele>451.3</ele>
        <time>2024-01-14T14:05:22.019Z</time>
      </trkpt>
      <trkpt lat="43.5745" lon="6.3082">
        <ele>450.1</ele>
        <time>2024-01-14T14:05:26.992Z</time>
      </trkpt>
      <trkpt lat="43.57449" lon="6.30812">
        <ele>448.8</ele>
        <time>2024-01-14T14:05:32.651Z</time>
      </trkpt>
      <trkpt lat="43.57446" lon="6.30806">
        <ele>448.6</ele>
        <time>2024-01-14T14:05:37.833Z</time>
      </trkpt>
      <trkpt lat="43.57443" lon="6.308">
        <ele>448.5</ele>
        <time>2024-01-14T14:05:43.315Z</time>
      </trkpt>
      <trkpt lat="43.5744" lon="6.30796">
        <ele>448.6</ele>
        <time>2024-01-14T14:05:48.258Z</time>
      </trkpt>
      <trkpt lat="43.57436" lon="6.30791">
        <ele>448.9</ele>
        <time>2024-01-14T14:05:55.342Z</time>
      </trkpt>
      <trkpt lat="43.57432" lon="6.30787">
        <ele>449.3</ele>
        <time>2024-01-14T14:06:02.402Z</time>
      </trkpt>
      <trkpt lat="43.57428" lon="6.30782">
        <ele>449.7</ele>
        <time>2024-01-14T14:06:09.938Z</time>
      </trkpt>
      <trkpt lat="43.57425" lon="6.30777">
        <ele>449.8</ele>
        <time>2024-01-14T14:06:15.464Z</time>
      </trkpt>
      <trkpt lat="43.57422" lon="6.30771">
        <ele>449.6</ele>
        <time>2024-01-14T14:06:20.646Z</time>
      </trkpt>
      <trkpt lat="43.5742" lon="6.30765">
        <ele>449.4</ele>
        <time>2024-01-14T14:06:25.287Z</time>
      </trkpt>
      <trkpt lat="43.57417" lon="6.30758">
        <ele>449.7</ele>
        <time>2024-01-14T14:06:32.903Z</time>
      </trkpt>
      <trkpt lat="43.57413" lon="6.30752">
        <ele>450.5</ele>
        <time>2024-01-14T14:06:43.132Z</time>
      </trkpt>
      <trkpt lat="43.57409" lon="6.30746">
        <ele>451.1</ele>
        <time>2024-01-14T14:06:52.197Z</time>
      </trkpt>
      <trkpt lat="43.57406" lon="6.3074">
        <ele>451.3</ele>
        <time>2024-01-14T14:06:58.741Z</time>
      </trkpt>
      <trkpt lat="43.57403" lon="6.30734">
        <ele>451.6</ele>
        <time>2024-01-14T14:07:05.702Z</time>
      </trkpt>
      <trkpt lat="43.57399" lon="6.30723">
        <ele>451.7</ele>
        <time>2024-01-14T14:07:15.853Z</time>
      </trkpt>
      <trkpt lat="43.57397" lon="6.30718">
        <ele>451.9</ele>
        <time>2024-01-14T14:07:21.156Z</time>
      </trkpt>
      <trkpt lat="43.57394" lon="6.30712">
        <ele>452.4</ele>
        <time>2024-01-14T14:07:29.069Z</time>
      </trkpt>
      <trkpt lat="43.57392" lon="6.30707">
        <ele>452.5</ele>
        <time>2024-01-14T14:07:33.976Z</time>
      </trkpt>
      <trkpt lat="43.57389" lon="6.30701">
        <ele>452.9</ele>
        <time>2024-01-14T14:07:41.391Z</time>
      </trkpt>
      <trkpt lat="43.57387" lon="6.30694">
        <ele>452.6</ele>
        <time>2024-01-14T14:07:46.636Z</time>
      </trkpt>
      <trkpt lat="43.57385" lon="6.30686">
        <ele>451.6</ele>
        <time>2024-01-14T14:07:52.535Z</time>
      </trkpt>
      <trkpt lat="43.57382" lon="6.30681">
        <ele>451.7</ele>
        <time>2024-01-14T14:07:58.061Z</time>
      </trkpt>
      <trkpt lat="43.57379" lon="6.30675">
        <ele>451.6</ele>
        <time>2024-01-14T14:08:03.543Z</time>
      </trkpt>
      <trkpt lat="43.57377" lon="6.3067">
        <ele>451.4</ele>
        <time>2024-01-14T14:08:07.524Z</time>
      </trkpt>
      <trkpt lat="43.57374" lon="6.30664">
        <ele>451.4</ele>
        <time>2024-01-14T14:08:13.331Z</time>
      </trkpt>
      <trkpt lat="43.57372" lon="6.30658">
        <ele>451.1</ele>
        <time>2024-01-14T14:08:17.935Z</time>
      </trkpt>
      <trkpt lat="43.5737" lon="6.30652">
        <ele>450.8</ele>
        <time>2024-01-14T14:08:22.538Z</time>
      </trkpt>
      <trkpt lat="43.57367" lon="6.30646">
        <ele>450.9</ele>
        <time>2024-01-14T14:08:28.698Z</time>
      </trkpt>
      <trkpt lat="43.57363" lon="6.3064">
        <ele>451.5</ele>
        <time>2024-01-14T14:08:37.763Z</time>
      </trkpt>
      <trkpt lat="43.57359" lon="6.30634">
        <ele>450.9</ele>
        <time>2024-01-14T14:08:43.447Z</time>
      </trkpt>
      <trkpt lat="43.57354" lon="6.30628">
        <ele>449.8</ele>
        <time>2024-01-14T14:08:49.821Z</time>
      </trkpt>
      <trkpt lat="43.57349" lon="6.30626">
        <ele>449.6</ele>
        <time>2024-01-14T14:08:54.920Z</time>
      </trkpt>
      <trkpt lat="43.57344" lon="6.30623">
        <ele>449.2</ele>
        <time>2024-01-14T14:09:00.165Z</time>
      </trkpt>
      <trkpt lat="43.5734" lon="6.30624">
        <ele>449.8</ele>
        <time>2024-01-14T14:09:07.526Z</time>
      </trkpt>
      <trkpt lat="43.57335" lon="6.30625">
        <ele>450.4</ele>
        <time>2024-01-14T14:09:15.764Z</time>
      </trkpt>
      <trkpt lat="43.5733" lon="6.30628">
        <ele>450.7</ele>
        <time>2024-01-14T14:09:22.908Z</time>
      </trkpt>
      <trkpt lat="43.57325" lon="6.30631">
        <ele>450.6</ele>
        <time>2024-01-14T14:09:28.577Z</time>
      </trkpt>
      <trkpt lat="43.57321" lon="6.30634">
        <ele>450.6</ele>
        <time>2024-01-14T14:09:33.582Z</time>
      </trkpt>
      <trkpt lat="43.57317" lon="6.30637">
        <ele>450.6</ele>
        <time>2024-01-14T14:09:38.587Z</time>
      </trkpt>
      <trkpt lat="43.57313" lon="6.30641">
        <ele>450.9</ele>
        <time>2024-01-14T14:09:45.183Z</time>
      </trkpt>
      <trkpt lat="43.57308" lon="6.30645">
        <ele>451</ele>
        <time>2024-01-14T14:09:51.889Z</time>
      </trkpt>
      <trkpt lat="43.57304" lon="6.30649">
        <ele>451.2</ele>
        <time>2024-01-14T14:09:58.060Z</time>
      </trkpt>
      <trkpt lat="43.573" lon="6.30652">
        <ele>450.9</ele>
        <time>2024-01-14T14:10:02.440Z</time>
      </trkpt>
      <trkpt lat="43.57297" lon="6.30657">
        <ele>451.4</ele>
        <time>2024-01-14T14:10:09.778Z</time>
      </trkpt>
      <trkpt lat="43.57293" lon="6.30661">
        <ele>451.4</ele>
        <time>2024-01-14T14:10:15.209Z</time>
      </trkpt>
      <trkpt lat="43.57287" lon="6.30664">
        <ele>450.7</ele>
        <time>2024-01-14T14:10:21.349Z</time>
      </trkpt>
      <trkpt lat="43.5728" lon="6.30666">
        <ele>449.4</ele>
        <time>2024-01-14T14:10:28.226Z</time>
      </trkpt>
      <trkpt lat="43.57275" lon="6.30666">
        <ele>448.9</ele>
        <time>2024-01-14T14:10:33.037Z</time>
      </trkpt>
      <trkpt lat="43.5727" lon="6.30666">
        <ele>449.1</ele>
        <time>2024-01-14T14:10:39.274Z</time>
      </trkpt>
      <trkpt lat="43.57265" lon="6.30665">
        <ele>449</ele>
        <time>2024-01-14T14:10:44.504Z</time>
      </trkpt>
      <trkpt lat="43.57259" lon="6.30664">
        <ele>449</ele>
        <time>2024-01-14T14:10:51.150Z</time>
      </trkpt>
      <trkpt lat="43.57253" lon="6.30662">
        <ele>448.7</ele>
        <time>2024-01-14T14:10:57.088Z</time>
      </trkpt>
      <trkpt lat="43.57247" lon="6.3066">
        <ele>448.6</ele>
        <time>2024-01-14T14:11:03.548Z</time>
      </trkpt>
      <trkpt lat="43.57242" lon="6.30656">
        <ele>448</ele>
        <time>2024-01-14T14:11:09.108Z</time>
      </trkpt>
      <trkpt lat="43.57236" lon="6.30652">
        <ele>447.6</ele>
        <time>2024-01-14T14:11:15.518Z</time>
      </trkpt>
      <trkpt lat="43.57232" lon="6.30648">
        <ele>447</ele>
        <time>2024-01-14T14:11:20.270Z</time>
      </trkpt>
      <trkpt lat="43.57227" lon="6.30644">
        <ele>446.6</ele>
        <time>2024-01-14T14:11:25.830Z</time>
      </trkpt>
      <trkpt lat="43.57222" lon="6.30641">
        <ele>446.5</ele>
        <time>2024-01-14T14:11:31.499Z</time>
      </trkpt>
      <trkpt lat="43.57216" lon="6.30637">
        <ele>446.4</ele>
        <time>2024-01-14T14:11:38.498Z</time>
      </trkpt>
      <trkpt lat="43.5721" lon="6.30633">
        <ele>446.5</ele>
        <time>2024-01-14T14:11:46.174Z</time>
      </trkpt>
      <trkpt lat="43.57204" lon="6.30629">
        <ele>446.5</ele>
        <time>2024-01-14T14:11:53.500Z</time>
      </trkpt>
      <trkpt lat="43.572" lon="6.30625">
        <ele>446.4</ele>
        <time>2024-01-14T14:11:58.607Z</time>
      </trkpt>
      <trkpt lat="43.57195" lon="6.3062">
        <ele>446.2</ele>
        <time>2024-01-14T14:12:04.764Z</time>
      </trkpt>
      <trkpt lat="43.57191" lon="6.30616">
        <ele>445.9</ele>
        <time>2024-01-14T14:12:09.516Z</time>
      </trkpt>
      <trkpt lat="43.57186" lon="6.30612">
        <ele>445.7</ele>
        <time>2024-01-14T14:12:15.241Z</time>
      </trkpt>
      <trkpt lat="43.57181" lon="6.30608">
        <ele>445.6</ele>
        <time>2024-01-14T14:12:21.269Z</time>
      </trkpt>
      <trkpt lat="43.57176" lon="6.30604">
        <ele>445.6</ele>
        <time>2024-01-14T14:12:27.623Z</time>
      </trkpt>
      <trkpt lat="43.57172" lon="6.30599">
        <ele>445.6</ele>
        <time>2024-01-14T14:12:33.557Z</time>
      </trkpt>
      <trkpt lat="43.57167" lon="6.30594">
        <ele>445.7</ele>
        <time>2024-01-14T14:12:40.697Z</time>
      </trkpt>
      <trkpt lat="43.57163" lon="6.3059">
        <ele>445.6</ele>
        <time>2024-01-14T14:12:45.803Z</time>
      </trkpt>
      <trkpt lat="43.57159" lon="6.30585">
        <ele>445.4</ele>
        <time>2024-01-14T14:12:51.111Z</time>
      </trkpt>
      <trkpt lat="43.57154" lon="6.30582">
        <ele>445.4</ele>
        <time>2024-01-14T14:12:57.106Z</time>
      </trkpt>
      <trkpt lat="43.57148" lon="6.30578">
        <ele>445.5</ele>
        <time>2024-01-14T14:13:04.782Z</time>
      </trkpt>
      <trkpt lat="43.57143" lon="6.30574">
        <ele>445.8</ele>
        <time>2024-01-14T14:13:12.276Z</time>
      </trkpt>
      <trkpt lat="43.57137" lon="6.30569">
        <ele>445.9</ele>
        <time>2024-01-14T14:13:20.332Z</time>
      </trkpt>
      <trkpt lat="43.57133" lon="6.30565">
        <ele>445.8</ele>
        <time>2024-01-14T14:13:25.439Z</time>
      </trkpt>
      <trkpt lat="43.57128" lon="6.3056">
        <ele>445.6</ele>
        <time>2024-01-14T14:13:31.595Z</time>
      </trkpt>
      <trkpt lat="43.57124" lon="6.30558">
        <ele>445.5</ele>
        <time>2024-01-14T14:13:35.951Z</time>
      </trkpt>
      <trkpt lat="43.57119" lon="6.30556">
        <ele>445.3</ele>
        <time>2024-01-14T14:13:41.051Z</time>
      </trkpt>
      <trkpt lat="43.57118" lon="6.30548">
        <ele>445.2</ele>
        <time>2024-01-14T14:13:47.191Z</time>
      </trkpt>
      <trkpt lat="43.57117" lon="6.30539">
        <ele>445.2</ele>
        <time>2024-01-14T14:13:54.445Z</time>
      </trkpt>
      <trkpt lat="43.57118" lon="6.30529">
        <ele>445.2</ele>
        <time>2024-01-14T14:14:02.487Z</time>
      </trkpt>
      <trkpt lat="43.57118" lon="6.30519">
        <ele>445.2</ele>
        <time>2024-01-14T14:14:10.453Z</time>
      </trkpt>
      <trkpt lat="43.5712" lon="6.30513">
        <ele>445.1</ele>
        <time>2024-01-14T14:14:15.390Z</time>
      </trkpt>
      <trkpt lat="43.57121" lon="6.30506">
        <ele>445.1</ele>
        <time>2024-01-14T14:14:21.074Z</time>
      </trkpt>
      <trkpt lat="43.57124" lon="6.30496">
        <ele>444.9</ele>
        <time>2024-01-14T14:14:29.055Z</time>
      </trkpt>
      <trkpt lat="43.57127" lon="6.30486">
        <ele>444.8</ele>
        <time>2024-01-14T14:14:37.348Z</time>
      </trkpt>
      <trkpt lat="43.57129" lon="6.30478">
        <ele>444.7</ele>
        <time>2024-01-14T14:14:43.762Z</time>
      </trkpt>
      <trkpt lat="43.5713" lon="6.30469">
        <ele>444.5</ele>
        <time>2024-01-14T14:14:50.381Z</time>
      </trkpt>
      <trkpt lat="43.5713" lon="6.30463">
        <ele>444.2</ele>
        <time>2024-01-14T14:14:54.563Z</time>
      </trkpt>
      <trkpt lat="43.57129" lon="6.30456">
        <ele>443.9</ele>
        <time>2024-01-14T14:14:59.536Z</time>
      </trkpt>
      <trkpt lat="43.57131" lon="6.30449">
        <ele>443.5</ele>
        <time>2024-01-14T14:15:04.781Z</time>
      </trkpt>
      <trkpt lat="43.57132" lon="6.30442">
        <ele>443</ele>
        <time>2024-01-14T14:15:09.755Z</time>
      </trkpt>
      <trkpt lat="43.57135" lon="6.30447">
        <ele>443.3</ele>
        <time>2024-01-14T14:15:16.099Z</time>
      </trkpt>
      <trkpt lat="43.57138" lon="6.30452">
        <ele>443.6</ele>
        <time>2024-01-14T14:15:22.443Z</time>
      </trkpt>
      <trkpt lat="43.57141" lon="6.30457">
        <ele>443.3</ele>
        <time>2024-01-14T14:15:26.968Z</time>
      </trkpt>
      <trkpt lat="43.57144" lon="6.30462">
        <ele>442.9</ele>
        <time>2024-01-14T14:15:31.493Z</time>
      </trkpt>
      <trkpt lat="43.57148" lon="6.30468">
        <ele>442.4</ele>
        <time>2024-01-14T14:15:37.177Z</time>
      </trkpt>
      <trkpt lat="43.57152" lon="6.30474">
        <ele>441.8</ele>
        <time>2024-01-14T14:15:42.860Z</time>
      </trkpt>
      <trkpt lat="43.57158" lon="6.30483">
        <ele>440.7</ele>
        <time>2024-01-14T14:15:51.385Z</time>
      </trkpt>
      <trkpt lat="43.57163" lon="6.30491">
        <ele>440.1</ele>
        <time>2024-01-14T14:15:58.750Z</time>
      </trkpt>
      <trkpt lat="43.57166" lon="6.30498">
        <ele>440</ele>
        <time>2024-01-14T14:16:04.902Z</time>
      </trkpt>
      <trkpt lat="43.57169" lon="6.30504">
        <ele>439.5</ele>
        <time>2024-01-14T14:16:09.984Z</time>
      </trkpt>
      <trkpt lat="43.57174" lon="6.30512">
        <ele>438.3</ele>
        <time>2024-01-14T14:16:17.348Z</time>
      </trkpt>
      <trkpt lat="43.57178" lon="6.30519">
        <ele>437.6</ele>
        <time>2024-01-14T14:16:23.562Z</time>
      </trkpt>
      <trkpt lat="43.57184" lon="6.30526">
        <ele>436.2</ele>
        <time>2024-01-14T14:16:31.120Z</time>
      </trkpt>
      <trkpt lat="43.57188" lon="6.30532">
        <ele>435.6</ele>
        <time>2024-01-14T14:16:36.804Z</time>
      </trkpt>
      <trkpt lat="43.57191" lon="6.30538">
        <ele>435.5</ele>
        <time>2024-01-14T14:16:42.286Z</time>
      </trkpt>
      <trkpt lat="43.57193" lon="6.30548">
        <ele>436.3</ele>
        <time>2024-01-14T14:16:54.018Z</time>
      </trkpt>
      <trkpt lat="43.572" lon="6.30555">
        <ele>435.5</ele>
        <time>2024-01-14T14:17:02.335Z</time>
      </trkpt>
      <trkpt lat="43.57206" lon="6.30557">
        <ele>434.3</ele>
        <time>2024-01-14T14:17:08.273Z</time>
      </trkpt>
      <trkpt lat="43.57211" lon="6.30559">
        <ele>433.5</ele>
        <time>2024-01-14T14:17:13.282Z</time>
      </trkpt>
      <trkpt lat="43.57217" lon="6.30562">
        <ele>432.6</ele>
        <time>2024-01-14T14:17:19.421Z</time>
      </trkpt>
      <trkpt lat="43.57222" lon="6.30565">
        <ele>432.1</ele>
        <time>2024-01-14T14:17:24.666Z</time>
      </trkpt>
      <trkpt lat="43.5723" lon="6.30569">
        <ele>431.2</ele>
        <time>2024-01-14T14:17:32.852Z</time>
      </trkpt>
      <trkpt lat="43.57237" lon="6.30571">
        <ele>430.1</ele>
        <time>2024-01-14T14:17:39.730Z</time>
      </trkpt>
      <trkpt lat="43.57243" lon="6.30573">
        <ele>429.3</ele>
        <time>2024-01-14T14:17:45.668Z</time>
      </trkpt>
      <trkpt lat="43.57248" lon="6.30576">
        <ele>428.8</ele>
        <time>2024-01-14T14:17:50.913Z</time>
      </trkpt>
      <trkpt lat="43.57253" lon="6.30578">
        <ele>428.9</ele>
        <time>2024-01-14T14:17:56.990Z</time>
      </trkpt>
      <trkpt lat="43.57258" lon="6.30575">
        <ele>428.3</ele>
        <time>2024-01-14T14:18:02.235Z</time>
      </trkpt>
      <trkpt lat="43.57263" lon="6.30572">
        <ele>427.7</ele>
        <time>2024-01-14T14:18:07.481Z</time>
      </trkpt>
      <trkpt lat="43.57268" lon="6.30566">
        <ele>426.7</ele>
        <time>2024-01-14T14:18:13.855Z</time>
      </trkpt>
      <trkpt lat="43.57272" lon="6.30559">
        <ele>425.4</ele>
        <time>2024-01-14T14:18:20.069Z</time>
      </trkpt>
      <trkpt lat="43.57276" lon="6.30554">
        <ele>424.6</ele>
        <time>2024-01-14T14:18:25.261Z</time>
      </trkpt>
      <trkpt lat="43.5728" lon="6.30548">
        <ele>424</ele>
        <time>2024-01-14T14:18:30.944Z</time>
      </trkpt>
      <trkpt lat="43.57284" lon="6.30542">
        <ele>423.4</ele>
        <time>2024-01-14T14:18:36.627Z</time>
      </trkpt>
      <trkpt lat="43.57287" lon="6.30536">
        <ele>422.4</ele>
        <time>2024-01-14T14:18:41.709Z</time>
      </trkpt>
      <trkpt lat="43.57288" lon="6.30528">
        <ele>420.8</ele>
        <time>2024-01-14T14:18:47.367Z</time>
      </trkpt>
      <trkpt lat="43.57289" lon="6.3052">
        <ele>418.4</ele>
        <time>2024-01-14T14:18:53.026Z</time>
      </trkpt>
      <trkpt lat="43.57285" lon="6.30515">
        <ele>417</ele>
        <time>2024-01-14T14:18:58.218Z</time>
      </trkpt>
      <trkpt lat="43.57281" lon="6.3051">
        <ele>415.9</ele>
        <time>2024-01-14T14:19:03.410Z</time>
      </trkpt>
      <trkpt lat="43.57275" lon="6.30507">
        <ele>415.2</ele>
        <time>2024-01-14T14:19:09.549Z</time>
      </trkpt>
      <trkpt lat="43.57268" lon="6.30504">
        <ele>413.8</ele>
        <time>2024-01-14T14:19:16.601Z</time>
      </trkpt>
      <trkpt lat="43.57263" lon="6.30504">
        <ele>413.2</ele>
        <time>2024-01-14T14:19:21.411Z</time>
      </trkpt>
      <trkpt lat="43.57257" lon="6.30504">
        <ele>412.5</ele>
        <time>2024-01-14T14:19:27.184Z</time>
      </trkpt>
      <trkpt lat="43.57252" lon="6.30503">
        <ele>411.8</ele>
        <time>2024-01-14T14:19:32.044Z</time>
      </trkpt>
      <trkpt lat="43.57246" lon="6.30501">
        <ele>412.2</ele>
        <time>2024-01-14T14:19:40.398Z</time>
      </trkpt>
      <trkpt lat="43.5724" lon="6.30497">
        <ele>412.7</ele>
        <time>2024-01-14T14:19:49.732Z</time>
      </trkpt>
      <trkpt lat="43.57234" lon="6.30493">
        <ele>413.3</ele>
        <time>2024-01-14T14:19:59.556Z</time>
      </trkpt>
      <trkpt lat="43.57229" lon="6.30484">
        <ele>412.8</ele>
        <time>2024-01-14T14:20:07.462Z</time>
      </trkpt>
      <trkpt lat="43.57229" lon="6.30488">
        <ele>413.7</ele>
        <time>2024-01-14T14:20:17.524Z</time>
      </trkpt>
      <trkpt lat="43.5723" lon="6.30485">
        <ele>412.7</ele>
        <time>2024-01-14T14:20:19.826Z</time>
      </trkpt>
      <trkpt lat="43.57228" lon="6.30479">
        <ele>412.1</ele>
        <time>2024-01-14T14:20:24.429Z</time>
      </trkpt>
      <trkpt lat="43.57225" lon="6.30472">
        <ele>411.9</ele>
        <time>2024-01-14T14:20:30.278Z</time>
      </trkpt>
      <trkpt lat="43.57223" lon="6.30466">
        <ele>411.8</ele>
        <time>2024-01-14T14:20:35.216Z</time>
      </trkpt>
      <trkpt lat="43.5722" lon="6.3046">
        <ele>412.4</ele>
        <time>2024-01-14T14:20:43.671Z</time>
      </trkpt>
      <trkpt lat="43.57219" lon="6.30453">
        <ele>411.9</ele>
        <time>2024-01-14T14:20:48.644Z</time>
      </trkpt>
      <trkpt lat="43.57218" lon="6.30446">
        <ele>411.5</ele>
        <time>2024-01-14T14:20:53.618Z</time>
      </trkpt>
      <trkpt lat="43.57217" lon="6.30439">
        <ele>411</ele>
        <time>2024-01-14T14:20:58.591Z</time>
      </trkpt>
      <trkpt lat="43.57215" lon="6.30432">
        <ele>411.1</ele>
        <time>2024-01-14T14:21:04.937Z</time>
      </trkpt>
      <trkpt lat="43.57215" lon="6.30424">
        <ele>410</ele>
        <time>2024-01-14T14:21:10.514Z</time>
      </trkpt>
      <trkpt lat="43.57214" lon="6.30415">
        <ele>409.1</ele>
        <time>2024-01-14T14:21:16.860Z</time>
      </trkpt>
      <trkpt lat="43.57213" lon="6.30407">
        <ele>408</ele>
        <time>2024-01-14T14:21:22.519Z</time>
      </trkpt>
      <trkpt lat="43.57212" lon="6.30399">
        <ele>406.9</ele>
        <time>2024-01-14T14:21:28.177Z</time>
      </trkpt>
      <trkpt lat="43.57211" lon="6.30388">
        <ele>405</ele>
        <time>2024-01-14T14:21:35.905Z</time>
      </trkpt>
      <trkpt lat="43.57209" lon="6.30376">
        <ele>402.7</ele>
        <time>2024-01-14T14:21:44.488Z</time>
      </trkpt>
      <trkpt lat="43.57207" lon="6.3037">
        <ele>402.1</ele>
        <time>2024-01-14T14:21:49.091Z</time>
      </trkpt>
      <trkpt lat="43.57204" lon="6.30363">
        <ele>401.7</ele>
        <time>2024-01-14T14:21:54.760Z</time>
      </trkpt>
      <trkpt lat="43.57198" lon="6.30357">
        <ele>403.1</ele>
        <time>2024-01-14T14:22:10.448Z</time>
      </trkpt>
      <trkpt lat="43.57192" lon="6.30351">
        <ele>403.8</ele>
        <time>2024-01-14T14:22:21.541Z</time>
      </trkpt>
      <trkpt lat="43.57188" lon="6.30344">
        <ele>403.3</ele>
        <time>2024-01-14T14:22:27.755Z</time>
      </trkpt>
      <trkpt lat="43.57184" lon="6.30336">
        <ele>402.7</ele>
        <time>2024-01-14T14:22:34.531Z</time>
      </trkpt>
      <trkpt lat="43.57178" lon="6.30327">
        <ele>402.8</ele>
        <time>2024-01-14T14:22:44.620Z</time>
      </trkpt>
      <trkpt lat="43.57175" lon="6.30322">
        <ele>402.9</ele>
        <time>2024-01-14T14:22:50.147Z</time>
      </trkpt>
      <trkpt lat="43.57172" lon="6.30316">
        <ele>402.8</ele>
        <time>2024-01-14T14:22:55.629Z</time>
      </trkpt>
      <trkpt lat="43.57168" lon="6.30312">
        <ele>403.9</ele>
        <time>2024-01-14T14:23:07.574Z</time>
      </trkpt>
      <trkpt lat="43.57164" lon="6.30308">
        <ele>405.1</ele>
        <time>2024-01-14T14:23:20.535Z</time>
      </trkpt>
      <trkpt lat="43.5716" lon="6.30303">
        <ele>406.3</ele>
        <time>2024-01-14T14:23:33.568Z</time>
      </trkpt>
      <trkpt lat="43.57156" lon="6.30299">
        <ele>407.8</ele>
        <time>2024-01-14T14:23:50.232Z</time>
      </trkpt>
      <trkpt lat="43.57156" lon="6.30292">
        <ele>406.3</ele>
        <time>2024-01-14T14:23:55.112Z</time>
      </trkpt>
      <trkpt lat="43.57156" lon="6.30284">
        <ele>404.6</ele>
        <time>2024-01-14T14:24:00.688Z</time>
      </trkpt>
      <trkpt lat="43.57154" lon="6.30276">
        <ele>404.3</ele>
        <time>2024-01-14T14:24:06.587Z</time>
      </trkpt>
      <trkpt lat="43.57152" lon="6.30268">
        <ele>404.1</ele>
        <time>2024-01-14T14:24:12.697Z</time>
      </trkpt>
      <trkpt lat="43.57151" lon="6.30256">
        <ele>402.3</ele>
        <time>2024-01-14T14:24:21.116Z</time>
      </trkpt>
      <trkpt lat="43.57149" lon="6.30248">
        <ele>401.9</ele>
        <time>2024-01-14T14:24:27.015Z</time>
      </trkpt>
      <trkpt lat="43.57147" lon="6.30239">
        <ele>401.6</ele>
        <time>2024-01-14T14:24:33.589Z</time>
      </trkpt>
      <trkpt lat="43.57147" lon="6.30232">
        <ele>400.5</ele>
        <time>2024-01-14T14:24:38.468Z</time>
      </trkpt>
      <trkpt lat="43.57146" lon="6.30224">
        <ele>399.9</ele>
        <time>2024-01-14T14:24:44.127Z</time>
      </trkpt>
      <trkpt lat="43.57144" lon="6.30217">
        <ele>399.6</ele>
        <time>2024-01-14T14:24:49.372Z</time>
      </trkpt>
      <trkpt lat="43.57141" lon="6.3021">
        <ele>399.7</ele>
        <time>2024-01-14T14:24:56.202Z</time>
      </trkpt>
      <trkpt lat="43.57142" lon="6.30202">
        <ele>397.2</ele>
        <time>2024-01-14T14:25:01.860Z</time>
      </trkpt>
      <trkpt lat="43.57142" lon="6.30194">
        <ele>395.2</ele>
        <time>2024-01-14T14:25:07.437Z</time>
      </trkpt>
      <trkpt lat="43.5714" lon="6.30187">
        <ele>394.3</ele>
        <time>2024-01-14T14:25:12.682Z</time>
      </trkpt>
      <trkpt lat="43.57137" lon="6.3018">
        <ele>393.1</ele>
        <time>2024-01-14T14:25:18.351Z</time>
      </trkpt>
      <trkpt lat="43.57136" lon="6.30171">
        <ele>390.9</ele>
        <time>2024-01-14T14:25:24.697Z</time>
      </trkpt>
      <trkpt lat="43.57135" lon="6.30162">
        <ele>389.2</ele>
        <time>2024-01-14T14:25:31.044Z</time>
      </trkpt>
      <trkpt lat="43.57129" lon="6.30157">
        <ele>390.1</ele>
        <time>2024-01-14T14:25:42.876Z</time>
      </trkpt>
      <trkpt lat="43.57123" lon="6.30151">
        <ele>391.2</ele>
        <time>2024-01-14T14:25:56.334Z</time>
      </trkpt>
      <trkpt lat="43.57119" lon="6.30144">
        <ele>391.7</ele>
        <time>2024-01-14T14:26:05.455Z</time>
      </trkpt>
      <trkpt lat="43.57115" lon="6.30137">
        <ele>392.7</ele>
        <time>2024-01-14T14:26:17.468Z</time>
      </trkpt>
      <trkpt lat="43.57115" lon="6.30128">
        <ele>393</ele>
        <time>2024-01-14T14:26:25.763Z</time>
      </trkpt>
      <trkpt lat="43.57115" lon="6.30119">
        <ele>393.4</ele>
        <time>2024-01-14T14:26:34.487Z</time>
      </trkpt>
      <trkpt lat="43.57121" lon="6.30111">
        <ele>391.8</ele>
        <time>2024-01-14T14:26:42.513Z</time>
      </trkpt>
      <trkpt lat="43.57124" lon="6.30106">
        <ele>391.6</ele>
        <time>2024-01-14T14:26:47.066Z</time>
      </trkpt>
      <trkpt lat="43.57127" lon="6.301">
        <ele>391.3</ele>
        <time>2024-01-14T14:26:52.147Z</time>
      </trkpt>
      <trkpt lat="43.57128" lon="6.30094">
        <ele>391.6</ele>
        <time>2024-01-14T14:26:58.234Z</time>
      </trkpt>
      <trkpt lat="43.57128" lon="6.30087">
        <ele>392.4</ele>
        <time>2024-01-14T14:27:07.770Z</time>
      </trkpt>
      <trkpt lat="43.5713" lon="6.30079">
        <ele>392.6</ele>
        <time>2024-01-14T14:27:15.239Z</time>
      </trkpt>
      <trkpt lat="43.57131" lon="6.30071">
        <ele>393.6</ele>
        <time>2024-01-14T14:27:26.821Z</time>
      </trkpt>
      <trkpt lat="43.57135" lon="6.3006">
        <ele>393.4</ele>
        <time>2024-01-14T14:27:35.981Z</time>
      </trkpt>
      <trkpt lat="43.5714" lon="6.30059">
        <ele>390.8</ele>
        <time>2024-01-14T14:27:40.841Z</time>
      </trkpt>
      <trkpt lat="43.57144" lon="6.30057">
        <ele>389</ele>
        <time>2024-01-14T14:27:44.934Z</time>
      </trkpt>
      <trkpt lat="43.57148" lon="6.30053">
        <ele>387.5</ele>
        <time>2024-01-14T14:27:49.686Z</time>
      </trkpt>
      <trkpt lat="43.57151" lon="6.30048">
        <ele>386.8</ele>
        <time>2024-01-14T14:27:54.211Z</time>
      </trkpt>
      <trkpt lat="43.57156" lon="6.3004">
        <ele>385.8</ele>
        <time>2024-01-14T14:28:01.549Z</time>
        <extensions>
          <visugpx:TrkExtension xmlns:visugpx="https://www.visugpx.com/editgpx/">
            <visugpx:node>1</visugpx:node>
            </visugpx:TrkExtension>
        </extensions>
      </trkpt>
      <trkpt lat="43.57159" lon="6.30043">
        <ele>383.2</ele>
        <time>2024-01-14T14:28:05.890Z</time>
      </trkpt>
      <trkpt lat="43.57163" lon="6.30047">
        <ele>380.5</ele>
        <time>2024-01-14T14:28:10.231Z</time>
      </trkpt>
      <trkpt lat="43.57163" lon="6.30049">
        <ele>380.2</ele>
        <time>2024-01-14T14:28:11.625Z</time>
      </trkpt>
      <trkpt lat="43.57161" lon="6.30052">
        <ele>380.7</ele>
        <time>2024-01-14T14:28:17.426Z</time>
      </trkpt>
      <trkpt lat="43.57162" lon="6.30055">
        <ele>379.6</ele>
        <time>2024-01-14T14:28:19.727Z</time>
      </trkpt>
      <trkpt lat="43.57163" lon="6.30057">
        <ele>378.7</ele>
        <time>2024-01-14T14:28:21.421Z</time>
      </trkpt>
      <trkpt lat="43.57163" lon="6.3006">
        <ele>378</ele>
        <time>2024-01-14T14:28:23.512Z</time>
      </trkpt>
      <trkpt lat="43.57163" lon="6.30063">
        <ele>377.4</ele>
        <time>2024-01-14T14:28:25.603Z</time>
      </trkpt>
      <trkpt lat="43.57161" lon="6.30066">
        <ele>377.9</ele>
        <time>2024-01-14T14:28:31.404Z</time>
      </trkpt>
      <trkpt lat="43.5716" lon="6.30068">
        <ele>378</ele>
        <time>2024-01-14T14:28:33.724Z</time>
      </trkpt>
      <trkpt lat="43.57158" lon="6.3007">
        <ele>378.7</ele>
        <time>2024-01-14T14:28:41.381Z</time>
      </trkpt>
      <trkpt lat="43.57157" lon="6.30072">
        <ele>378.9</ele>
        <time>2024-01-14T14:28:44.200Z</time>
      </trkpt>
      <trkpt lat="43.57157" lon="6.30075">
        <ele>378.3</ele>
        <time>2024-01-14T14:28:46.291Z</time>
      </trkpt>
      <trkpt lat="43.57157" lon="6.30078">
        <ele>377.7</ele>
        <time>2024-01-14T14:28:48.382Z</time>
      </trkpt>
      <trkpt lat="43.57159" lon="6.3008">
        <ele>376.1</ele>
        <time>2024-01-14T14:28:50.758Z</time>
      </trkpt>
      <trkpt lat="43.57158" lon="6.30083">
        <ele>376.1</ele>
        <time>2024-01-14T14:28:53.389Z</time>
      </trkpt>
      <trkpt lat="43.57159" lon="6.30085">
        <ele>375.5</ele>
        <time>2024-01-14T14:28:55.083Z</time>
      </trkpt>
      <trkpt lat="43.57158" lon="6.30088">
        <ele>376.3</ele>
        <time>2024-01-14T14:29:04.256Z</time>
      </trkpt>
      <trkpt lat="43.57157" lon="6.30092">
        <ele>377.1</ele>
        <time>2024-01-14T14:29:12.916Z</time>
      </trkpt>
      <trkpt lat="43.57155" lon="6.30097">
        <ele>378.4</ele>
        <time>2024-01-14T14:29:27.502Z</time>
      </trkpt>
      <trkpt lat="43.57156" lon="6.30098">
        <ele>377.9</ele>
        <time>2024-01-14T14:29:28.690Z</time>
      </trkpt>
      <trkpt lat="43.57157" lon="6.30099">
        <ele>377.5</ele>
        <time>2024-01-14T14:29:29.878Z</time>
      </trkpt>
      <trkpt lat="43.57157" lon="6.301">
        <ele>377.5</ele>
        <time>2024-01-14T14:29:30.674Z</time>
      </trkpt>
      <trkpt lat="43.57158" lon="6.301">
        <ele>377</ele>
        <time>2024-01-14T14:29:31.637Z</time>
      </trkpt>
      <trkpt lat="43.57159" lon="6.30097">
        <ele>376.3</ele>
        <time>2024-01-14T14:29:33.938Z</time>
      </trkpt>
      <trkpt lat="43.57159" lon="6.30096">
        <ele>376.3</ele>
        <time>2024-01-14T14:29:34.735Z</time>
      </trkpt>
      <trkpt lat="43.57161" lon="6.30094">
        <ele>375.1</ele>
        <time>2024-01-14T14:29:37.111Z</time>
      </trkpt>
      <trkpt lat="43.57162" lon="6.30095">
        <ele>374.7</ele>
        <time>2024-01-14T14:29:38.299Z</time>
      </trkpt>
      <trkpt lat="43.57164" lon="6.30096">
        <ele>373.7</ele>
        <time>2024-01-14T14:29:40.346Z</time>
      </trkpt>
      <trkpt lat="43.57165" lon="6.30096">
        <ele>373.2</ele>
        <time>2024-01-14T14:29:41.308Z</time>
      </trkpt>
      <trkpt lat="43.57166" lon="6.30098">
        <ele>372.9</ele>
        <time>2024-01-14T14:29:43.001Z</time>
      </trkpt>
      <trkpt lat="43.57168" lon="6.30099">
        <ele>373</ele>
        <time>2024-01-14T14:29:45.716Z</time>
      </trkpt>
      <trkpt lat="43.57169" lon="6.301">
        <ele>373.3</ele>
        <time>2024-01-14T14:29:48.957Z</time>
      </trkpt>
      <trkpt lat="43.57171" lon="6.30101">
        <ele>373.9</ele>
        <time>2024-01-14T14:29:55.515Z</time>
      </trkpt>
      <trkpt lat="43.57172" lon="6.301">
        <ele>374</ele>
        <time>2024-01-14T14:29:57.280Z</time>
      </trkpt>
      <trkpt lat="43.57174" lon="6.301">
        <ele>374.4</ele>
        <time>2024-01-14T14:30:01.700Z</time>
      </trkpt>
      <trkpt lat="43.57176" lon="6.30099">
        <ele>374.7</ele>
        <time>2024-01-14T14:30:05.460Z</time>
      </trkpt>
      <trkpt lat="43.57179" lon="6.30098">
        <ele>375.1</ele>
        <time>2024-01-14T14:30:10.693Z</time>
      </trkpt>
      <trkpt lat="43.57182" lon="6.30097">
        <ele>375.5</ele>
        <time>2024-01-14T14:30:15.925Z</time>
      </trkpt>
      <trkpt lat="43.57184" lon="6.30097">
        <ele>375.9</ele>
        <time>2024-01-14T14:30:20.346Z</time>
      </trkpt>
      <trkpt lat="43.57187" lon="6.30097">
        <ele>376.5</ele>
        <time>2024-01-14T14:30:26.977Z</time>
      </trkpt>
      <trkpt lat="43.57189" lon="6.30098">
        <ele>377.2</ele>
        <time>2024-01-14T14:30:34.956Z</time>
      </trkpt>
      <trkpt lat="43.57192" lon="6.30098">
        <ele>377.8</ele>
        <time>2024-01-14T14:30:41.587Z</time>
      </trkpt>
      <trkpt lat="43.57192" lon="6.301">
        <ele>378.5</ele>
        <time>2024-01-14T14:30:49.951Z</time>
      </trkpt>
      <trkpt lat="43.57191" lon="6.30104">
        <ele>379.5</ele>
        <time>2024-01-14T14:31:01.313Z</time>
      </trkpt>
      <trkpt lat="43.57191" lon="6.30105">
        <ele>379.9</ele>
        <time>2024-01-14T14:31:05.495Z</time>
      </trkpt>
      <trkpt lat="43.57191" lon="6.30109">
        <ele>381.2</ele>
        <time>2024-01-14T14:31:22.224Z</time>
      </trkpt>
      <trkpt lat="43.5719" lon="6.30111">
        <ele>381.5</ele>
        <time>2024-01-14T14:31:25.696Z</time>
      </trkpt>
      <trkpt lat="43.57189" lon="6.30114">
        <ele>382</ele>
        <time>2024-01-14T14:31:31.174Z</time>
      </trkpt>
      <trkpt lat="43.57189" lon="6.30116">
        <ele>382.5</ele>
        <time>2024-01-14T14:31:36.980Z</time>
      </trkpt>
      <trkpt lat="43.57188" lon="6.30119">
        <ele>382.9</ele>
        <time>2024-01-14T14:31:41.642Z</time>
      </trkpt>
      <trkpt lat="43.57187" lon="6.30122">
        <ele>383.3</ele>
        <time>2024-01-14T14:31:46.303Z</time>
      </trkpt>
      <trkpt lat="43.57185" lon="6.30124">
        <ele>383</ele>
        <time>2024-01-14T14:31:48.679Z</time>
      </trkpt>
      <trkpt lat="43.57184" lon="6.30128">
        <ele>383.6</ele>
        <time>2024-01-14T14:31:55.343Z</time>
      </trkpt>
      <trkpt lat="43.57183" lon="6.3013">
        <ele>383.6</ele>
        <time>2024-01-14T14:31:57.279Z</time>
      </trkpt>
      <trkpt lat="43.57186" lon="6.3013">
        <ele>384.9</ele>
        <time>2024-01-14T14:32:14.030Z</time>
      </trkpt>
      <trkpt lat="43.57189" lon="6.3013">
        <ele>386.1</ele>
        <time>2024-01-14T14:32:28.955Z</time>
      </trkpt>
      <trkpt lat="43.57191" lon="6.30131">
        <ele>387.3</ele>
        <time>2024-01-14T14:32:41.234Z</time>
      </trkpt>
      <trkpt lat="43.57194" lon="6.30131">
        <ele>388.5</ele>
        <time>2024-01-14T14:32:56.160Z</time>
      </trkpt>
      <trkpt lat="43.57197" lon="6.3013">
        <ele>387.6</ele>
        <time>2024-01-14T14:32:59.129Z</time>
      </trkpt>
      <trkpt lat="43.57199" lon="6.30131">
        <ele>387.2</ele>
        <time>2024-01-14T14:33:01.175Z</time>
      </trkpt>
      <trkpt lat="43.57201" lon="6.30133">
        <ele>387.1</ele>
        <time>2024-01-14T14:33:03.580Z</time>
      </trkpt>
      <trkpt lat="43.57205" lon="6.30136">
        <ele>386.7</ele>
        <time>2024-01-14T14:33:07.960Z</time>
      </trkpt>
      <trkpt lat="43.57207" lon="6.30139">
        <ele>387</ele>
        <time>2024-01-14T14:33:12.492Z</time>
      </trkpt>
      <trkpt lat="43.57209" lon="6.30143">
        <ele>387</ele>
        <time>2024-01-14T14:33:16.364Z</time>
      </trkpt>
      <trkpt lat="43.57211" lon="6.30146">
        <ele>387</ele>
        <time>2024-01-14T14:33:19.612Z</time>
      </trkpt>
      <trkpt lat="43.57212" lon="6.30149">
        <ele>387.2</ele>
        <time>2024-01-14T14:33:23.062Z</time>
      </trkpt>
      <trkpt lat="43.57214" lon="6.30153">
        <ele>387.4</ele>
        <time>2024-01-14T14:33:27.703Z</time>
      </trkpt>
      <trkpt lat="43.57216" lon="6.30157">
        <ele>387.6</ele>
        <time>2024-01-14T14:33:32.343Z</time>
      </trkpt>
      <trkpt lat="43.57218" lon="6.30163">
        <ele>388.3</ele>
        <time>2024-01-14T14:33:40.966Z</time>
      </trkpt>
      <trkpt lat="43.5722" lon="6.30166">
        <ele>388.4</ele>
        <time>2024-01-14T14:33:44.578Z</time>
      </trkpt>
      <trkpt lat="43.57225" lon="6.30171">
        <ele>388.7</ele>
        <time>2024-01-14T14:33:52.499Z</time>
      </trkpt>
      <trkpt lat="43.5723" lon="6.30176">
        <ele>389.4</ele>
        <time>2024-01-14T14:34:02.375Z</time>
      </trkpt>
      <trkpt lat="43.57236" lon="6.30179">
        <ele>389.5</ele>
        <time>2024-01-14T14:34:09.742Z</time>
      </trkpt>
      <trkpt lat="43.5724" lon="6.30181">
        <ele>389.5</ele>
        <time>2024-01-14T14:34:14.420Z</time>
      </trkpt>
      <trkpt lat="43.57244" lon="6.3018">
        <ele>388.9</ele>
        <time>2024-01-14T14:34:18.331Z</time>
      </trkpt>
      <trkpt lat="43.57245" lon="6.30177">
        <ele>388.3</ele>
        <time>2024-01-14T14:34:20.633Z</time>
      </trkpt>
      <trkpt lat="43.57247" lon="6.30177">
        <ele>388.1</ele>
        <time>2024-01-14T14:34:22.557Z</time>
      </trkpt>
      <trkpt lat="43.57251" lon="6.3017">
        <ele>386.8</ele>
        <time>2024-01-14T14:34:28.771Z</time>
      </trkpt>
      <trkpt lat="43.57251" lon="6.30166">
        <ele>386.2</ele>
        <time>2024-01-14T14:34:31.559Z</time>
      </trkpt>
      <trkpt lat="43.57252" lon="6.30163">
        <ele>386.3</ele>
        <time>2024-01-14T14:34:34.561Z</time>
      </trkpt>
      <trkpt lat="43.57253" lon="6.3016">
        <ele>386.5</ele>
        <time>2024-01-14T14:34:38.011Z</time>
      </trkpt>
      <trkpt lat="43.57255" lon="6.30156">
        <ele>386.9</ele>
        <time>2024-01-14T14:34:43.649Z</time>
      </trkpt>
      <trkpt lat="43.57255" lon="6.30153">
        <ele>386.9</ele>
        <time>2024-01-14T14:34:46.038Z</time>
      </trkpt>
      <trkpt lat="43.57255" lon="6.3015">
        <ele>386.8</ele>
        <time>2024-01-14T14:34:48.130Z</time>
      </trkpt>
      <trkpt lat="43.57253" lon="6.30144">
        <ele>386.1</ele>
        <time>2024-01-14T14:34:52.733Z</time>
      </trkpt>
      <trkpt lat="43.57251" lon="6.30138">
        <ele>385.3</ele>
        <time>2024-01-14T14:34:57.337Z</time>
      </trkpt>
      <trkpt lat="43.57248" lon="6.30132">
        <ele>384.4</ele>
        <time>2024-01-14T14:35:02.418Z</time>
      </trkpt>
      <trkpt lat="43.57245" lon="6.30128">
        <ele>383.4</ele>
        <time>2024-01-14T14:35:06.431Z</time>
      </trkpt>
      <trkpt lat="43.57242" lon="6.30123">
        <ele>382.1</ele>
        <time>2024-01-14T14:35:10.956Z</time>
      </trkpt>
      <trkpt lat="43.57239" lon="6.30118">
        <ele>380.4</ele>
        <time>2024-01-14T14:35:15.481Z</time>
      </trkpt>
      <trkpt lat="43.57236" lon="6.30113">
        <ele>378.3</ele>
        <time>2024-01-14T14:35:20.006Z</time>
      </trkpt>
      <trkpt lat="43.57233" lon="6.30107">
        <ele>377</ele>
        <time>2024-01-14T14:35:25.088Z</time>
      </trkpt>
      <trkpt lat="43.57232" lon="6.30102">
        <ele>377.1</ele>
        <time>2024-01-14T14:35:29.579Z</time>
      </trkpt>
      <trkpt lat="43.57231" lon="6.30096">
        <ele>377.3</ele>
        <time>2024-01-14T14:35:35.231Z</time>
      </trkpt>
      <trkpt lat="43.5723" lon="6.30089">
        <ele>377.7</ele>
        <time>2024-01-14T14:35:42.530Z</time>
      </trkpt>
      <trkpt lat="43.57228" lon="6.30083">
        <ele>377.6</ele>
        <time>2024-01-14T14:35:47.467Z</time>
      </trkpt>
      <trkpt lat="43.57226" lon="6.30079">
        <ele>376.9</ele>
        <time>2024-01-14T14:35:50.855Z</time>
      </trkpt>
      <trkpt lat="43.57224" lon="6.30073">
        <ele>375.9</ele>
        <time>2024-01-14T14:35:55.458Z</time>
      </trkpt>
      <trkpt lat="43.57222" lon="6.30068">
        <ele>374.8</ele>
        <time>2024-01-14T14:35:59.439Z</time>
      </trkpt>
      <trkpt lat="43.5722" lon="6.30063">
        <ele>373.9</ele>
        <time>2024-01-14T14:36:03.421Z</time>
      </trkpt>
      <trkpt lat="43.57218" lon="6.30058">
        <ele>372.9</ele>
        <time>2024-01-14T14:36:07.402Z</time>
      </trkpt>
      <trkpt lat="43.57216" lon="6.30052">
        <ele>371.8</ele>
        <time>2024-01-14T14:36:12.005Z</time>
      </trkpt>
      <trkpt lat="43.57215" lon="6.30046">
        <ele>371.1</ele>
        <time>2024-01-14T14:36:16.297Z</time>
      </trkpt>
      <trkpt lat="43.57215" lon="6.3004">
        <ele>370.7</ele>
        <time>2024-01-14T14:36:20.479Z</time>
      </trkpt>
      <trkpt lat="43.57216" lon="6.30034">
        <ele>370.6</ele>
        <time>2024-01-14T14:36:25.061Z</time>
      </trkpt>
      <trkpt lat="43.57218" lon="6.30027">
        <ele>370.7</ele>
        <time>2024-01-14T14:36:31.407Z</time>
      </trkpt>
      <trkpt lat="43.5722" lon="6.3002">
        <ele>369.9</ele>
        <time>2024-01-14T14:36:36.652Z</time>
      </trkpt>
      <trkpt lat="43.57223" lon="6.30013">
        <ele>369.2</ele>
        <time>2024-01-14T14:36:42.321Z</time>
      </trkpt>
      <trkpt lat="43.57226" lon="6.30007">
        <ele>369.3</ele>
        <time>2024-01-14T14:36:48.481Z</time>
      </trkpt>
      <trkpt lat="43.5723" lon="6.30001">
        <ele>369.9</ele>
        <time>2024-01-14T14:36:57.546Z</time>
        <extensions>
          <visugpx:TrkExtension xmlns:visugpx="https://www.visugpx.com/editgpx/">
            <visugpx:node>2</visugpx:node>
            </visugpx:TrkExtension>
        </extensions>
      </trkpt>
      <trkpt lat="43.5723" lon="6.30001">
        <ele>369.9</ele>
        <time>2024-01-14T14:36:57.546Z</time>
      </trkpt>
      <trkpt lat="43.57234" lon="6.29995">
        <ele>370.5</ele>
        <time>2024-01-14T14:37:06.611Z</time>
      </trkpt>
      <trkpt lat="43.57237" lon="6.29989">
        <ele>370.5</ele>
        <time>2024-01-14T14:37:12.419Z</time>
      </trkpt>
      <trkpt lat="43.57241" lon="6.29982">
        <ele>370.2</ele>
        <time>2024-01-14T14:37:18.633Z</time>
      </trkpt>
      <trkpt lat="43.57244" lon="6.29977">
        <ele>369.8</ele>
        <time>2024-01-14T14:37:23.158Z</time>
      </trkpt>
      <trkpt lat="43.57246" lon="6.2997">
        <ele>368.6</ele>
        <time>2024-01-14T14:37:28.403Z</time>
      </trkpt>
      <trkpt lat="43.57249" lon="6.29963">
        <ele>367.9</ele>
        <time>2024-01-14T14:37:34.072Z</time>
      </trkpt>
      <trkpt lat="43.57251" lon="6.29956">
        <ele>367</ele>
        <time>2024-01-14T14:37:39.317Z</time>
      </trkpt>
      <trkpt lat="43.57254" lon="6.29949">
        <ele>367</ele>
        <time>2024-01-14T14:37:45.795Z</time>
      </trkpt>
      <trkpt lat="43.57255" lon="6.29942">
        <ele>366.3</ele>
        <time>2024-01-14T14:37:50.768Z</time>
      </trkpt>
      <trkpt lat="43.57256" lon="6.29935">
        <ele>366.1</ele>
        <time>2024-01-14T14:37:55.828Z</time>
      </trkpt>
      <trkpt lat="43.57256" lon="6.29927">
        <ele>365.2</ele>
        <time>2024-01-14T14:38:01.404Z</time>
      </trkpt>
      <trkpt lat="43.57257" lon="6.29919">
        <ele>364.8</ele>
        <time>2024-01-14T14:38:07.063Z</time>
      </trkpt>
      <trkpt lat="43.57258" lon="6.29911">
        <ele>364.6</ele>
        <time>2024-01-14T14:38:12.900Z</time>
      </trkpt>
      <trkpt lat="43.57259" lon="6.29905">
        <ele>364.5</ele>
        <time>2024-01-14T14:38:17.482Z</time>
      </trkpt>
      <trkpt lat="43.57261" lon="6.299">
        <ele>364.9</ele>
        <time>2024-01-14T14:38:23.724Z</time>
      </trkpt>
      <trkpt lat="43.57262" lon="6.29897">
        <ele>365</ele>
        <time>2024-01-14T14:38:26.726Z</time>
      </trkpt>
      <trkpt lat="43.57262" lon="6.29889">
        <ele>364.5</ele>
        <time>2024-01-14T14:38:32.302Z</time>
      </trkpt>
      <trkpt lat="43.57261" lon="6.2988">
        <ele>365</ele>
        <time>2024-01-14T14:38:41.566Z</time>
      </trkpt>
      <trkpt lat="43.5726" lon="6.29873">
        <ele>365.1</ele>
        <time>2024-01-14T14:38:48.116Z</time>
      </trkpt>
      <trkpt lat="43.57258" lon="6.29865">
        <ele>365.2</ele>
        <time>2024-01-14T14:38:54.666Z</time>
      </trkpt>
      <trkpt lat="43.57256" lon="6.29857">
        <ele>365</ele>
        <time>2024-01-14T14:39:00.776Z</time>
      </trkpt>
      <trkpt lat="43.57254" lon="6.29848">
        <ele>364.8</ele>
        <time>2024-01-14T14:39:07.639Z</time>
      </trkpt>
      <trkpt lat="43.57253" lon="6.29841">
        <ele>364.9</ele>
        <time>2024-01-14T14:39:13.675Z</time>
      </trkpt>
      <trkpt lat="43.57251" lon="6.29832">
        <ele>364.7</ele>
        <time>2024-01-14T14:39:20.538Z</time>
      </trkpt>
      <trkpt lat="43.57249" lon="6.29824">
        <ele>365.1</ele>
        <time>2024-01-14T14:39:28.849Z</time>
      </trkpt>
      <trkpt lat="43.57247" lon="6.29816">
        <ele>365.6</ele>
        <time>2024-01-14T14:39:37.629Z</time>
      </trkpt>
      <trkpt lat="43.57246" lon="6.2981">
        <ele>366</ele>
        <time>2024-01-14T14:39:44.198Z</time>
      </trkpt>
      <trkpt lat="43.57244" lon="6.29801">
        <ele>365.8</ele>
        <time>2024-01-14T14:39:51.060Z</time>
      </trkpt>
      <trkpt lat="43.57243" lon="6.29794">
        <ele>365.7</ele>
        <time>2024-01-14T14:39:56.419Z</time>
      </trkpt>
      <trkpt lat="43.57242" lon="6.29785">
        <ele>365.7</ele>
        <time>2024-01-14T14:40:03.673Z</time>
      </trkpt>
      <trkpt lat="43.57241" lon="6.29778">
        <ele>365.5</ele>
        <time>2024-01-14T14:40:08.732Z</time>
      </trkpt>
      <trkpt lat="43.5724" lon="6.29771">
        <ele>365</ele>
        <time>2024-01-14T14:40:13.705Z</time>
      </trkpt>
      <trkpt lat="43.5724" lon="6.29763">
        <ele>365</ele>
        <time>2024-01-14T14:40:20.078Z</time>
      </trkpt>
      <trkpt lat="43.5724" lon="6.29756">
        <ele>365</ele>
        <time>2024-01-14T14:40:25.654Z</time>
      </trkpt>
      <trkpt lat="43.57238" lon="6.29758">
        <ele>364.2</ele>
        <time>2024-01-14T14:40:28.030Z</time>
      </trkpt>
      <trkpt lat="43.57237" lon="6.29764">
        <ele>363.6</ele>
        <time>2024-01-14T14:40:32.322Z</time>
      </trkpt>
      <trkpt lat="43.57237" lon="6.29771">
        <ele>363.5</ele>
        <time>2024-01-14T14:40:37.574Z</time>
      </trkpt>
      <trkpt lat="43.57234" lon="6.29774">
        <ele>362</ele>
        <time>2024-01-14T14:40:41.138Z</time>
      </trkpt>
      <trkpt lat="43.57233" lon="6.29773">
        <ele>361.6</ele>
        <time>2024-01-14T14:40:42.326Z</time>
      </trkpt>
      <trkpt lat="43.57231" lon="6.29769">
        <ele>360.8</ele>
        <time>2024-01-14T14:40:45.713Z</time>
      </trkpt>
      <trkpt lat="43.5723" lon="6.2977">
        <ele>360.2</ele>
        <time>2024-01-14T14:40:46.901Z</time>
      </trkpt>
      <trkpt lat="43.57229" lon="6.29775">
        <ele>359.5</ele>
        <time>2024-01-14T14:40:50.517Z</time>
      </trkpt>
      <trkpt lat="43.57228" lon="6.29779">
        <ele>358.9</ele>
        <time>2024-01-14T14:40:53.466Z</time>
      </trkpt>
      <trkpt lat="43.57228" lon="6.29788">
        <ele>359.1</ele>
        <time>2024-01-14T14:41:01.360Z</time>
      </trkpt>
      <trkpt lat="43.5723" lon="6.29794">
        <ele>359.8</ele>
        <time>2024-01-14T14:41:09.830Z</time>
      </trkpt>
      <trkpt lat="43.57231" lon="6.298">
        <ele>360.5</ele>
        <time>2024-01-14T14:41:18.301Z</time>
      </trkpt>
      <trkpt lat="43.57232" lon="6.29807">
        <ele>360.9</ele>
        <time>2024-01-14T14:41:25.599Z</time>
      </trkpt>
      <trkpt lat="43.57232" lon="6.29807">
        <ele>360.9</ele>
        <time>2024-01-14T14:41:25.599Z</time>
      </trkpt>
      <trkpt lat="43.57226" lon="6.2981">
        <ele>359</ele>
        <time>2024-01-14T14:41:31.739Z</time>
      </trkpt>
      <trkpt lat="43.57226" lon="6.29814">
        <ele>359.4</ele>
        <time>2024-01-14T14:41:36.805Z</time>
      </trkpt>
      <trkpt lat="43.57225" lon="6.29816">
        <ele>359.3</ele>
        <time>2024-01-14T14:41:38.499Z</time>
      </trkpt>
      <trkpt lat="43.57221" lon="6.29807">
        <ele>357.8</ele>
        <time>2024-01-14T14:41:45.858Z</time>
      </trkpt>
      <trkpt lat="43.57219" lon="6.29801">
        <ele>358.5</ele>
        <time>2024-01-14T14:41:54.481Z</time>
      </trkpt>
      <trkpt lat="43.57216" lon="6.29796">
        <ele>359.8</ele>
        <time>2024-01-14T14:42:08.644Z</time>
      </trkpt>
      <trkpt lat="43.57212" lon="6.29789">
        <ele>361.6</ele>
        <time>2024-01-14T14:42:28.278Z</time>
      </trkpt>
      <trkpt lat="43.5721" lon="6.29789">
        <ele>362.6</ele>
        <time>2024-01-14T14:42:39.823Z</time>
      </trkpt>
      <trkpt lat="43.5721" lon="6.29785">
        <ele>362.4</ele>
        <time>2024-01-14T14:42:42.611Z</time>
      </trkpt>
      <trkpt lat="43.57209" lon="6.29778">
        <ele>362.7</ele>
        <time>2024-01-14T14:42:49.452Z</time>
      </trkpt>
      <trkpt lat="43.57207" lon="6.2977">
        <ele>363.3</ele>
        <time>2024-01-14T14:42:58.740Z</time>
      </trkpt>
      <trkpt lat="43.57207" lon="6.29768">
        <ele>363.2</ele>
        <time>2024-01-14T14:43:00.134Z</time>
      </trkpt>
      <trkpt lat="43.57205" lon="6.29769">
        <ele>364.1</ele>
        <time>2024-01-14T14:43:11.631Z</time>
        <extensions>
          <visugpx:TrkExtension xmlns:visugpx="https://www.visugpx.com/editgpx/">
            <visugpx:node>3</visugpx:node>
            </visugpx:TrkExtension>
        </extensions>
      </trkpt>
      <trkpt lat="43.57205" lon="6.29764">
        <ele>363.8</ele>
        <time>2024-01-14T14:43:15.302Z</time>
      </trkpt>
      <trkpt lat="43.57202" lon="6.29757">
        <ele>364.4</ele>
        <time>2024-01-14T14:43:24.353Z</time>
      </trkpt>
      <trkpt lat="43.57198" lon="6.29749">
        <ele>364.8</ele>
        <time>2024-01-14T14:43:33.634Z</time>
      </trkpt>
      <trkpt lat="43.57197" lon="6.29742">
        <ele>364</ele>
        <time>2024-01-14T14:43:38.607Z</time>
      </trkpt>
      <trkpt lat="43.57195" lon="6.29735">
        <ele>363.2</ele>
        <time>2024-01-14T14:43:43.852Z</time>
      </trkpt>
      <trkpt lat="43.57193" lon="6.29729">
        <ele>362.9</ele>
        <time>2024-01-14T14:43:48.456Z</time>
      </trkpt>
      <trkpt lat="43.57191" lon="6.29722">
        <ele>362.7</ele>
        <time>2024-01-14T14:43:53.823Z</time>
      </trkpt>
      <trkpt lat="43.57191" lon="6.29714">
        <ele>362.4</ele>
        <time>2024-01-14T14:43:59.400Z</time>
      </trkpt>
      <trkpt lat="43.57191" lon="6.29706">
        <ele>362</ele>
        <time>2024-01-14T14:44:04.976Z</time>
      </trkpt>
      <trkpt lat="43.5719" lon="6.29699">
        <ele>362.1</ele>
        <time>2024-01-14T14:44:11.013Z</time>
      </trkpt>
      <trkpt lat="43.57189" lon="6.29692">
        <ele>362</ele>
        <time>2024-01-14T14:44:16.371Z</time>
      </trkpt>
      <trkpt lat="43.57187" lon="6.29684">
        <ele>361.8</ele>
        <time>2024-01-14T14:44:22.481Z</time>
      </trkpt>
      <trkpt lat="43.57185" lon="6.29676">
        <ele>361.4</ele>
        <time>2024-01-14T14:44:28.380Z</time>
      </trkpt>
      <trkpt lat="43.57182" lon="6.29671">
        <ele>361.7</ele>
        <time>2024-01-14T14:44:34.724Z</time>
      </trkpt>
      <trkpt lat="43.57179" lon="6.29665">
        <ele>361.7</ele>
        <time>2024-01-14T14:44:40.532Z</time>
      </trkpt>
      <trkpt lat="43.57177" lon="6.29659">
        <ele>361.1</ele>
        <time>2024-01-14T14:44:45.135Z</time>
      </trkpt>
      <trkpt lat="43.57175" lon="6.29653">
        <ele>360.2</ele>
        <time>2024-01-14T14:44:49.739Z</time>
      </trkpt>
      <trkpt lat="43.57173" lon="6.29646">
        <ele>359</ele>
        <time>2024-01-14T14:44:54.984Z</time>
      </trkpt>
      <trkpt lat="43.5717" lon="6.29639">
        <ele>357.7</ele>
        <time>2024-01-14T14:45:00.653Z</time>
      </trkpt>
      <trkpt lat="43.57168" lon="6.29633">
        <ele>357.2</ele>
        <time>2024-01-14T14:45:05.256Z</time>
      </trkpt>
      <trkpt lat="43.57165" lon="6.29626">
        <ele>357.1</ele>
        <time>2024-01-14T14:45:11.409Z</time>
      </trkpt>
      <trkpt lat="43.57159" lon="6.29618">
        <ele>357.5</ele>
        <time>2024-01-14T14:45:22.088Z</time>
      </trkpt>
      <trkpt lat="43.57155" lon="6.29614">
        <ele>357.7</ele>
        <time>2024-01-14T14:45:28.260Z</time>
      </trkpt>
      <trkpt lat="43.57151" lon="6.29609">
        <ele>357.4</ele>
        <time>2024-01-14T14:45:33.452Z</time>
      </trkpt>
      <trkpt lat="43.57146" lon="6.29604">
        <ele>357.4</ele>
        <time>2024-01-14T14:45:40.241Z</time>
      </trkpt>
      <trkpt lat="43.57141" lon="6.29599">
        <ele>357.4</ele>
        <time>2024-01-14T14:45:47.030Z</time>
      </trkpt>
      <trkpt lat="43.57138" lon="6.29594">
        <ele>357.1</ele>
        <time>2024-01-14T14:45:51.555Z</time>
      </trkpt>
      <trkpt lat="43.57135" lon="6.29589">
        <ele>356.6</ele>
        <time>2024-01-14T14:45:56.080Z</time>
      </trkpt>
      <trkpt lat="43.57131" lon="6.29584">
        <ele>356.3</ele>
        <time>2024-01-14T14:46:01.272Z</time>
      </trkpt>
      <trkpt lat="43.57127" lon="6.29578">
        <ele>355.9</ele>
        <time>2024-01-14T14:46:06.955Z</time>
      </trkpt>
      <trkpt lat="43.57125" lon="6.29578">
        <ele>356</ele>
        <time>2024-01-14T14:46:09.390Z</time>
        <extensions>
          <visugpx:TrkExtension xmlns:visugpx="https://www.visugpx.com/editgpx/">
            <visugpx:node>4</visugpx:node>
            </visugpx:TrkExtension>
        </extensions>
      </trkpt>
      <trkpt lat="43.57124" lon="6.29579">
        <ele>356.4</ele>
        <time>2024-01-14T14:46:13.712Z</time>
      </trkpt>
      <trkpt lat="43.57122" lon="6.29577">
        <ele>356.4</ele>
        <time>2024-01-14T14:46:16.427Z</time>
      </trkpt>
      <trkpt lat="43.57123" lon="6.29574">
        <ele>355.8</ele>
        <time>2024-01-14T14:46:18.729Z</time>
      </trkpt>
      <trkpt lat="43.57124" lon="6.29571">
        <ele>355.1</ele>
        <time>2024-01-14T14:46:21.031Z</time>
      </trkpt>
      <trkpt lat="43.57127" lon="6.29568">
        <ele>354.3</ele>
        <time>2024-01-14T14:46:24.595Z</time>
      </trkpt>
      <trkpt lat="43.5713" lon="6.29563">
        <ele>353.1</ele>
        <time>2024-01-14T14:46:29.120Z</time>
      </trkpt>
      <trkpt lat="43.57132" lon="6.29561">
        <ele>352.6</ele>
        <time>2024-01-14T14:46:31.496Z</time>
      </trkpt>
      <trkpt lat="43.57133" lon="6.29559">
        <ele>352.2</ele>
        <time>2024-01-14T14:46:33.190Z</time>
      </trkpt>
      <trkpt lat="43.57134" lon="6.29552">
        <ele>351.1</ele>
        <time>2024-01-14T14:46:38.163Z</time>
      </trkpt>
      <trkpt lat="43.57133" lon="6.29549">
        <ele>350.8</ele>
        <time>2024-01-14T14:46:40.465Z</time>
      </trkpt>
      <trkpt lat="43.57133" lon="6.29542">
        <ele>350</ele>
        <time>2024-01-14T14:46:45.344Z</time>
      </trkpt>
      <trkpt lat="43.57131" lon="6.29539">
        <ele>349.7</ele>
        <time>2024-01-14T14:46:48.186Z</time>
      </trkpt>
      <trkpt lat="43.57131" lon="6.29535">
        <ele>349.2</ele>
        <time>2024-01-14T14:46:50.974Z</time>
      </trkpt>
      <trkpt lat="43.57131" lon="6.29532">
        <ele>348.8</ele>
        <time>2024-01-14T14:46:53.065Z</time>
      </trkpt>
      <trkpt lat="43.57129" lon="6.29527">
        <ele>348.4</ele>
        <time>2024-01-14T14:46:57.046Z</time>
      </trkpt>
      <trkpt lat="43.57129" lon="6.29524">
        <ele>348.5</ele>
        <time>2024-01-14T14:46:59.811Z</time>
      </trkpt>
      <trkpt lat="43.5713" lon="6.29521">
        <ele>348.6</ele>
        <time>2024-01-14T14:47:02.813Z</time>
      </trkpt>
      <trkpt lat="43.57131" lon="6.29518">
        <ele>348.7</ele>
        <time>2024-01-14T14:47:05.815Z</time>
      </trkpt>
      <trkpt lat="43.5713" lon="6.29515">
        <ele>348.8</ele>
        <time>2024-01-14T14:47:08.818Z</time>
      </trkpt>
      <trkpt lat="43.57129" lon="6.29513">
        <ele>348.9</ele>
        <time>2024-01-14T14:47:11.138Z</time>
      </trkpt>
      <trkpt lat="43.57128" lon="6.2951">
        <ele>348.9</ele>
        <time>2024-01-14T14:47:13.769Z</time>
      </trkpt>
      <trkpt lat="43.57126" lon="6.29507">
        <ele>348.9</ele>
        <time>2024-01-14T14:47:17.016Z</time>
      </trkpt>
      <trkpt lat="43.57124" lon="6.29506">
        <ele>348.8</ele>
        <time>2024-01-14T14:47:19.063Z</time>
      </trkpt>
      <trkpt lat="43.57121" lon="6.29505">
        <ele>348.7</ele>
        <time>2024-01-14T14:47:22.140Z</time>
      </trkpt>
      <trkpt lat="43.57118" lon="6.29504">
        <ele>348.5</ele>
        <time>2024-01-14T14:47:25.109Z</time>
      </trkpt>
      <trkpt lat="43.57116" lon="6.29503">
        <ele>348.4</ele>
        <time>2024-01-14T14:47:27.156Z</time>
      </trkpt>
      <trkpt lat="43.57113" lon="6.29502">
        <ele>348.2</ele>
        <time>2024-01-14T14:47:30.125Z</time>
      </trkpt>
      <trkpt lat="43.5711" lon="6.29502">
        <ele>347.9</ele>
        <time>2024-01-14T14:47:33.011Z</time>
      </trkpt>
      <trkpt lat="43.57108" lon="6.29502">
        <ele>347.6</ele>
        <time>2024-01-14T14:47:34.935Z</time>
      </trkpt>
      <trkpt lat="43.57105" lon="6.29502">
        <ele>347.2</ele>
        <time>2024-01-14T14:47:37.822Z</time>
      </trkpt>
      <trkpt lat="43.57103" lon="6.29502">
        <ele>346.9</ele>
        <time>2024-01-14T14:47:39.746Z</time>
      </trkpt>
      <trkpt lat="43.57102" lon="6.29502">
        <ele>346.8</ele>
        <time>2024-01-14T14:47:40.708Z</time>
      </trkpt>
      <trkpt lat="43.57099" lon="6.29502">
        <ele>346.4</ele>
        <time>2024-01-14T14:47:43.594Z</time>
      </trkpt>
      <trkpt lat="43.57097" lon="6.29501">
        <ele>346</ele>
        <time>2024-01-14T14:47:45.641Z</time>
      </trkpt>
      <trkpt lat="43.57095" lon="6.295">
        <ele>345.7</ele>
        <time>2024-01-14T14:47:47.687Z</time>
      </trkpt>
      <trkpt lat="43.57093" lon="6.29499">
        <ele>344.9</ele>
        <time>2024-01-14T14:47:49.734Z</time>
      </trkpt>
      <trkpt lat="43.5709" lon="6.29497">
        <ele>343.3</ele>
        <time>2024-01-14T14:47:52.939Z</time>
      </trkpt>
      <trkpt lat="43.57088" lon="6.29497">
        <ele>342.9</ele>
        <time>2024-01-14T14:47:54.863Z</time>
      </trkpt>
      <trkpt lat="43.57086" lon="6.29495">
        <ele>341.2</ele>
        <time>2024-01-14T14:47:57.239Z</time>
      </trkpt>
      <trkpt lat="43.57084" lon="6.29494">
        <ele>340.1</ele>
        <time>2024-01-14T14:47:59.286Z</time>
      </trkpt>
      <trkpt lat="43.57082" lon="6.29492">
        <ele>338.6</ele>
        <time>2024-01-14T14:48:01.662Z</time>
      </trkpt>
      <trkpt lat="43.5708" lon="6.29491">
        <ele>338.1</ele>
        <time>2024-01-14T14:48:03.708Z</time>
      </trkpt>
      <trkpt lat="43.57078" lon="6.29489">
        <ele>337.2</ele>
        <time>2024-01-14T14:48:06.084Z</time>
      </trkpt>
      <trkpt lat="43.57076" lon="6.29487">
        <ele>336.4</ele>
        <time>2024-01-14T14:48:08.460Z</time>
      </trkpt>
      <trkpt lat="43.57074" lon="6.29485">
        <ele>335.8</ele>
        <time>2024-01-14T14:48:10.837Z</time>
      </trkpt>
      <trkpt lat="43.57072" lon="6.29483">
        <ele>335.4</ele>
        <time>2024-01-14T14:48:13.213Z</time>
      </trkpt>
      <trkpt lat="43.5707" lon="6.29481">
        <ele>335.1</ele>
        <time>2024-01-14T14:48:15.589Z</time>
      </trkpt>
      <trkpt lat="43.57068" lon="6.29479">
        <ele>335.1</ele>
        <time>2024-01-14T14:48:18.304Z</time>
      </trkpt>
      <trkpt lat="43.57066" lon="6.29478">
        <ele>335.5</ele>
        <time>2024-01-14T14:48:22.792Z</time>
      </trkpt>
      <trkpt lat="43.57064" lon="6.29476">
        <ele>335.7</ele>
        <time>2024-01-14T14:48:26.323Z</time>
      </trkpt>
      <trkpt lat="43.57062" lon="6.29473">
        <ele>335.9</ele>
        <time>2024-01-14T14:48:30.359Z</time>
      </trkpt>
      <trkpt lat="43.57059" lon="6.29471">
        <ele>336.8</ele>
        <time>2024-01-14T14:48:40.135Z</time>
      </trkpt>
      <trkpt lat="43.57058" lon="6.29469">
        <ele>336.4</ele>
        <time>2024-01-14T14:48:41.828Z</time>
      </trkpt>
      <trkpt lat="43.57056" lon="6.29469">
        <ele>337.3</ele>
        <time>2024-01-14T14:48:53.373Z</time>
      </trkpt>
      <trkpt lat="43.57053" lon="6.29468">
        <ele>337</ele>
        <time>2024-01-14T14:48:56.343Z</time>
      </trkpt>
      <trkpt lat="43.57051" lon="6.29468">
        <ele>337</ele>
        <time>2024-01-14T14:48:58.542Z</time>
      </trkpt>
      <trkpt lat="43.57048" lon="6.29468">
        <ele>336.9</ele>
        <time>2024-01-14T14:49:01.525Z</time>
      </trkpt>
      <trkpt lat="43.57046" lon="6.29468">
        <ele>336.9</ele>
        <time>2024-01-14T14:49:03.724Z</time>
      </trkpt>
      <trkpt lat="43.57043" lon="6.29468">
        <ele>336.9</ele>
        <time>2024-01-14T14:49:07.022Z</time>
      </trkpt>
      <trkpt lat="43.57041" lon="6.29468">
        <ele>336.9</ele>
        <time>2024-01-14T14:49:09.221Z</time>
      </trkpt>
      <trkpt lat="43.57038" lon="6.29469">
        <ele>337</ele>
        <time>2024-01-14T14:49:12.978Z</time>
      </trkpt>
      <trkpt lat="43.57035" lon="6.29469">
        <ele>337</ele>
        <time>2024-01-14T14:49:16.277Z</time>
      </trkpt>
      <trkpt lat="43.57033" lon="6.29469">
        <ele>336.9</ele>
        <time>2024-01-14T14:49:18.201Z</time>
      </trkpt>
      <trkpt lat="43.5703" lon="6.29469">
        <ele>336.8</ele>
        <time>2024-01-14T14:49:21.184Z</time>
      </trkpt>
      <trkpt lat="43.57028" lon="6.29469">
        <ele>336.8</ele>
        <time>2024-01-14T14:49:23.383Z</time>
      </trkpt>
      <trkpt lat="43.57027" lon="6.29468">
        <ele>336.8</ele>
        <time>2024-01-14T14:49:24.741Z</time>
      </trkpt>
      <trkpt lat="43.57025" lon="6.29467">
        <ele>336.9</ele>
        <time>2024-01-14T14:49:27.456Z</time>
      </trkpt>
      <trkpt lat="43.57024" lon="6.29461">
        <ele>336.4</ele>
        <time>2024-01-14T14:49:31.747Z</time>
      </trkpt>
      <trkpt lat="43.57023" lon="6.29454">
        <ele>335.9</ele>
        <time>2024-01-14T14:49:36.720Z</time>
      </trkpt>
      <trkpt lat="43.57022" lon="6.29447">
        <ele>335.2</ele>
        <time>2024-01-14T14:49:41.694Z</time>
      </trkpt>
      <trkpt lat="43.57022" lon="6.29443">
        <ele>334.6</ele>
        <time>2024-01-14T14:49:44.482Z</time>
      </trkpt>
      <trkpt lat="43.57022" lon="6.29439">
        <ele>333.4</ele>
        <time>2024-01-14T14:49:47.270Z</time>
      </trkpt>
      <trkpt lat="43.57021" lon="6.29436">
        <ele>332.6</ele>
        <time>2024-01-14T14:49:49.572Z</time>
      </trkpt>
      <trkpt lat="43.57019" lon="6.29433">
        <ele>331.9</ele>
        <time>2024-01-14T14:49:52.414Z</time>
      </trkpt>
      <trkpt lat="43.57018" lon="6.2943">
        <ele>331.2</ele>
        <time>2024-01-14T14:49:54.716Z</time>
      </trkpt>
      <trkpt lat="43.57016" lon="6.29428">
        <ele>330.9</ele>
        <time>2024-01-14T14:49:57.092Z</time>
      </trkpt>
      <trkpt lat="43.57014" lon="6.29427">
        <ele>330.9</ele>
        <time>2024-01-14T14:49:59.431Z</time>
      </trkpt>
      <trkpt lat="43.57013" lon="6.29426">
        <ele>330.8</ele>
        <time>2024-01-14T14:50:00.619Z</time>
        <extensions>
          <visugpx:TrkExtension xmlns:visugpx="https://www.visugpx.com/editgpx/">
            <visugpx:node>5</visugpx:node>
            </visugpx:TrkExtension>
        </extensions>
      </trkpt>
      <trkpt lat="43.57013" lon="6.29426">
        <ele>330.8</ele>
        <time>2024-01-14T14:50:00.619Z</time>
      </trkpt>
      <trkpt lat="43.57009" lon="6.29424">
        <ele>330.9</ele>
        <time>2024-01-14T14:50:05.653Z</time>
      </trkpt>
      <trkpt lat="43.57005" lon="6.29421">
        <ele>330.9</ele>
        <time>2024-01-14T14:50:10.658Z</time>
      </trkpt>
      <trkpt lat="43.57003" lon="6.29419">
        <ele>330.8</ele>
        <time>2024-01-14T14:50:13.063Z</time>
      </trkpt>
      <trkpt lat="43.57001" lon="6.29417">
        <ele>330.9</ele>
        <time>2024-01-14T14:50:16.149Z</time>
      </trkpt>
      <trkpt lat="43.56999" lon="6.29414">
        <ele>330.8</ele>
        <time>2024-01-14T14:50:19.081Z</time>
      </trkpt>
      <trkpt lat="43.56998" lon="6.29411">
        <ele>330.5</ele>
        <time>2024-01-14T14:50:21.383Z</time>
      </trkpt>
      <trkpt lat="43.56996" lon="6.29409">
        <ele>330.7</ele>
        <time>2024-01-14T14:50:24.913Z</time>
      </trkpt>
      <trkpt lat="43.56993" lon="6.29405">
        <ele>331</ele>
        <time>2024-01-14T14:50:30.695Z</time>
      </trkpt>
      <trkpt lat="43.5699" lon="6.29402">
        <ele>331.5</ele>
        <time>2024-01-14T14:50:37.099Z</time>
      </trkpt>
      <trkpt lat="43.56988" lon="6.294">
        <ele>331.8</ele>
        <time>2024-01-14T14:50:41.166Z</time>
      </trkpt>
      <trkpt lat="43.56986" lon="6.29397">
        <ele>332.1</ele>
        <time>2024-01-14T14:50:45.699Z</time>
      </trkpt>
      <trkpt lat="43.56985" lon="6.29393">
        <ele>331.9</ele>
        <time>2024-01-14T14:50:48.648Z</time>
      </trkpt>
      <trkpt lat="43.56985" lon="6.29389">
        <ele>331.4</ele>
        <time>2024-01-14T14:50:51.436Z</time>
      </trkpt>
      <trkpt lat="43.56985" lon="6.29385">
        <ele>331.4</ele>
        <time>2024-01-14T14:50:54.623Z</time>
      </trkpt>
      <trkpt lat="43.56987" lon="6.2938">
        <ele>330.7</ele>
        <time>2024-01-14T14:50:58.604Z</time>
      </trkpt>
      <trkpt lat="43.56987" lon="6.29374">
        <ele>330.6</ele>
        <time>2024-01-14T14:51:03.062Z</time>
      </trkpt>
      <trkpt lat="43.56987" lon="6.29369">
        <ele>330.6</ele>
        <time>2024-01-14T14:51:07.045Z</time>
      </trkpt>
      <trkpt lat="43.56986" lon="6.2936">
        <ele>330.9</ele>
        <time>2024-01-14T14:51:15.422Z</time>
      </trkpt>
      <trkpt lat="43.56985" lon="6.29354">
        <ele>330.4</ele>
        <time>2024-01-14T14:51:19.714Z</time>
      </trkpt>
      <trkpt lat="43.56983" lon="6.29346">
        <ele>330.1</ele>
        <time>2024-01-14T14:51:25.613Z</time>
      </trkpt>
      <trkpt lat="43.56981" lon="6.29339">
        <ele>330.1</ele>
        <time>2024-01-14T14:51:31.607Z</time>
      </trkpt>
      <trkpt lat="43.56979" lon="6.29331">
        <ele>330.1</ele>
        <time>2024-01-14T14:51:38.349Z</time>
      </trkpt>
      <trkpt lat="43.56977" lon="6.29324">
        <ele>330.5</ele>
        <time>2024-01-14T14:51:45.943Z</time>
      </trkpt>
      <trkpt lat="43.56975" lon="6.29316">
        <ele>330.8</ele>
        <time>2024-01-14T14:51:53.817Z</time>
      </trkpt>
      <trkpt lat="43.56972" lon="6.29308">
        <ele>331.3</ele>
        <time>2024-01-14T14:52:03.008Z</time>
      </trkpt>
      <trkpt lat="43.56971" lon="6.29301">
        <ele>331</ele>
        <time>2024-01-14T14:52:07.982Z</time>
      </trkpt>
      <trkpt lat="43.56969" lon="6.29293">
        <ele>331</ele>
        <time>2024-01-14T14:52:14.724Z</time>
      </trkpt>
      <trkpt lat="43.56968" lon="6.29285">
        <ele>330.6</ele>
        <time>2024-01-14T14:52:20.382Z</time>
      </trkpt>
      <trkpt lat="43.56968" lon="6.29277">
        <ele>329.7</ele>
        <time>2024-01-14T14:52:25.959Z</time>
      </trkpt>
      <trkpt lat="43.56965" lon="6.2927">
        <ele>328.7</ele>
        <time>2024-01-14T14:52:31.628Z</time>
      </trkpt>
      <trkpt lat="43.56964" lon="6.29266">
        <ele>328</ele>
        <time>2024-01-14T14:52:34.578Z</time>
      </trkpt>
      <trkpt lat="43.56961" lon="6.29264">
        <ele>328</ele>
        <time>2024-01-14T14:52:38.241Z</time>
      </trkpt>
      <trkpt lat="43.56959" lon="6.29262">
        <ele>327.9</ele>
        <time>2024-01-14T14:52:40.646Z</time>
      </trkpt>
      <trkpt lat="43.56956" lon="6.2926">
        <ele>327.9</ele>
        <time>2024-01-14T14:52:44.309Z</time>
      </trkpt>
      <trkpt lat="43.56953" lon="6.2926">
        <ele>328.4</ele>
        <time>2024-01-14T14:52:50.142Z</time>
      </trkpt>
      <trkpt lat="43.56951" lon="6.29261">
        <ele>329</ele>
        <time>2024-01-14T14:52:56.700Z</time>
      </trkpt>
      <trkpt lat="43.56948" lon="6.29262">
        <ele>329.8</ele>
        <time>2024-01-14T14:53:05.356Z</time>
      </trkpt>
      <trkpt lat="43.56945" lon="6.29263">
        <ele>330.6</ele>
        <time>2024-01-14T14:53:14.012Z</time>
      </trkpt>
      <trkpt lat="43.56943" lon="6.29265">
        <ele>331.3</ele>
        <time>2024-01-14T14:53:21.670Z</time>
      </trkpt>
      <trkpt lat="43.5694" lon="6.29266">
        <ele>331.5</ele>
        <time>2024-01-14T14:53:25.847Z</time>
      </trkpt>
      <trkpt lat="43.56938" lon="6.29268">
        <ele>331.9</ele>
        <time>2024-01-14T14:53:30.565Z</time>
      </trkpt>
      <trkpt lat="43.56935" lon="6.29269">
        <ele>332</ele>
        <time>2024-01-14T14:53:34.322Z</time>
      </trkpt>
      <trkpt lat="43.56932" lon="6.29271">
        <ele>332.1</ele>
        <time>2024-01-14T14:53:38.346Z</time>
      </trkpt>
      <trkpt lat="43.5693" lon="6.29271">
        <ele>332</ele>
        <time>2024-01-14T14:53:40.270Z</time>
      </trkpt>
      <trkpt lat="43.56927" lon="6.29271">
        <ele>331.8</ele>
        <time>2024-01-14T14:53:43.157Z</time>
      </trkpt>
      <trkpt lat="43.56926" lon="6.29271">
        <ele>331.7</ele>
        <time>2024-01-14T14:53:44.119Z</time>
      </trkpt>
      <trkpt lat="43.56923" lon="6.29272">
        <ele>331.5</ele>
        <time>2024-01-14T14:53:47.088Z</time>
      </trkpt>
      <trkpt lat="43.56921" lon="6.29274">
        <ele>331.5</ele>
        <time>2024-01-14T14:53:49.804Z</time>
      </trkpt>
      <trkpt lat="43.56919" lon="6.29275">
        <ele>331.3</ele>
        <time>2024-01-14T14:53:51.850Z</time>
      </trkpt>
      <trkpt lat="43.56916" lon="6.29276">
        <ele>331.1</ele>
        <time>2024-01-14T14:53:54.819Z</time>
      </trkpt>
      <trkpt lat="43.56914" lon="6.29276">
        <ele>331.5</ele>
        <time>2024-01-14T14:53:59.240Z</time>
      </trkpt>
      <trkpt lat="43.56911" lon="6.29276">
        <ele>332</ele>
        <time>2024-01-14T14:54:05.073Z</time>
      </trkpt>
      <trkpt lat="43.56908" lon="6.29276">
        <ele>332.6</ele>
        <time>2024-01-14T14:54:11.705Z</time>
      </trkpt>
      <trkpt lat="43.56906" lon="6.29277">
        <ele>332.9</ele>
        <time>2024-01-14T14:54:15.464Z</time>
      </trkpt>
      <trkpt lat="43.56904" lon="6.29277">
        <ele>333.3</ele>
        <time>2024-01-14T14:54:19.885Z</time>
      </trkpt>
      <trkpt lat="43.56902" lon="6.29278">
        <ele>333.7</ele>
        <time>2024-01-14T14:54:24.373Z</time>
      </trkpt>
      <trkpt lat="43.56901" lon="6.29279">
        <ele>333.9</ele>
        <time>2024-01-14T14:54:26.732Z</time>
      </trkpt>
      <trkpt lat="43.569" lon="6.2928">
        <ele>334.1</ele>
        <time>2024-01-14T14:54:29.091Z</time>
      </trkpt>
      <trkpt lat="43.56899" lon="6.29279">
        <ele>334.2</ele>
        <time>2024-01-14T14:54:30.856Z</time>
      </trkpt>
      <trkpt lat="43.56897" lon="6.29278">
        <ele>334.5</ele>
        <time>2024-01-14T14:54:34.616Z</time>
      </trkpt>
      <trkpt lat="43.56896" lon="6.29276">
        <ele>334.8</ele>
        <time>2024-01-14T14:54:38.088Z</time>
      </trkpt>
      <trkpt lat="43.56894" lon="6.29277">
        <ele>335.1</ele>
        <time>2024-01-14T14:54:41.847Z</time>
      </trkpt>
      <trkpt lat="43.56892" lon="6.29277">
        <ele>335.5</ele>
        <time>2024-01-14T14:54:46.268Z</time>
      </trkpt>
      <trkpt lat="43.56891" lon="6.29276">
        <ele>335.7</ele>
        <time>2024-01-14T14:54:48.627Z</time>
      </trkpt>
      <trkpt lat="43.56891" lon="6.29274">
        <ele>335.7</ele>
        <time>2024-01-14T14:54:50.220Z</time>
      </trkpt>
      <trkpt lat="43.56889" lon="6.29272">
        <ele>336.2</ele>
        <time>2024-01-14T14:54:55.732Z</time>
      </trkpt>
      <trkpt lat="43.56887" lon="6.2927">
        <ele>336.4</ele>
        <time>2024-01-14T14:54:59.262Z</time>
      </trkpt>
      <trkpt lat="43.56886" lon="6.29267">
        <ele>336.6</ele>
        <time>2024-01-14T14:55:02.713Z</time>
      </trkpt>
      <trkpt lat="43.56886" lon="6.29263">
        <ele>336.7</ele>
        <time>2024-01-14T14:55:06.265Z</time>
      </trkpt>
      <trkpt lat="43.56887" lon="6.2926">
        <ele>336.8</ele>
        <time>2024-01-14T14:55:09.267Z</time>
      </trkpt>
      <trkpt lat="43.56888" lon="6.29256">
        <ele>336.8</ele>
        <time>2024-01-14T14:55:12.638Z</time>
      </trkpt>
      <trkpt lat="43.56888" lon="6.29253">
        <ele>336.9</ele>
        <time>2024-01-14T14:55:15.403Z</time>
      </trkpt>
      <trkpt lat="43.56889" lon="6.29249">
        <ele>336.9</ele>
        <time>2024-01-14T14:55:18.774Z</time>
      </trkpt>
      <trkpt lat="43.56889" lon="6.29245">
        <ele>336.8</ele>
        <time>2024-01-14T14:55:21.646Z</time>
      </trkpt>
      <trkpt lat="43.56889" lon="6.29241">
        <ele>336.7</ele>
        <time>2024-01-14T14:55:24.518Z</time>
      </trkpt>
      <trkpt lat="43.56888" lon="6.29237">
        <ele>336.6</ele>
        <time>2024-01-14T14:55:27.573Z</time>
      </trkpt>
      <trkpt lat="43.56888" lon="6.29233">
        <ele>336.4</ele>
        <time>2024-01-14T14:55:30.361Z</time>
      </trkpt>
      <trkpt lat="43.56887" lon="6.29229">
        <ele>336.4</ele>
        <time>2024-01-14T14:55:33.732Z</time>
      </trkpt>
      <trkpt lat="43.56885" lon="6.29225">
        <ele>336.4</ele>
        <time>2024-01-14T14:55:37.604Z</time>
      </trkpt>
      <trkpt lat="43.56884" lon="6.29222">
        <ele>336.3</ele>
        <time>2024-01-14T14:55:39.924Z</time>
      </trkpt>
      <trkpt lat="43.56883" lon="6.29221">
        <ele>336.3</ele>
        <time>2024-01-14T14:55:41.282Z</time>
      </trkpt>
      <trkpt lat="43.56881" lon="6.29218">
        <ele>336.3</ele>
        <time>2024-01-14T14:55:44.530Z</time>
      </trkpt>
      <trkpt lat="43.56879" lon="6.29215">
        <ele>336.2</ele>
        <time>2024-01-14T14:55:47.462Z</time>
      </trkpt>
      <trkpt lat="43.56877" lon="6.29212">
        <ele>336.1</ele>
        <time>2024-01-14T14:55:50.395Z</time>
      </trkpt>
      <trkpt lat="43.56875" lon="6.29209">
        <ele>336</ele>
        <time>2024-01-14T14:55:53.328Z</time>
      </trkpt>
      <trkpt lat="43.56873" lon="6.29207">
        <ele>336</ele>
        <time>2024-01-14T14:55:56.043Z</time>
      </trkpt>
      <trkpt lat="43.56871" lon="6.29204">
        <ele>336</ele>
        <time>2024-01-14T14:55:59.291Z</time>
      </trkpt>
      <trkpt lat="43.56869" lon="6.29201">
        <ele>335.9</ele>
        <time>2024-01-14T14:56:02.223Z</time>
      </trkpt>
      <trkpt lat="43.56867" lon="6.29199">
        <ele>335.9</ele>
        <time>2024-01-14T14:56:04.939Z</time>
      </trkpt>
      <trkpt lat="43.56866" lon="6.29198">
        <ele>335.9</ele>
        <time>2024-01-14T14:56:06.297Z</time>
      </trkpt>
      <trkpt lat="43.56864" lon="6.292">
        <ele>336.2</ele>
        <time>2024-01-14T14:56:10.363Z</time>
      </trkpt>
      <trkpt lat="43.56862" lon="6.29203">
        <ele>336.6</ele>
        <time>2024-01-14T14:56:15.478Z</time>
      </trkpt>
      <trkpt lat="43.56861" lon="6.29204">
        <ele>336.7</ele>
        <time>2024-01-14T14:56:17.243Z</time>
      </trkpt>
      <trkpt lat="43.56859" lon="6.29207">
        <ele>336.6</ele>
        <time>2024-01-14T14:56:20.176Z</time>
      </trkpt>
      <trkpt lat="43.56857" lon="6.2921">
        <ele>336.5</ele>
        <time>2024-01-14T14:56:23.108Z</time>
      </trkpt>
      <trkpt lat="43.56855" lon="6.29214">
        <ele>336.5</ele>
        <time>2024-01-14T14:56:26.980Z</time>
      </trkpt>
      <trkpt lat="43.56854" lon="6.29217">
        <ele>336.6</ele>
        <time>2024-01-14T14:56:29.982Z</time>
      </trkpt>
      <trkpt lat="43.56852" lon="6.2922">
        <ele>336.5</ele>
        <time>2024-01-14T14:56:32.915Z</time>
      </trkpt>
      <trkpt lat="43.56851" lon="6.29222">
        <ele>336.5</ele>
        <time>2024-01-14T14:56:34.850Z</time>
      </trkpt>
      <trkpt lat="43.56849" lon="6.29225">
        <ele>336.4</ele>
        <time>2024-01-14T14:56:37.783Z</time>
      </trkpt>
      <trkpt lat="43.56848" lon="6.29229">
        <ele>336.5</ele>
        <time>2024-01-14T14:56:41.518Z</time>
      </trkpt>
      <trkpt lat="43.56846" lon="6.29233">
        <ele>336.5</ele>
        <time>2024-01-14T14:56:45.390Z</time>
      </trkpt>
      <trkpt lat="43.56845" lon="6.29237">
        <ele>336.6</ele>
        <time>2024-01-14T14:56:49.124Z</time>
      </trkpt>
      <trkpt lat="43.56843" lon="6.29241">
        <ele>336.7</ele>
        <time>2024-01-14T14:56:53.356Z</time>
      </trkpt>
      <trkpt lat="43.56841" lon="6.29244">
        <ele>336.8</ele>
        <time>2024-01-14T14:56:56.969Z</time>
      </trkpt>
      <trkpt lat="43.5684" lon="6.29247">
        <ele>337</ele>
        <time>2024-01-14T14:57:00.419Z</time>
      </trkpt>
      <trkpt lat="43.56839" lon="6.29251">
        <ele>337.3</ele>
        <time>2024-01-14T14:57:05.063Z</time>
      </trkpt>
      <trkpt lat="43.56837" lon="6.29254">
        <ele>337.4</ele>
        <time>2024-01-14T14:57:08.676Z</time>
      </trkpt>
      <trkpt lat="43.56835" lon="6.29258">
        <ele>337.6</ele>
        <time>2024-01-14T14:57:13.317Z</time>
      </trkpt>
      <trkpt lat="43.56833" lon="6.29261">
        <ele>337.7</ele>
        <time>2024-01-14T14:57:16.929Z</time>
      </trkpt>
      <trkpt lat="43.56831" lon="6.29264">
        <ele>337.5</ele>
        <time>2024-01-14T14:57:19.771Z</time>
      </trkpt>
      <trkpt lat="43.56829" lon="6.29267">
        <ele>337.4</ele>
        <time>2024-01-14T14:57:22.704Z</time>
      </trkpt>
      <trkpt lat="43.56827" lon="6.2927">
        <ele>337.2</ele>
        <time>2024-01-14T14:57:25.545Z</time>
      </trkpt>
      <trkpt lat="43.56825" lon="6.29272">
        <ele>337</ele>
        <time>2024-01-14T14:57:27.921Z</time>
      </trkpt>
      <trkpt lat="43.56824" lon="6.29273">
        <ele>336.9</ele>
        <time>2024-01-14T14:57:29.109Z</time>
      </trkpt>
      <trkpt lat="43.56823" lon="6.29274">
        <ele>336.8</ele>
        <time>2024-01-14T14:57:30.298Z</time>
      </trkpt>
      <trkpt lat="43.56823" lon="6.29274">
        <ele>336.8</ele>
        <time>2024-01-14T14:57:30.298Z</time>
        <extensions>
          <visugpx:TrkExtension xmlns:visugpx="https://www.visugpx.com/editgpx/">
            <visugpx:node>6</visugpx:node>
            </visugpx:TrkExtension>
        </extensions>
      </trkpt>
      <trkpt lat="43.56822" lon="6.29274">
        <ele>336.6</ele>
        <time>2024-01-14T14:57:31.260Z</time>
      </trkpt>
      <trkpt lat="43.56819" lon="6.29276">
        <ele>336.3</ele>
        <time>2024-01-14T14:57:34.465Z</time>
      </trkpt>
      <trkpt lat="43.56818" lon="6.29273">
        <ele>335.8</ele>
        <time>2024-01-14T14:57:36.767Z</time>
      </trkpt>
      <trkpt lat="43.56816" lon="6.2927">
        <ele>335.1</ele>
        <time>2024-01-14T14:57:39.609Z</time>
      </trkpt>
      <trkpt lat="43.56814" lon="6.29269">
        <ele>334.7</ele>
        <time>2024-01-14T14:57:41.655Z</time>
      </trkpt>
      <trkpt lat="43.56812" lon="6.29271">
        <ele>334.5</ele>
        <time>2024-01-14T14:57:44.031Z</time>
      </trkpt>
      <trkpt lat="43.56809" lon="6.29274">
        <ele>334.2</ele>
        <time>2024-01-14T14:57:47.595Z</time>
      </trkpt>
      <trkpt lat="43.56808" lon="6.29277">
        <ele>334.4</ele>
        <time>2024-01-14T14:57:51.046Z</time>
      </trkpt>
      <trkpt lat="43.56807" lon="6.29281">
        <ele>334.7</ele>
        <time>2024-01-14T14:57:55.690Z</time>
      </trkpt>
      <trkpt lat="43.56805" lon="6.29284">
        <ele>334.8</ele>
        <time>2024-01-14T14:57:59.303Z</time>
      </trkpt>
      <trkpt lat="43.56803" lon="6.29287">
        <ele>334.7</ele>
        <time>2024-01-14T14:58:02.235Z</time>
      </trkpt>
      <trkpt lat="43.56801" lon="6.29292">
        <ele>335</ele>
        <time>2024-01-14T14:58:07.982Z</time>
      </trkpt>
      <trkpt lat="43.56799" lon="6.29296">
        <ele>335.1</ele>
        <time>2024-01-14T14:58:12.214Z</time>
      </trkpt>
      <trkpt lat="43.56798" lon="6.293">
        <ele>335.4</ele>
        <time>2024-01-14T14:58:16.859Z</time>
      </trkpt>
      <trkpt lat="43.56796" lon="6.29306">
        <ele>335.6</ele>
        <time>2024-01-14T14:58:22.863Z</time>
      </trkpt>
      <trkpt lat="43.56794" lon="6.29312">
        <ele>335.7</ele>
        <time>2024-01-14T14:58:28.479Z</time>
      </trkpt>
      <trkpt lat="43.56793" lon="6.29317">
        <ele>336</ele>
        <time>2024-01-14T14:58:33.829Z</time>
      </trkpt>
      <trkpt lat="43.56789" lon="6.2932">
        <ele>335.5</ele>
        <time>2024-01-14T14:58:38.209Z</time>
      </trkpt>
      <trkpt lat="43.56786" lon="6.29325">
        <ele>335.5</ele>
        <time>2024-01-14T14:58:43.381Z</time>
      </trkpt>
      <trkpt lat="43.56784" lon="6.29327">
        <ele>335.3</ele>
        <time>2024-01-14T14:58:45.757Z</time>
      </trkpt>
      <trkpt lat="43.56782" lon="6.2933">
        <ele>335.3</ele>
        <time>2024-01-14T14:58:49.005Z</time>
      </trkpt>
      <trkpt lat="43.5678" lon="6.29333">
        <ele>335.4</ele>
        <time>2024-01-14T14:58:52.617Z</time>
      </trkpt>
      <trkpt lat="43.56779" lon="6.29335">
        <ele>335.5</ele>
        <time>2024-01-14T14:58:54.938Z</time>
      </trkpt>
      <trkpt lat="43.56776" lon="6.29337">
        <ele>335.3</ele>
        <time>2024-01-14T14:58:58.143Z</time>
      </trkpt>
      <trkpt lat="43.56776" lon="6.29337">
        <ele>335.3</ele>
        <time>2024-01-14T14:58:58.143Z</time>
      </trkpt>
      <trkpt lat="43.56775" lon="6.29337">
        <ele>335</ele>
        <time>2024-01-14T14:58:59.105Z</time>
      </trkpt>
      <trkpt lat="43.56774" lon="6.29337">
        <ele>334.8</ele>
        <time>2024-01-14T14:59:00.067Z</time>
      </trkpt>
      <trkpt lat="43.56773" lon="6.29337">
        <ele>334.6</ele>
        <time>2024-01-14T14:59:01.029Z</time>
      </trkpt>
      <trkpt lat="43.56771" lon="6.29338">
        <ele>334.3</ele>
        <time>2024-01-14T14:59:03.076Z</time>
      </trkpt>
      <trkpt lat="43.5677" lon="6.29341">
        <ele>334.5</ele>
        <time>2024-01-14T14:59:06.526Z</time>
      </trkpt>
      <trkpt lat="43.56768" lon="6.29343">
        <ele>334.4</ele>
        <time>2024-01-14T14:59:08.931Z</time>
      </trkpt>
      <trkpt lat="43.56767" lon="6.29345">
        <ele>334.4</ele>
        <time>2024-01-14T14:59:10.867Z</time>
      </trkpt>
      <trkpt lat="43.56765" lon="6.29347">
        <ele>334.2</ele>
        <time>2024-01-14T14:59:13.243Z</time>
      </trkpt>
      <trkpt lat="43.56763" lon="6.29348">
        <ele>333.9</ele>
        <time>2024-01-14T14:59:15.290Z</time>
      </trkpt>
      <trkpt lat="43.56761" lon="6.29349">
        <ele>333.5</ele>
        <time>2024-01-14T14:59:17.336Z</time>
      </trkpt>
      <trkpt lat="43.5676" lon="6.2935">
        <ele>333.4</ele>
        <time>2024-01-14T14:59:18.524Z</time>
      </trkpt>
      <trkpt lat="43.56758" lon="6.29351">
        <ele>333</ele>
        <time>2024-01-14T14:59:20.571Z</time>
      </trkpt>
      <trkpt lat="43.56756" lon="6.29351">
        <ele>332.5</ele>
        <time>2024-01-14T14:59:22.495Z</time>
      </trkpt>
      <trkpt lat="43.56754" lon="6.29352">
        <ele>332.1</ele>
        <time>2024-01-14T14:59:24.542Z</time>
      </trkpt>
      <trkpt lat="43.56752" lon="6.29354">
        <ele>331.8</ele>
        <time>2024-01-14T14:59:26.918Z</time>
      </trkpt>
      <trkpt lat="43.56751" lon="6.29355">
        <ele>331.6</ele>
        <time>2024-01-14T14:59:28.106Z</time>
      </trkpt>
      <trkpt lat="43.56752" lon="6.29358">
        <ele>332</ele>
        <time>2024-01-14T14:59:32.511Z</time>
        <extensions>
          <visugpx:TrkExtension xmlns:visugpx="https://www.visugpx.com/editgpx/">
            <visugpx:node>7</visugpx:node>
            </visugpx:TrkExtension>
        </extensions>
      </trkpt>
      <trkpt lat="43.56751" lon="6.29358">
        <ele>331.9</ele>
        <time>2024-01-14T14:59:33.083Z</time>
      </trkpt>
      <trkpt lat="43.56751" lon="6.29355">
        <ele>331.6</ele>
        <time>2024-01-14T14:59:35.174Z</time>
      </trkpt>
      <trkpt lat="43.56743" lon="6.29355">
        <ele>330.4</ele>
        <time>2024-01-14T14:59:43.359Z</time>
      </trkpt>
      <trkpt lat="43.56734" lon="6.29354">
        <ele>329.4</ele>
        <time>2024-01-14T14:59:51.544Z</time>
      </trkpt>
      <trkpt lat="43.5673" lon="6.29356">
        <ele>329.2</ele>
        <time>2024-01-14T14:59:55.638Z</time>
      </trkpt>
      <trkpt lat="43.56726" lon="6.29357">
        <ele>328.8</ele>
        <time>2024-01-14T15:00:00.023Z</time>
      </trkpt>
      <trkpt lat="43.56721" lon="6.29358">
        <ele>328.5</ele>
        <time>2024-01-14T15:00:04.408Z</time>
      </trkpt>
      <trkpt lat="43.56717" lon="6.29358">
        <ele>328.2</ele>
        <time>2024-01-14T15:00:08.256Z</time>
      </trkpt>
      <trkpt lat="43.56713" lon="6.29359">
        <ele>328</ele>
        <time>2024-01-14T15:00:12.167Z</time>
      </trkpt>
      <trkpt lat="43.56709" lon="6.29363">
        <ele>328.1</ele>
        <time>2024-01-14T15:00:17.729Z</time>
      </trkpt>
      <trkpt lat="43.56705" lon="6.29366">
        <ele>328</ele>
        <time>2024-01-14T15:00:22.613Z</time>
      </trkpt>
      <trkpt lat="43.56702" lon="6.2937">
        <ele>328</ele>
        <time>2024-01-14T15:00:27.609Z</time>
      </trkpt>
      <trkpt lat="43.56698" lon="6.29374">
        <ele>328.1</ele>
        <time>2024-01-14T15:00:32.961Z</time>
      </trkpt>
      <trkpt lat="43.56695" lon="6.29378">
        <ele>328.2</ele>
        <time>2024-01-14T15:00:38.313Z</time>
      </trkpt>
      <trkpt lat="43.56691" lon="6.29382">
        <ele>328</ele>
        <time>2024-01-14T15:00:42.692Z</time>
      </trkpt>
      <trkpt lat="43.56686" lon="6.29385">
        <ele>327.5</ele>
        <time>2024-01-14T15:00:47.937Z</time>
      </trkpt>
      <trkpt lat="43.56682" lon="6.29386">
        <ele>326.9</ele>
        <time>2024-01-14T15:00:52.280Z</time>
      </trkpt>
      <trkpt lat="43.56677" lon="6.29386">
        <ele>326.3</ele>
        <time>2024-01-14T15:00:56.624Z</time>
      </trkpt>
      <trkpt lat="43.56672" lon="6.29387">
        <ele>325.6</ele>
        <time>2024-01-14T15:01:01.447Z</time>
      </trkpt>
      <trkpt lat="43.56667" lon="6.29387">
        <ele>324.9</ele>
        <time>2024-01-14T15:01:06.270Z</time>
        <extensions>
          <visugpx:TrkExtension xmlns:visugpx="https://www.visugpx.com/editgpx/">
            <visugpx:node>8</visugpx:node>
            </visugpx:TrkExtension>
        </extensions>
      </trkpt>
      <trkpt lat="43.56663" lon="6.29388">
        <ele>324.5</ele>
        <time>2024-01-14T15:01:10.613Z</time>
      </trkpt>
      <trkpt lat="43.56658" lon="6.29388">
        <ele>324</ele>
        <time>2024-01-14T15:01:14.956Z</time>
      </trkpt>
      <trkpt lat="43.56651" lon="6.29389">
        <ele>323.3</ele>
        <time>2024-01-14T15:01:21.700Z</time>
      </trkpt>
      <trkpt lat="43.56644" lon="6.29389">
        <ele>322.6</ele>
        <time>2024-01-14T15:01:28.444Z</time>
      </trkpt>
      <trkpt lat="43.56637" lon="6.29387">
        <ele>321.9</ele>
        <time>2024-01-14T15:01:35.321Z</time>
      </trkpt>
      <trkpt lat="43.56634" lon="6.29385">
        <ele>321.6</ele>
        <time>2024-01-14T15:01:38.526Z</time>
        <extensions>
          <visugpx:TrkExtension xmlns:visugpx="https://www.visugpx.com/editgpx/">
            <visugpx:node>9</visugpx:node>
            </visugpx:TrkExtension>
        </extensions>
      </trkpt>
      <trkpt lat="43.5663" lon="6.29383">
        <ele>321.3</ele>
        <time>2024-01-14T15:01:42.619Z</time>
      </trkpt>
      <trkpt lat="43.56625" lon="6.29378">
        <ele>320.7</ele>
        <time>2024-01-14T15:01:48.560Z</time>
        <extensions>
          <visugpx:TrkExtension xmlns:visugpx="https://www.visugpx.com/editgpx/">
            <visugpx:node>10</visugpx:node>
            </visugpx:TrkExtension>
        </extensions>
      </trkpt>
      <trkpt lat="43.5662" lon="6.29375">
        <ele>320.1</ele>
        <time>2024-01-14T15:01:53.805Z</time>
      </trkpt>
      <trkpt lat="43.56616" lon="6.2937">
        <ele>319.4</ele>
        <time>2024-01-14T15:01:58.997Z</time>
      </trkpt>
      <trkpt lat="43.56612" lon="6.29365">
        <ele>318.5</ele>
        <time>2024-01-14T15:02:04.189Z</time>
        <extensions>
          <visugpx:TrkExtension xmlns:visugpx="https://www.visugpx.com/editgpx/">
            <visugpx:node>11</visugpx:node>
            </visugpx:TrkExtension>
        </extensions>
      </trkpt>
      <trkpt lat="43.56611" lon="6.29364">
        <ele>318.3</ele>
        <time>2024-01-14T15:02:05.377Z</time>
      </trkpt>
      <trkpt lat="43.56607" lon="6.29361">
        <ele>317.8</ele>
        <time>2024-01-14T15:02:10.185Z</time>
      </trkpt>
      <trkpt lat="43.56602" lon="6.29358">
        <ele>317.7</ele>
        <time>2024-01-14T15:02:15.356Z</time>
      </trkpt>
      <trkpt lat="43.56599" lon="6.29356">
        <ele>317.6</ele>
        <time>2024-01-14T15:02:18.701Z</time>
        <extensions>
          <visugpx:TrkExtension xmlns:visugpx="https://www.visugpx.com/editgpx/">
            <visugpx:node>12</visugpx:node>
            </visugpx:TrkExtension>
        </extensions>
      </trkpt>
      <trkpt lat="43.56595" lon="6.29353">
        <ele>317.4</ele>
        <time>2024-01-14T15:02:23.090Z</time>
      </trkpt>
      <trkpt lat="43.56591" lon="6.2935">
        <ele>317.3</ele>
        <time>2024-01-14T15:02:27.772Z</time>
      </trkpt>
      <trkpt lat="43.56585" lon="6.29347">
        <ele>317</ele>
        <time>2024-01-14T15:02:34.516Z</time>
      </trkpt>
      <trkpt lat="43.56578" lon="6.29343">
        <ele>316.7</ele>
        <time>2024-01-14T15:02:41.260Z</time>
        <extensions>
          <visugpx:TrkExtension xmlns:visugpx="https://www.visugpx.com/editgpx/">
            <visugpx:node>13</visugpx:node>
            </visugpx:TrkExtension>
        </extensions>
      </trkpt>
    </trkseg>
  </trk>
</gpx>